<?xml version='1.0' encoding='UTF-8'?><gpx version="1.1" creator="JPX - https://github.com/jenetics/jpx" xmlns="http://www.topografix.com/GPX/1/1"><trk><trkseg><trkpt lat="43.05253325226833" lon="11.274842249255379"><ele>446.0</ele><time>2026-04-04T13:28:05.001Z</time></trkpt><trkpt lat="43.05263808386895" lon="11.274835996199242"><ele>446.0</ele><time>2026-04-04T13:28:07.001Z</time></trkpt><trkpt lat="43.05273122976211" lon="11.274819807342439"><ele>446.0</ele><time>2026-04-04T13:28:09.001Z</time></trkpt><trkpt lat="43.05284176008648" lon="11.274811561412983"><ele>446.0</ele><time>2026-04-04T13:28:11.001Z</time></trkpt><trkpt lat="43.05296427466508" lon="11.274773999787405"><ele>446.0</ele><time>2026-04-04T13:28:13.001Z</time></trkpt><trkpt lat="43.05303245298019" lon="11.274753655207942"><ele>445.4</ele><time>2026-04-04T13:28:14.001Z</time></trkpt><trkpt lat="43.05313593637675" lon="11.27471779836819"><ele>444.8</ele><time>2026-04-04T13:28:16.001Z</time></trkpt><trkpt lat="43.05325912593576" lon="11.274769699506777"><ele>444.19999999999993</ele><time>2026-04-04T13:28:18.001Z</time></trkpt><trkpt lat="43.05333066256737" lon="11.274803733634618"><ele>443.59999999999997</ele><time>2026-04-04T13:28:19.001Z</time></trkpt><trkpt lat="43.05340934303101" lon="11.274804329575385"><ele>443.0</ele><time>2026-04-04T13:28:20.001Z</time></trkpt><trkpt lat="43.05348653253684" lon="11.274830497479421"><ele>444.3333333333333</ele><time>2026-04-04T13:28:21.001Z</time></trkpt><trkpt lat="43.05356757542781" lon="11.27484026628384"><ele>445.66666666666663</ele><time>2026-04-04T13:28:22.001Z</time></trkpt><trkpt lat="43.053638925465975" lon="11.27482894256351"><ele>447.0</ele><time>2026-04-04T13:28:23.001Z</time></trkpt><trkpt lat="43.05372398900903" lon="11.27479447882817"><ele>448.33333333333337</ele><time>2026-04-04T13:28:24.001Z</time></trkpt><trkpt lat="43.05382085048102" lon="11.274784467747013"><ele>449.6666666666667</ele><time>2026-04-04T13:28:25.001Z</time></trkpt><trkpt lat="43.053899921351125" lon="11.27478256933385"><ele>451.0</ele><time>2026-04-04T13:28:26.001Z</time></trkpt><trkpt lat="43.053988045588966" lon="11.274788680986944"><ele>451.0</ele><time>2026-04-04T13:28:27.001Z</time></trkpt><trkpt lat="43.054082170562296" lon="11.274774957906255"><ele>451.0</ele><time>2026-04-04T13:28:28.001Z</time></trkpt><trkpt lat="43.054178604679024" lon="11.27478194232151"><ele>451.0</ele><time>2026-04-04T13:28:29.001Z</time></trkpt><trkpt lat="43.05427419163015" lon="11.27475990415036"><ele>451.0</ele><time>2026-04-04T13:28:30.001Z</time></trkpt><trkpt lat="43.05437736692808" lon="11.27475279050365"><ele>451.0</ele><time>2026-04-04T13:28:31.001Z</time></trkpt><trkpt lat="43.05446610471522" lon="11.27471034300034"><ele>451.0</ele><time>2026-04-04T13:28:32.001Z</time></trkpt><trkpt lat="43.054562419098104" lon="11.27467924492855"><ele>451.0</ele><time>2026-04-04T13:28:33.001Z</time></trkpt><trkpt lat="43.05464775914029" lon="11.274646599784457"><ele>451.0</ele><time>2026-04-04T13:28:34.001Z</time></trkpt><trkpt lat="43.05474314664755" lon="11.274587333573265"><ele>451.0</ele><time>2026-04-04T13:28:35.001Z</time></trkpt><trkpt lat="43.05484995464177" lon="11.27455797734787"><ele>451.0</ele><time>2026-04-04T13:28:36.001Z</time></trkpt><trkpt lat="43.05494146332998" lon="11.274522005914605"><ele>452.6</ele><time>2026-04-04T13:28:37.001Z</time></trkpt><trkpt lat="43.05504224209466" lon="11.274491400123773"><ele>454.20000000000005</ele><time>2026-04-04T13:28:38.001Z</time></trkpt><trkpt lat="43.055130013705195" lon="11.274468518709234"><ele>455.79999999999995</ele><time>2026-04-04T13:28:39.001Z</time></trkpt><trkpt lat="43.05521104688572" lon="11.274455542069411"><ele>457.4</ele><time>2026-04-04T13:28:40.001Z</time></trkpt><trkpt lat="43.055278293955574" lon="11.27445260600072"><ele>459.0</ele><time>2026-04-04T13:28:41.001Z</time></trkpt><trkpt lat="43.05540037486842" lon="11.274478003673076"><ele>459.0</ele><time>2026-04-04T13:28:43.001Z</time></trkpt><trkpt lat="43.05545852628032" lon="11.274545265797906"><ele>459.0</ele><time>2026-04-04T13:28:44.001Z</time></trkpt><trkpt lat="43.055532986637125" lon="11.274596514050073"><ele>459.0</ele><time>2026-04-04T13:28:45.001Z</time></trkpt><trkpt lat="43.05560778030436" lon="11.274647732283919"><ele>459.0</ele><time>2026-04-04T13:28:46.001Z</time></trkpt><trkpt lat="43.055695636564785" lon="11.27468997396613"><ele>459.0</ele><time>2026-04-04T13:28:47.001Z</time></trkpt><trkpt lat="43.05577975388695" lon="11.27474311349698"><ele>459.0</ele><time>2026-04-04T13:28:48.001Z</time></trkpt><trkpt lat="43.05585513890919" lon="11.274810243881449"><ele>460.2</ele><time>2026-04-04T13:28:49.001Z</time></trkpt><trkpt lat="43.05594515741309" lon="11.274847663064621"><ele>461.4</ele><time>2026-04-04T13:28:50.001Z</time></trkpt><trkpt lat="43.05602647638554" lon="11.274896535278856"><ele>462.6</ele><time>2026-04-04T13:28:51.001Z</time></trkpt><trkpt lat="43.056116241085554" lon="11.274946116280189"><ele>463.8</ele><time>2026-04-04T13:28:52.001Z</time></trkpt><trkpt lat="43.056213876094525" lon="11.274988997277203"><ele>465.0</ele><time>2026-04-04T13:28:53.001Z</time></trkpt><trkpt lat="43.05630809678704" lon="11.275039934798444"><ele>465.0</ele><time>2026-04-04T13:28:54.001Z</time></trkpt><trkpt lat="43.05638950962316" lon="11.275077959244376"><ele>465.0</ele><time>2026-04-04T13:28:55.001Z</time></trkpt><trkpt lat="43.05646639832434" lon="11.27512553157227"><ele>465.0</ele><time>2026-04-04T13:28:56.001Z</time></trkpt><trkpt lat="43.056529654100615" lon="11.275197340585278"><ele>465.0</ele><time>2026-04-04T13:28:57.001Z</time></trkpt><trkpt lat="43.05660017709043" lon="11.27528570884681"><ele>465.0</ele><time>2026-04-04T13:28:58.001Z</time></trkpt><trkpt lat="43.056670411749586" lon="11.275389498978049"><ele>465.5</ele><time>2026-04-04T13:28:59.001Z</time></trkpt><trkpt lat="43.05672492124103" lon="11.275471960036798"><ele>466.0</ele><time>2026-04-04T13:29:00.001Z</time></trkpt><trkpt lat="43.056789617987796" lon="11.275543728845813"><ele>466.5</ele><time>2026-04-04T13:29:01.001Z</time></trkpt><trkpt lat="43.056854002653225" lon="11.27559421125491"><ele>467.0</ele><time>2026-04-04T13:29:02.001Z</time></trkpt><trkpt lat="43.056934337021" lon="11.275647611666637"><ele>467.5</ele><time>2026-04-04T13:29:03.001Z</time></trkpt><trkpt lat="43.05700508885086" lon="11.275694479407688"><ele>468.0</ele><time>2026-04-04T13:29:04.001Z</time></trkpt><trkpt lat="43.05706404527564" lon="11.275743028127502"><ele>468.0</ele><time>2026-04-04T13:29:05.001Z</time></trkpt><trkpt lat="43.057118563837335" lon="11.275796570660505"><ele>468.0</ele><time>2026-04-04T13:29:06.001Z</time></trkpt><trkpt lat="43.05721012354483" lon="11.275876671290467"><ele>468.0</ele><time>2026-04-04T13:29:08.001Z</time></trkpt><trkpt lat="43.057278917542874" lon="11.275962217991886"><ele>468.0</ele><time>2026-04-04T13:29:10.001Z</time></trkpt><trkpt lat="43.05734658448635" lon="11.276021580996062"><ele>468.0</ele><time>2026-04-04T13:29:12.001Z</time></trkpt><trkpt lat="43.05740859477623" lon="11.276086304003295"><ele>468.0</ele><time>2026-04-04T13:29:14.001Z</time></trkpt><trkpt lat="43.05745660147009" lon="11.276167521619081"><ele>468.0</ele><time>2026-04-04T13:29:16.001Z</time></trkpt><trkpt lat="43.05753144408635" lon="11.276256646655327"><ele>467.99999999999994</ele><time>2026-04-04T13:29:18.001Z</time></trkpt><trkpt lat="43.05760877785947" lon="11.276328386646718"><ele>467.99999999999994</ele><time>2026-04-04T13:29:20.001Z</time></trkpt><trkpt lat="43.05765500672045" lon="11.276396116757153"><ele>468.0</ele><time>2026-04-04T13:29:22.001Z</time></trkpt><trkpt lat="43.057721291457554" lon="11.276470960609888"><ele>468.0</ele><time>2026-04-04T13:29:25.001Z</time></trkpt><trkpt lat="43.05781996597029" lon="11.276397816668261"><ele>468.28571428571433</ele><time>2026-04-04T13:29:28.001Z</time></trkpt><trkpt lat="43.05787276805704" lon="11.276288623573839"><ele>468.5714285714286</ele><time>2026-04-04T13:29:30.001Z</time></trkpt><trkpt lat="43.05792185136499" lon="11.276230805225547"><ele>468.8571428571429</ele><time>2026-04-04T13:29:31.001Z</time></trkpt><trkpt lat="43.057986627657016" lon="11.276223852244208"><ele>469.1428571428571</ele><time>2026-04-04T13:29:32.001Z</time></trkpt><trkpt lat="43.05805056013257" lon="11.276203066852187"><ele>469.4285714285714</ele><time>2026-04-04T13:29:33.001Z</time></trkpt><trkpt lat="43.05811548940084" lon="11.276187613742998"><ele>469.71428571428567</ele><time>2026-04-04T13:29:34.001Z</time></trkpt><trkpt lat="43.058183025405576" lon="11.2761767927349"><ele>470.0</ele><time>2026-04-04T13:29:35.001Z</time></trkpt><trkpt lat="43.05825560564672" lon="11.276165047717296"><ele>470.16666666666663</ele><time>2026-04-04T13:29:36.001Z</time></trkpt><trkpt lat="43.05833655885647" lon="11.276150433817639"><ele>470.3333333333333</ele><time>2026-04-04T13:29:37.001Z</time></trkpt><trkpt lat="43.05840966836714" lon="11.276135875214363"><ele>470.5</ele><time>2026-04-04T13:29:38.001Z</time></trkpt><trkpt lat="43.058490613466425" lon="11.276119756266565"><ele>470.66666666666663</ele><time>2026-04-04T13:29:39.001Z</time></trkpt><trkpt lat="43.05858643462941" lon="11.276100674993307"><ele>470.8333333333333</ele><time>2026-04-04T13:29:40.001Z</time></trkpt><trkpt lat="43.05867568309516" lon="11.276081393968628"><ele>471.0</ele><time>2026-04-04T13:29:41.001Z</time></trkpt><trkpt lat="43.05876281323329" lon="11.276061692669446"><ele>471.0</ele><time>2026-04-04T13:29:42.001Z</time></trkpt><trkpt lat="43.05886517917086" lon="11.276038546381029"><ele>471.0</ele><time>2026-04-04T13:29:43.001Z</time></trkpt><trkpt lat="43.0589571754886" lon="11.276017744768149"><ele>471.0</ele><time>2026-04-04T13:29:44.001Z</time></trkpt><trkpt lat="43.059042732119686" lon="11.275998399284715"><ele>471.0</ele><time>2026-04-04T13:29:45.001Z</time></trkpt><trkpt lat="43.05912670596986" lon="11.275965154506732"><ele>471.0</ele><time>2026-04-04T13:29:46.001Z</time></trkpt><trkpt lat="43.05921494260706" lon="11.275940441879031"><ele>472.0</ele><time>2026-04-04T13:29:47.001Z</time></trkpt><trkpt lat="43.059314259371384" lon="11.275922095917588"><ele>473.0</ele><time>2026-04-04T13:29:48.001Z</time></trkpt><trkpt lat="43.05940014962072" lon="11.275900560926821"><ele>474.0</ele><time>2026-04-04T13:29:49.001Z</time></trkpt><trkpt lat="43.05949515672729" lon="11.275880913785247"><ele>475.0</ele><time>2026-04-04T13:29:50Z</time></trkpt><trkpt lat="43.0595796600571" lon="11.275865679236153"><ele>476.0</ele><time>2026-04-04T13:29:51Z</time></trkpt><trkpt lat="43.05965673376236" lon="11.275852137384883"><ele>477.0</ele><time>2026-04-04T13:29:52Z</time></trkpt><trkpt lat="43.05976264161298" lon="11.275822690417241"><ele>477.0</ele><time>2026-04-04T13:29:54Z</time></trkpt><trkpt lat="43.059847590972424" lon="11.275827442991705"><ele>477.00000000000006</ele><time>2026-04-04T13:29:56Z</time></trkpt><trkpt lat="43.05993639994509" lon="11.275679804524794"><ele>477.00000000000006</ele><time>2026-04-04T13:29:58Z</time></trkpt><trkpt lat="43.05999101425498" lon="11.275620657612585"><ele>477.0</ele><time>2026-04-04T13:29:59Z</time></trkpt><trkpt lat="43.06004159376577" lon="11.275565506620437"><ele>477.0</ele><time>2026-04-04T13:30:00Z</time></trkpt><trkpt lat="43.06012120137703" lon="11.275469185417313"><ele>476.5</ele><time>2026-04-04T13:30:02Z</time></trkpt><trkpt lat="43.060186639280346" lon="11.27539654567167"><ele>476.0</ele><time>2026-04-04T13:30:04Z</time></trkpt><trkpt lat="43.06024448497667" lon="11.275347693307632"><ele>475.5</ele><time>2026-04-04T13:30:06Z</time></trkpt><trkpt lat="43.06031463442568" lon="11.275302558931202"><ele>475.0</ele><time>2026-04-04T13:30:09Z</time></trkpt><trkpt lat="43.06040357379619" lon="11.275254604990359"><ele>474.5</ele><time>2026-04-04T13:30:12Z</time></trkpt><trkpt lat="43.060477063534385" lon="11.275216918089354"><ele>474.0</ele><time>2026-04-04T13:30:14Z</time></trkpt><trkpt lat="43.06054562033596" lon="11.275184360705765"><ele>474.0</ele><time>2026-04-04T13:30:17Z</time></trkpt><trkpt lat="43.060613558225484" lon="11.275152676804147"><ele>474.0</ele><time>2026-04-04T13:30:20Z</time></trkpt><trkpt lat="43.060681271757" lon="11.275121097543984"><ele>474.0</ele><time>2026-04-04T13:30:24Z</time></trkpt><trkpt lat="43.06074684571154" lon="11.275090516096165"><ele>474.0</ele><time>2026-04-04T13:30:28Z</time></trkpt><trkpt lat="43.06080903806629" lon="11.275059719777925"><ele>474.0</ele><time>2026-04-04T13:30:30Z</time></trkpt><trkpt lat="43.060875087568355" lon="11.275026164313694"><ele>474.0</ele><time>2026-04-04T13:30:31Z</time></trkpt><trkpt lat="43.06098405992663" lon="11.274947994338984"><ele>475.0</ele><time>2026-04-04T13:30:33Z</time></trkpt><trkpt lat="43.061053999233586" lon="11.274910678774335"><ele>476.0</ele><time>2026-04-04T13:30:34Z</time></trkpt><trkpt lat="43.06112695200673" lon="11.274891504220987"><ele>477.0</ele><time>2026-04-04T13:30:35Z</time></trkpt><trkpt lat="43.06120301096404" lon="11.274851577320186"><ele>478.0</ele><time>2026-04-04T13:30:36Z</time></trkpt><trkpt lat="43.061273204370124" lon="11.274816021670818"><ele>479.0</ele><time>2026-04-04T13:30:37Z</time></trkpt><trkpt lat="43.061357073234745" lon="11.274771044334559"><ele>480.0</ele><time>2026-04-04T13:30:38Z</time></trkpt><trkpt lat="43.061431796174524" lon="11.274738336575155"><ele>477.6666666666667</ele><time>2026-04-04T13:30:39Z</time></trkpt><trkpt lat="43.06150566934051" lon="11.27468843412469"><ele>475.33333333333337</ele><time>2026-04-04T13:30:40Z</time></trkpt><trkpt lat="43.061577923752616" lon="11.274617764784443"><ele>473.0</ele><time>2026-04-04T13:30:41Z</time></trkpt><trkpt lat="43.06165158514294" lon="11.274562073440475"><ele>470.6666666666667</ele><time>2026-04-04T13:30:42Z</time></trkpt><trkpt lat="43.06172603171341" lon="11.274516483283263"><ele>468.33333333333337</ele><time>2026-04-04T13:30:43Z</time></trkpt><trkpt lat="43.06179081813508" lon="11.274456707272353"><ele>466.0</ele><time>2026-04-04T13:30:44Z</time></trkpt><trkpt lat="43.06185003429729" lon="11.274414011769426"><ele>466.00000000000006</ele><time>2026-04-04T13:30:45Z</time></trkpt><trkpt lat="43.06190750184093" lon="11.274359673709252"><ele>466.0</ele><time>2026-04-04T13:30:46Z</time></trkpt><trkpt lat="43.06196461404165" lon="11.274310230465392"><ele>466.0</ele><time>2026-04-04T13:30:47Z</time></trkpt><trkpt lat="43.062021744463294" lon="11.27425312898508"><ele>466.0</ele><time>2026-04-04T13:30:48Z</time></trkpt><trkpt lat="43.062084567884305" lon="11.274197747211854"><ele>466.00000000000006</ele><time>2026-04-04T13:30:49Z</time></trkpt><trkpt lat="43.06220047404602" lon="11.274122196437135"><ele>466.0</ele><time>2026-04-04T13:30:51Z</time></trkpt><trkpt lat="43.06227812358344" lon="11.274078172189853"><ele>466.00000000000006</ele><time>2026-04-04T13:30:53Z</time></trkpt><trkpt lat="43.062193936629306" lon="11.274127385833415"><ele>466.0</ele><time>2026-04-04T13:31:14Z</time></trkpt><trkpt lat="43.06210554767161" lon="11.274197549720759"><ele>466.0</ele><time>2026-04-04T13:31:16Z</time></trkpt><trkpt lat="43.062049537061036" lon="11.274250499423285"><ele>466.0</ele><time>2026-04-04T13:31:17Z</time></trkpt><trkpt lat="43.06198612551444" lon="11.27430555748749"><ele>466.00000000000006</ele><time>2026-04-04T13:31:18Z</time></trkpt><trkpt lat="43.06191700801962" lon="11.274375375946263"><ele>466.0</ele><time>2026-04-04T13:31:20Z</time></trkpt><trkpt lat="43.0618510577462" lon="11.274436782913579"><ele>466.0</ele><time>2026-04-04T13:31:21Z</time></trkpt><trkpt lat="43.06177810384287" lon="11.274497926707372"><ele>466.0</ele><time>2026-04-04T13:31:22Z</time></trkpt><trkpt lat="43.06169626530363" lon="11.274554727884828"><ele>466.0</ele><time>2026-04-04T13:31:23Z</time></trkpt><trkpt lat="43.061620192226215" lon="11.274612644228013"><ele>466.0</ele><time>2026-04-04T13:31:24Z</time></trkpt><trkpt lat="43.06153154346605" lon="11.274672444084102"><ele>466.0</ele><time>2026-04-04T13:31:25Z</time></trkpt><trkpt lat="43.06144143152229" lon="11.274737149876591"><ele>468.8</ele><time>2026-04-04T13:31:26Z</time></trkpt><trkpt lat="43.06135612478396" lon="11.27478944781663"><ele>471.6</ele><time>2026-04-04T13:31:27Z</time></trkpt><trkpt lat="43.06126522787342" lon="11.274850849556254"><ele>474.4</ele><time>2026-04-04T13:31:28Z</time></trkpt><trkpt lat="43.06115798607769" lon="11.274912613275283"><ele>477.2</ele><time>2026-04-04T13:31:29Z</time></trkpt><trkpt lat="43.06103186689588" lon="11.274937596958674"><ele>480.0</ele><time>2026-04-04T13:31:30Z</time></trkpt><trkpt lat="43.06092079159399" lon="11.27498724671687"><ele>480.0</ele><time>2026-04-04T13:31:31Z</time></trkpt><trkpt lat="43.06081751795146" lon="11.275058541723482"><ele>480.0</ele><time>2026-04-04T13:31:32Z</time></trkpt><trkpt lat="43.06070779272011" lon="11.275120260897573"><ele>480.0</ele><time>2026-04-04T13:31:33Z</time></trkpt><trkpt lat="43.06059246304715" lon="11.275168198413638"><ele>480.0</ele><time>2026-04-04T13:31:34Z</time></trkpt><trkpt lat="43.06048543115544" lon="11.275212425356026"><ele>479.0</ele><time>2026-04-04T13:31:35Z</time></trkpt><trkpt lat="43.06039260261802" lon="11.275255717900917"><ele>478.0</ele><time>2026-04-04T13:31:36Z</time></trkpt><trkpt lat="43.06030802176865" lon="11.27530358814042"><ele>477.0</ele><time>2026-04-04T13:31:37Z</time></trkpt><trkpt lat="43.06023108086833" lon="11.275347604720789"><ele>476.0</ele><time>2026-04-04T13:31:38Z</time></trkpt><trkpt lat="43.06017392498049" lon="11.275388477803228"><ele>475.0</ele><time>2026-04-04T13:31:39Z</time></trkpt><trkpt lat="43.06011919524567" lon="11.275445020021774"><ele>474.0</ele><time>2026-04-04T13:31:40Z</time></trkpt><trkpt lat="43.06007381310735" lon="11.27552486904114"><ele>474.5</ele><time>2026-04-04T13:31:41Z</time></trkpt><trkpt lat="43.06000877474607" lon="11.275607807894339"><ele>475.0</ele><time>2026-04-04T13:31:42Z</time></trkpt><trkpt lat="43.05994481497629" lon="11.275671028507942"><ele>475.5</ele><time>2026-04-04T13:31:43Z</time></trkpt><trkpt lat="43.059832897334076" lon="11.275704048254656"><ele>476.0</ele><time>2026-04-04T13:31:45Z</time></trkpt><trkpt lat="43.05977414149694" lon="11.275765071573787"><ele>476.5</ele><time>2026-04-04T13:31:48Z</time></trkpt><trkpt lat="43.05973874281809" lon="11.275848884459428"><ele>477.0</ele><time>2026-04-04T13:31:49Z</time></trkpt><trkpt lat="43.059665837943385" lon="11.275822490350732"><ele>477.0</ele><time>2026-04-04T13:31:50Z</time></trkpt><trkpt lat="43.05959374037181" lon="11.275833312803702"><ele>477.00000000000006</ele><time>2026-04-04T13:31:51Z</time></trkpt><trkpt lat="43.059504998084705" lon="11.275848028223177"><ele>477.00000000000006</ele><time>2026-04-04T13:31:52Z</time></trkpt><trkpt lat="43.059422242070816" lon="11.275868235258951"><ele>477.0</ele><time>2026-04-04T13:31:53Z</time></trkpt><trkpt lat="43.05932463812159" lon="11.275888432159366"><ele>477.0</ele><time>2026-04-04T13:31:54Z</time></trkpt><trkpt lat="43.059217363418846" lon="11.27591427909143"><ele>477.0</ele><time>2026-04-04T13:31:55Z</time></trkpt><trkpt lat="43.05912423256721" lon="11.275930033415452"><ele>477.0</ele><time>2026-04-04T13:31:56Z</time></trkpt><trkpt lat="43.05904384086358" lon="11.27594402643238"><ele>477.0</ele><time>2026-04-04T13:31:57Z</time></trkpt><trkpt lat="43.05897532884357" lon="11.275954761327881"><ele>477.0</ele><time>2026-04-04T13:31:58Z</time></trkpt><trkpt lat="43.058911828083616" lon="11.275972928835971"><ele>477.0</ele><time>2026-04-04T13:31:59Z</time></trkpt><trkpt lat="43.058836146602964" lon="11.275993546813387"><ele>477.0</ele><time>2026-04-04T13:32:00Z</time></trkpt><trkpt lat="43.05874475525339" lon="11.276006472803411"><ele>475.8</ele><time>2026-04-04T13:32:01Z</time></trkpt><trkpt lat="43.058633952781115" lon="11.2760256608767"><ele>474.6</ele><time>2026-04-04T13:32:02Z</time></trkpt><trkpt lat="43.05853072107615" lon="11.27604705569083"><ele>473.40000000000003</ele><time>2026-04-04T13:32:03Z</time></trkpt><trkpt lat="43.05842587883396" lon="11.276072856075574"><ele>472.20000000000005</ele><time>2026-04-04T13:32:04Z</time></trkpt><trkpt lat="43.05829986795389" lon="11.276090472870623"><ele>471.0</ele><time>2026-04-04T13:32:05Z</time></trkpt><trkpt lat="43.05818679199386" lon="11.276107605398021"><ele>470.8333333333333</ele><time>2026-04-04T13:32:06Z</time></trkpt><trkpt lat="43.05809526079901" lon="11.27612290469479"><ele>470.66666666666663</ele><time>2026-04-04T13:32:07Z</time></trkpt><trkpt lat="43.05800779759875" lon="11.27614473358654"><ele>470.5</ele><time>2026-04-04T13:32:08Z</time></trkpt><trkpt lat="43.05792906133392" lon="11.276176499543523"><ele>470.3333333333333</ele><time>2026-04-04T13:32:09Z</time></trkpt><trkpt lat="43.05786338231408" lon="11.276230488605966"><ele>470.16666666666663</ele><time>2026-04-04T13:32:10Z</time></trkpt><trkpt lat="43.05780170062135" lon="11.276310415799989"><ele>470.0</ele><time>2026-04-04T13:32:11Z</time></trkpt><trkpt lat="43.057757326271314" lon="11.276418255973551"><ele>469.6</ele><time>2026-04-04T13:32:12Z</time></trkpt><trkpt lat="43.057738567163405" lon="11.276537402283967"><ele>469.2</ele><time>2026-04-04T13:32:13Z</time></trkpt><trkpt lat="43.057745875555135" lon="11.27666209022374"><ele>468.79999999999995</ele><time>2026-04-04T13:32:14Z</time></trkpt><trkpt lat="43.05778194651011" lon="11.276797904199992"><ele>468.4</ele><time>2026-04-04T13:32:15Z</time></trkpt><trkpt lat="43.05785900076557" lon="11.276952470721456"><ele>468.0</ele><time>2026-04-04T13:32:16Z</time></trkpt><trkpt lat="43.057975183345945" lon="11.277122933157925"><ele>466.0</ele><time>2026-04-04T13:32:17Z</time></trkpt><trkpt lat="43.05808811509804" lon="11.277292701132895"><ele>464.0</ele><time>2026-04-04T13:32:18Z</time></trkpt><trkpt lat="43.05820736162124" lon="11.277483167732708"><ele>462.0</ele><time>2026-04-04T13:32:19Z</time></trkpt><trkpt lat="43.05831959561616" lon="11.277669623598511"><ele>462.0</ele><time>2026-04-04T13:32:20Z</time></trkpt><trkpt lat="43.05842388542112" lon="11.277834324997876"><ele>462.0</ele><time>2026-04-04T13:32:21Z</time></trkpt><trkpt lat="43.058507703762885" lon="11.277995008049315"><ele>462.0</ele><time>2026-04-04T13:32:22Z</time></trkpt><trkpt lat="43.05857505180418" lon="11.27815226307888"><ele>462.0</ele><time>2026-04-04T13:32:23Z</time></trkpt><trkpt lat="43.05864768469155" lon="11.278320124942528"><ele>460.25</ele><time>2026-04-04T13:32:24Z</time></trkpt><trkpt lat="43.05871349969658" lon="11.27846946072241"><ele>458.5</ele><time>2026-04-04T13:32:25Z</time></trkpt><trkpt lat="43.05877891748064" lon="11.278609897183138"><ele>456.75</ele><time>2026-04-04T13:32:26Z</time></trkpt><trkpt lat="43.058842607215475" lon="11.278754608632541"><ele>455.0</ele><time>2026-04-04T13:32:27Z</time></trkpt><trkpt lat="43.058904584262805" lon="11.278882332291998"><ele>454.6</ele><time>2026-04-04T13:32:28Z</time></trkpt><trkpt lat="43.05894224299979" lon="11.279011505255662"><ele>454.2</ele><time>2026-04-04T13:32:29Z</time></trkpt><trkpt lat="43.058991508289715" lon="11.27912518520991"><ele>453.79999999999995</ele><time>2026-04-04T13:32:30Z</time></trkpt><trkpt lat="43.05900628666687" lon="11.279242040384856"><ele>453.4</ele><time>2026-04-04T13:32:31Z</time></trkpt><trkpt lat="43.05899665224144" lon="11.279351834496826"><ele>453.0</ele><time>2026-04-04T13:32:32Z</time></trkpt><trkpt lat="43.058963019821974" lon="11.279483857970714"><ele>453.0</ele><time>2026-04-04T13:32:33Z</time></trkpt><trkpt lat="43.05887337435017" lon="11.27963319560505"><ele>453.0</ele><time>2026-04-04T13:32:34Z</time></trkpt><trkpt lat="43.0587501024475" lon="11.279768274514934"><ele>453.0</ele><time>2026-04-04T13:32:35Z</time></trkpt><trkpt lat="43.0586264109055" lon="11.279889957194648"><ele>454.33333333333337</ele><time>2026-04-04T13:32:36Z</time></trkpt><trkpt lat="43.058502123113975" lon="11.280019344229638"><ele>455.6666666666667</ele><time>2026-04-04T13:32:37Z</time></trkpt><trkpt lat="43.05836822266562" lon="11.280155911939444"><ele>457.0</ele><time>2026-04-04T13:32:38Z</time></trkpt><trkpt lat="43.0582430639011" lon="11.280291378634516"><ele>457.0</ele><time>2026-04-04T13:32:39Z</time></trkpt><trkpt lat="43.058108318405615" lon="11.280443762439031"><ele>457.0</ele><time>2026-04-04T13:32:40Z</time></trkpt><trkpt lat="43.05797053896122" lon="11.28059057117399"><ele>457.0</ele><time>2026-04-04T13:32:41Z</time></trkpt><trkpt lat="43.057842869405725" lon="11.280717688894166"><ele>458.6</ele><time>2026-04-04T13:32:42Z</time></trkpt><trkpt lat="43.0577420951948" lon="11.280798501956648"><ele>460.20000000000005</ele><time>2026-04-04T13:32:43Z</time></trkpt><trkpt lat="43.05765036869665" lon="11.280881118137684"><ele>461.8</ele><time>2026-04-04T13:32:44Z</time></trkpt><trkpt lat="43.05757857424811" lon="11.280950363869598"><ele>463.4</ele><time>2026-04-04T13:32:45Z</time></trkpt><trkpt lat="43.0575146700045" lon="11.281021682324837"><ele>465.0</ele><time>2026-04-04T13:32:46Z</time></trkpt><trkpt lat="43.057459606245466" lon="11.281125471477147"><ele>465.5</ele><time>2026-04-04T13:32:47Z</time></trkpt><trkpt lat="43.05740717949346" lon="11.281266265395766"><ele>466.0</ele><time>2026-04-04T13:32:48Z</time></trkpt><trkpt lat="43.05737042701068" lon="11.281442800976764"><ele>466.5</ele><time>2026-04-04T13:32:49Z</time></trkpt><trkpt lat="43.0573375718648" lon="11.281650659329424"><ele>467.0</ele><time>2026-04-04T13:32:50Z</time></trkpt><trkpt lat="43.057309296882444" lon="11.28184176322704"><ele>467.0</ele><time>2026-04-04T13:32:51Z</time></trkpt><trkpt lat="43.05727984542595" lon="11.282022876068094"><ele>467.0</ele><time>2026-04-04T13:32:52Z</time></trkpt><trkpt lat="43.05726127951197" lon="11.282197641355648"><ele>467.0</ele><time>2026-04-04T13:32:53Z</time></trkpt><trkpt lat="43.057263226810406" lon="11.28237087876086"><ele>467.0</ele><time>2026-04-04T13:32:54Z</time></trkpt><trkpt lat="43.05727414625699" lon="11.282565593884458"><ele>466.0</ele><time>2026-04-04T13:32:55Z</time></trkpt><trkpt lat="43.057287413010656" lon="11.282756754128442"><ele>465.0</ele><time>2026-04-04T13:32:56Z</time></trkpt><trkpt lat="43.05729964956388" lon="11.282941496415791"><ele>464.0</ele><time>2026-04-04T13:32:57Z</time></trkpt><trkpt lat="43.05732651525646" lon="11.283114385399612"><ele>463.0</ele><time>2026-04-04T13:32:58Z</time></trkpt><trkpt lat="43.057358109123534" lon="11.283296825893892"><ele>464.0</ele><time>2026-04-04T13:32:59Z</time></trkpt><trkpt lat="43.057395351110465" lon="11.28345781149274"><ele>465.0</ele><time>2026-04-04T13:33:00Z</time></trkpt><trkpt lat="43.057445161085845" lon="11.283642292403922"><ele>466.0</ele><time>2026-04-04T13:33:01Z</time></trkpt><trkpt lat="43.057498745150255" lon="11.283819640899269"><ele>467.0</ele><time>2026-04-04T13:33:02Z</time></trkpt><trkpt lat="43.057548232298444" lon="11.283991544702314"><ele>467.0</ele><time>2026-04-04T13:33:03Z</time></trkpt><trkpt lat="43.057595725081995" lon="11.284152200838085"><ele>467.0</ele><time>2026-04-04T13:33:04Z</time></trkpt><trkpt lat="43.05764785478878" lon="11.284305763940601"><ele>467.0</ele><time>2026-04-04T13:33:05Z</time></trkpt><trkpt lat="43.05770334078772" lon="11.284455725850485"><ele>467.0</ele><time>2026-04-04T13:33:06Z</time></trkpt><trkpt lat="43.057764647112194" lon="11.284608391748957"><ele>464.75</ele><time>2026-04-04T13:33:07Z</time></trkpt><trkpt lat="43.05783497955006" lon="11.28476707681049"><ele>462.5</ele><time>2026-04-04T13:33:08Z</time></trkpt><trkpt lat="43.05790751092473" lon="11.284908125912704"><ele>460.25</ele><time>2026-04-04T13:33:09Z</time></trkpt><trkpt lat="43.05796905540808" lon="11.285069995962441"><ele>458.0</ele><time>2026-04-04T13:33:10Z</time></trkpt><trkpt lat="43.058017819018595" lon="11.285219460648577"><ele>458.0</ele><time>2026-04-04T13:33:11Z</time></trkpt><trkpt lat="43.05806303410776" lon="11.285348426172058"><ele>458.0</ele><time>2026-04-04T13:33:12Z</time></trkpt><trkpt lat="43.05811880210732" lon="11.285465378156589"><ele>458.0</ele><time>2026-04-04T13:33:13Z</time></trkpt><trkpt lat="43.058196848613164" lon="11.285578562961062"><ele>458.0</ele><time>2026-04-04T13:33:14Z</time></trkpt><trkpt lat="43.05830294085324" lon="11.28569177104134"><ele>461.0</ele><time>2026-04-04T13:33:15Z</time></trkpt><trkpt lat="43.05842775964398" lon="11.285800696853496"><ele>464.0</ele><time>2026-04-04T13:33:16Z</time></trkpt><trkpt lat="43.05852706881174" lon="11.285906420682137"><ele>467.0</ele><time>2026-04-04T13:33:17Z</time></trkpt><trkpt lat="43.05861534567412" lon="11.286004582237853"><ele>470.0</ele><time>2026-04-04T13:33:18Z</time></trkpt><trkpt lat="43.058696613771" lon="11.28610157966336"><ele>470.0</ele><time>2026-04-04T13:33:19Z</time></trkpt><trkpt lat="43.0587798325618" lon="11.286208422751324"><ele>470.0</ele><time>2026-04-04T13:33:20Z</time></trkpt><trkpt lat="43.05885942806206" lon="11.286321683143445"><ele>470.0</ele><time>2026-04-04T13:33:21Z</time></trkpt><trkpt lat="43.05892678834698" lon="11.286439156154332"><ele>470.0</ele><time>2026-04-04T13:33:22Z</time></trkpt><trkpt lat="43.058972770095224" lon="11.286555164816253"><ele>470.0</ele><time>2026-04-04T13:33:23Z</time></trkpt><trkpt lat="43.05901311647237" lon="11.286687049699577"><ele>467.0</ele><time>2026-04-04T13:33:24Z</time></trkpt><trkpt lat="43.05902656133803" lon="11.286815986651728"><ele>464.0</ele><time>2026-04-04T13:33:25Z</time></trkpt><trkpt lat="43.059016386552834" lon="11.286940799500607"><ele>461.0</ele><time>2026-04-04T13:33:26Z</time></trkpt><trkpt lat="43.05898220138115" lon="11.287080473738788"><ele>458.0</ele><time>2026-04-04T13:33:27Z</time></trkpt><trkpt lat="43.05892953805593" lon="11.287220494114404"><ele>455.0</ele><time>2026-04-04T13:33:28Z</time></trkpt><trkpt lat="43.05882287587207" lon="11.287341739748847"><ele>454.66666666666663</ele><time>2026-04-04T13:33:29Z</time></trkpt><trkpt lat="43.05871536982139" lon="11.287500205002189"><ele>454.33333333333337</ele><time>2026-04-04T13:33:30Z</time></trkpt><trkpt lat="43.05859802073122" lon="11.287636644094219"><ele>454.0</ele><time>2026-04-04T13:33:31Z</time></trkpt><trkpt lat="43.05849929043337" lon="11.287784379061593"><ele>454.0</ele><time>2026-04-04T13:33:32Z</time></trkpt><trkpt lat="43.05842678570576" lon="11.287888182140629"><ele>454.0</ele><time>2026-04-04T13:33:33Z</time></trkpt><trkpt lat="43.05834768485528" lon="11.28797306189121"><ele>454.0</ele><time>2026-04-04T13:33:34Z</time></trkpt><trkpt lat="43.05826098999704" lon="11.288036795427141"><ele>454.0</ele><time>2026-04-04T13:33:35Z</time></trkpt><trkpt lat="43.05815961169355" lon="11.288075595413034"><ele>454.0</ele><time>2026-04-04T13:33:36Z</time></trkpt><trkpt lat="43.058075738541724" lon="11.288041192206439"><ele>454.00000000000006</ele><time>2026-04-04T13:33:37Z</time></trkpt><trkpt lat="43.05798189432055" lon="11.288046001176983"><ele>454.0</ele><time>2026-04-04T13:33:38Z</time></trkpt><trkpt lat="43.057897799714254" lon="11.288078953160365"><ele>454.0</ele><time>2026-04-04T13:33:39Z</time></trkpt><trkpt lat="43.057829993552865" lon="11.288085187060474"><ele>454.0</ele><time>2026-04-04T13:33:40Z</time></trkpt><trkpt lat="43.05777142154672" lon="11.28816552501186"><ele>454.00000000000006</ele><time>2026-04-04T13:33:41Z</time></trkpt><trkpt lat="43.05769606016461" lon="11.28821799836883"><ele>454.0</ele><time>2026-04-04T13:33:42Z</time></trkpt><trkpt lat="43.0576318445297" lon="11.28828749799658"><ele>454.00000000000006</ele><time>2026-04-04T13:33:43Z</time></trkpt><trkpt lat="43.05757571353059" lon="11.288345786293764"><ele>454.0</ele><time>2026-04-04T13:33:44Z</time></trkpt><trkpt lat="43.057523004253184" lon="11.288406166952718"><ele>454.0</ele><time>2026-04-04T13:33:45Z</time></trkpt><trkpt lat="43.05746610607253" lon="11.288484153747"><ele>454.0</ele><time>2026-04-04T13:33:48Z</time></trkpt><trkpt lat="43.057446160996335" lon="11.288617419313173"><ele>454.00000000000006</ele><time>2026-04-04T13:34:20Z</time></trkpt><trkpt lat="43.05743661779868" lon="11.288741325144366"><ele>454.0</ele><time>2026-04-04T13:34:22Z</time></trkpt><trkpt lat="43.05742736196634" lon="11.28889950346197"><ele>453.00000000000006</ele><time>2026-04-04T13:34:24Z</time></trkpt><trkpt lat="43.05740918286675" lon="11.289066729041897"><ele>452.0</ele><time>2026-04-04T13:34:26Z</time></trkpt><trkpt lat="43.057401464850386" lon="11.289173789390917"><ele>451.0</ele><time>2026-04-04T13:34:27Z</time></trkpt><trkpt lat="43.057391440218964" lon="11.289279397904089"><ele>450.0</ele><time>2026-04-04T13:34:28Z</time></trkpt><trkpt lat="43.057380180094334" lon="11.289384626872028"><ele>449.00000000000006</ele><time>2026-04-04T13:34:29Z</time></trkpt><trkpt lat="43.057359416692144" lon="11.289491189200067"><ele>448.0</ele><time>2026-04-04T13:34:30Z</time></trkpt><trkpt lat="43.05734226056551" lon="11.289600096671485"><ele>448.00000000000006</ele><time>2026-04-04T13:34:31Z</time></trkpt><trkpt lat="43.05730253306132" lon="11.289708510813604"><ele>448.0</ele><time>2026-04-04T13:34:32Z</time></trkpt><trkpt lat="43.05728335673105" lon="11.289810024863813"><ele>448.0</ele><time>2026-04-04T13:34:33Z</time></trkpt><trkpt lat="43.05724619844257" lon="11.28990490251252"><ele>448.0</ele><time>2026-04-04T13:34:34Z</time></trkpt><trkpt lat="43.057206145228044" lon="11.28999269936303"><ele>448.00000000000006</ele><time>2026-04-04T13:34:35Z</time></trkpt><trkpt lat="43.057161260458" lon="11.290067335130804"><ele>448.0</ele><time>2026-04-04T13:34:36Z</time></trkpt><trkpt lat="43.057096859068324" lon="11.29012632270766"><ele>449.1666666666667</ele><time>2026-04-04T13:34:37Z</time></trkpt><trkpt lat="43.05702634900789" lon="11.290199788951782"><ele>450.33333333333337</ele><time>2026-04-04T13:34:38Z</time></trkpt><trkpt lat="43.05695622487981" lon="11.290262040544482"><ele>451.5</ele><time>2026-04-04T13:34:39Z</time></trkpt><trkpt lat="43.05689704288003" lon="11.290326958629825"><ele>452.66666666666663</ele><time>2026-04-04T13:34:40Z</time></trkpt><trkpt lat="43.05684223300575" lon="11.29041044079111"><ele>453.8333333333333</ele><time>2026-04-04T13:34:41Z</time></trkpt><trkpt lat="43.056797730862634" lon="11.290498463771998"><ele>455.0</ele><time>2026-04-04T13:34:42Z</time></trkpt><trkpt lat="43.05675085287856" lon="11.290593135968285"><ele>454.99999999999994</ele><time>2026-04-04T13:34:43Z</time></trkpt><trkpt lat="43.05670874342241" lon="11.29069709646273"><ele>455.0</ele><time>2026-04-04T13:34:44Z</time></trkpt><trkpt lat="43.056670218712355" lon="11.290810606719594"><ele>455.0</ele><time>2026-04-04T13:34:45Z</time></trkpt><trkpt lat="43.05663598146422" lon="11.290929559069856"><ele>455.0</ele><time>2026-04-04T13:34:46Z</time></trkpt><trkpt lat="43.05660662520133" lon="11.291021363190135"><ele>454.99999999999994</ele><time>2026-04-04T13:34:47Z</time></trkpt><trkpt lat="43.05657539974285" lon="11.291101857018058"><ele>455.0</ele><time>2026-04-04T13:34:48Z</time></trkpt><trkpt lat="43.05652874557871" lon="11.291228049482514"><ele>455.0</ele><time>2026-04-04T13:34:50Z</time></trkpt><trkpt lat="43.05649186010213" lon="11.291311797360647"><ele>455.0</ele><time>2026-04-04T13:34:52Z</time></trkpt><trkpt lat="43.05646078504224" lon="11.291397385901677"><ele>455.0</ele><time>2026-04-04T13:35:45.001Z</time></trkpt><trkpt lat="43.05637711051719" lon="11.29134459813919"><ele>455.0</ele><time>2026-04-04T13:35:46.001Z</time></trkpt><trkpt lat="43.05626862642135" lon="11.29131558455886"><ele>455.0</ele><time>2026-04-04T13:35:48.001Z</time></trkpt><trkpt lat="43.05616107762538" lon="11.29126406120286"><ele>454.99999999999994</ele><time>2026-04-04T13:35:50.001Z</time></trkpt><trkpt lat="43.05604245878294" lon="11.291206703211412"><ele>455.0</ele><time>2026-04-04T13:35:52.001Z</time></trkpt><trkpt lat="43.05597221833672" lon="11.291175099578757"><ele>455.0</ele><time>2026-04-04T13:35:53.001Z</time></trkpt><trkpt lat="43.05590488376622" lon="11.291138261509502"><ele>455.0</ele><time>2026-04-04T13:35:54.001Z</time></trkpt><trkpt lat="43.05585018671361" lon="11.291077346577314"><ele>454.99999999999994</ele><time>2026-04-04T13:35:55.001Z</time></trkpt><trkpt lat="43.055771200429085" lon="11.291048143674761"><ele>455.0</ele><time>2026-04-04T13:35:56.001Z</time></trkpt><trkpt lat="43.05569225385498" lon="11.291022471852946"><ele>453.99999999999994</ele><time>2026-04-04T13:35:57.001Z</time></trkpt><trkpt lat="43.05561862342362" lon="11.291029191323016"><ele>453.0</ele><time>2026-04-04T13:35:58.001Z</time></trkpt><trkpt lat="43.05553219600065" lon="11.291043444662279"><ele>452.0</ele><time>2026-04-04T13:35:59.001Z</time></trkpt><trkpt lat="43.055453286157736" lon="11.291050319329264"><ele>451.0</ele><time>2026-04-04T13:36:00.001Z</time></trkpt><trkpt lat="43.05537284989608" lon="11.291049819727126"><ele>449.99999999999994</ele><time>2026-04-04T13:36:01.001Z</time></trkpt><trkpt lat="43.0552914632019" lon="11.291047949287112"><ele>449.0</ele><time>2026-04-04T13:36:02.001Z</time></trkpt><trkpt lat="43.05520726146533" lon="11.291035737504167"><ele>448.99999999999994</ele><time>2026-04-04T13:36:03.001Z</time></trkpt><trkpt lat="43.05512701537443" lon="11.291018899629576"><ele>449.0</ele><time>2026-04-04T13:36:04.001Z</time></trkpt><trkpt lat="43.05504953692315" lon="11.291002049379832"><ele>449.0</ele><time>2026-04-04T13:36:05.001Z</time></trkpt><trkpt lat="43.05497840309613" lon="11.290984713305264"><ele>449.0</ele><time>2026-04-04T13:36:06.001Z</time></trkpt><trkpt lat="43.05490256479376" lon="11.290969724981196"><ele>448.99999999999994</ele><time>2026-04-04T13:36:07.001Z</time></trkpt><trkpt lat="43.054832685352835" lon="11.290952342634181"><ele>449.0</ele><time>2026-04-04T13:36:08.001Z</time></trkpt><trkpt lat="43.05476327390027" lon="11.290930724518454"><ele>449.16666666666663</ele><time>2026-04-04T13:36:09.001Z</time></trkpt><trkpt lat="43.05469215795515" lon="11.290911280670755"><ele>449.3333333333333</ele><time>2026-04-04T13:36:10.001Z</time></trkpt><trkpt lat="43.05456848098555" lon="11.290895272178462"><ele>449.5</ele><time>2026-04-04T13:36:12.001Z</time></trkpt><trkpt lat="43.054493248135216" lon="11.2908877280383"><ele>449.66666666666663</ele><time>2026-04-04T13:36:13.001Z</time></trkpt><trkpt lat="43.05442367189288" lon="11.290874497212288"><ele>449.8333333333333</ele><time>2026-04-04T13:36:14.001Z</time></trkpt><trkpt lat="43.054353403140986" lon="11.290867992196857"><ele>450.0</ele><time>2026-04-04T13:36:15.001Z</time></trkpt><trkpt lat="43.05428778332812" lon="11.290877248079356"><ele>450.0</ele><time>2026-04-04T13:36:16.001Z</time></trkpt><trkpt lat="43.054214978446225" lon="11.290870800872744"><ele>450.0</ele><time>2026-04-04T13:36:17.001Z</time></trkpt><trkpt lat="43.05414826735659" lon="11.290862615812504"><ele>450.0</ele><time>2026-04-04T13:36:18.001Z</time></trkpt><trkpt lat="43.05407826250878" lon="11.290857838757292"><ele>450.0</ele><time>2026-04-04T13:36:19.001Z</time></trkpt><trkpt lat="43.05397075682379" lon="11.29090687071928"><ele>450.0</ele><time>2026-04-04T13:36:21.001Z</time></trkpt><trkpt lat="43.05390488816473" lon="11.291044982605756"><ele>450.0</ele><time>2026-04-04T13:36:23.001Z</time></trkpt><trkpt lat="43.05387289521139" lon="11.2911278711389"><ele>450.7142857142858</ele><time>2026-04-04T13:36:24.001Z</time></trkpt><trkpt lat="43.05383260980064" lon="11.291200712088338"><ele>451.42857142857144</ele><time>2026-04-04T13:36:25.001Z</time></trkpt><trkpt lat="43.053790664803685" lon="11.291279688574791"><ele>452.14285714285717</ele><time>2026-04-04T13:36:26.001Z</time></trkpt><trkpt lat="43.053747178006724" lon="11.291351420024847"><ele>452.8571428571429</ele><time>2026-04-04T13:36:27.001Z</time></trkpt><trkpt lat="43.05370121744514" lon="11.291417344570602"><ele>453.57142857142856</ele><time>2026-04-04T13:36:28.001Z</time></trkpt><trkpt lat="43.053645967917525" lon="11.291465771107609"><ele>454.2857142857143</ele><time>2026-04-04T13:36:29.001Z</time></trkpt><trkpt lat="43.05357665874717" lon="11.291502559775864"><ele>455.0</ele><time>2026-04-04T13:36:30.001Z</time></trkpt><trkpt lat="43.05350832465715" lon="11.291524131617685"><ele>453.3333333333333</ele><time>2026-04-04T13:36:31.001Z</time></trkpt><trkpt lat="43.05343598833678" lon="11.291537631812696"><ele>451.66666666666663</ele><time>2026-04-04T13:36:32.001Z</time></trkpt><trkpt lat="43.053367969700325" lon="11.291543255479102"><ele>450.0</ele><time>2026-04-04T13:36:33.001Z</time></trkpt><trkpt lat="43.05329034035131" lon="11.291554438314812"><ele>448.33333333333337</ele><time>2026-04-04T13:36:34.001Z</time></trkpt><trkpt lat="43.05321259474666" lon="11.291571172889192"><ele>446.6666666666667</ele><time>2026-04-04T13:36:35.001Z</time></trkpt><trkpt lat="43.05312724760527" lon="11.291590249204807"><ele>445.0</ele><time>2026-04-04T13:36:36.001Z</time></trkpt><trkpt lat="43.053044062323046" lon="11.29161688111086"><ele>444.00000000000006</ele><time>2026-04-04T13:36:37.001Z</time></trkpt><trkpt lat="43.05297579806882" lon="11.29164812491362"><ele>443.0</ele><time>2026-04-04T13:36:38.001Z</time></trkpt><trkpt lat="43.05290050032" lon="11.291685214065113"><ele>442.0</ele><time>2026-04-04T13:36:39.001Z</time></trkpt><trkpt lat="43.05282437883501" lon="11.291714215768753"><ele>441.0</ele><time>2026-04-04T13:36:40.001Z</time></trkpt><trkpt lat="43.052750651153" lon="11.29172358200776"><ele>440.00000000000006</ele><time>2026-04-04T13:36:41.001Z</time></trkpt><trkpt lat="43.052667353195105" lon="11.29172574084322"><ele>439.0</ele><time>2026-04-04T13:36:42.001Z</time></trkpt><trkpt lat="43.052579571637864" lon="11.291722722872253"><ele>439.0</ele><time>2026-04-04T13:36:43.001Z</time></trkpt><trkpt lat="43.052486910042454" lon="11.291709059032279"><ele>439.0</ele><time>2026-04-04T13:36:44.001Z</time></trkpt><trkpt lat="43.052398121524924" lon="11.291692172576804"><ele>439.0</ele><time>2026-04-04T13:36:45.001Z</time></trkpt><trkpt lat="43.052309735927714" lon="11.29168247239069"><ele>439.0</ele><time>2026-04-04T13:36:46.001Z</time></trkpt><trkpt lat="43.05221809600379" lon="11.291671739408386"><ele>439.0</ele><time>2026-04-04T13:36:47.001Z</time></trkpt><trkpt lat="43.0521264385135" lon="11.291656138211772"><ele>436.79999999999995</ele><time>2026-04-04T13:36:48.001Z</time></trkpt><trkpt lat="43.05203264387707" lon="11.291630128066052"><ele>434.59999999999997</ele><time>2026-04-04T13:36:49.001Z</time></trkpt><trkpt lat="43.051938794456234" lon="11.291601655763222"><ele>432.4</ele><time>2026-04-04T13:36:50.001Z</time></trkpt><trkpt lat="43.05185835452017" lon="11.291581017802939"><ele>430.2</ele><time>2026-04-04T13:36:51.001Z</time></trkpt><trkpt lat="43.05177258271573" lon="11.291555800044874"><ele>428.0</ele><time>2026-04-04T13:36:52.001Z</time></trkpt><trkpt lat="43.05168031129554" lon="11.291512823742181"><ele>425.79999999999995</ele><time>2026-04-04T13:36:53.001Z</time></trkpt><trkpt lat="43.05160299599672" lon="11.291459215471475"><ele>423.59999999999997</ele><time>2026-04-04T13:36:54.001Z</time></trkpt><trkpt lat="43.0515267046533" lon="11.291376907871145"><ele>421.4</ele><time>2026-04-04T13:36:55.001Z</time></trkpt><trkpt lat="43.05145855831368" lon="11.291298273182756"><ele>419.20000000000005</ele><time>2026-04-04T13:36:56.001Z</time></trkpt><trkpt lat="43.05138716453863" lon="11.291225798003978"><ele>417.0</ele><time>2026-04-04T13:36:57.001Z</time></trkpt><trkpt lat="43.05130505145267" lon="11.291158466571883"><ele>417.0</ele><time>2026-04-04T13:36:58.001Z</time></trkpt><trkpt lat="43.051228477254" lon="11.29110732335123"><ele>417.0</ele><time>2026-04-04T13:36:59.001Z</time></trkpt><trkpt lat="43.05114628411141" lon="11.291074478816665"><ele>417.0</ele><time>2026-04-04T13:37:00.001Z</time></trkpt><trkpt lat="43.051062905706154" lon="11.291075599468087"><ele>417.0</ele><time>2026-04-04T13:37:01Z</time></trkpt><trkpt lat="43.05098642795181" lon="11.291108301191771"><ele>417.0</ele><time>2026-04-04T13:37:02Z</time></trkpt><trkpt lat="43.050926500852846" lon="11.291192127873614"><ele>417.0</ele><time>2026-04-04T13:37:03Z</time></trkpt><trkpt lat="43.05089385023822" lon="11.291295474448226"><ele>417.0</ele><time>2026-04-04T13:37:04Z</time></trkpt><trkpt lat="43.0509034037935" lon="11.291406547798559"><ele>417.0</ele><time>2026-04-04T13:37:05Z</time></trkpt><trkpt lat="43.050933767266436" lon="11.291517230802214"><ele>417.0</ele><time>2026-04-04T13:37:06Z</time></trkpt><trkpt lat="43.05098560079373" lon="11.291620034210942"><ele>417.0</ele><time>2026-04-04T13:37:07Z</time></trkpt><trkpt lat="43.051030583682866" lon="11.291722023505818"><ele>417.0</ele><time>2026-04-04T13:37:08Z</time></trkpt><trkpt lat="43.05107475274965" lon="11.29182114881774"><ele>417.0</ele><time>2026-04-04T13:37:09Z</time></trkpt><trkpt lat="43.05112125852254" lon="11.291891028448589"><ele>416.8333333333333</ele><time>2026-04-04T13:37:10Z</time></trkpt><trkpt lat="43.051176087010596" lon="11.291954395030254"><ele>416.66666666666663</ele><time>2026-04-04T13:37:11Z</time></trkpt><trkpt lat="43.05123229305122" lon="11.292010986068972"><ele>416.5</ele><time>2026-04-04T13:37:12Z</time></trkpt><trkpt lat="43.05129919368844" lon="11.292064129756525"><ele>416.3333333333333</ele><time>2026-04-04T13:37:13Z</time></trkpt><trkpt lat="43.05137131216595" lon="11.292114732317742"><ele>416.16666666666663</ele><time>2026-04-04T13:37:14Z</time></trkpt><trkpt lat="43.05144280111227" lon="11.292152253169277"><ele>416.0</ele><time>2026-04-04T13:37:15Z</time></trkpt><trkpt lat="43.05152304299877" lon="11.292200845312072"><ele>416.0</ele><time>2026-04-04T13:37:16Z</time></trkpt><trkpt lat="43.05160680468149" lon="11.292244109050992"><ele>416.0</ele><time>2026-04-04T13:37:17Z</time></trkpt><trkpt lat="43.0516902752751" lon="11.292284695905108"><ele>416.0</ele><time>2026-04-04T13:37:18Z</time></trkpt><trkpt lat="43.05177515582225" lon="11.292332770171189"><ele>416.0</ele><time>2026-04-04T13:37:19Z</time></trkpt><trkpt lat="43.051857957920845" lon="11.292375312613984"><ele>416.0</ele><time>2026-04-04T13:37:20Z</time></trkpt><trkpt lat="43.05194702022911" lon="11.292421096914756"><ele>415.4</ele><time>2026-04-04T13:37:21Z</time></trkpt><trkpt lat="43.05202877567985" lon="11.29246755696186"><ele>414.8</ele><time>2026-04-04T13:37:22Z</time></trkpt><trkpt lat="43.05211792551699" lon="11.292516953464355"><ele>414.2</ele><time>2026-04-04T13:37:23Z</time></trkpt><trkpt lat="43.05220260443007" lon="11.292567455398906"><ele>413.59999999999997</ele><time>2026-04-04T13:37:24Z</time></trkpt><trkpt lat="43.052285512318136" lon="11.292622903984265"><ele>413.0</ele><time>2026-04-04T13:37:25Z</time></trkpt><trkpt lat="43.05236363743095" lon="11.292674952695267"><ele>413.0</ele><time>2026-04-04T13:37:26Z</time></trkpt><trkpt lat="43.05243420911055" lon="11.292725601155302"><ele>413.0</ele><time>2026-04-04T13:37:27Z</time></trkpt><trkpt lat="43.05249993949336" lon="11.292774555901069"><ele>413.0</ele><time>2026-04-04T13:37:28Z</time></trkpt><trkpt lat="43.052562422462096" lon="11.292821383654216"><ele>413.0</ele><time>2026-04-04T13:37:29Z</time></trkpt><trkpt lat="43.05263092212376" lon="11.292852165791217"><ele>413.0</ele><time>2026-04-04T13:37:30Z</time></trkpt><trkpt lat="43.05270745273775" lon="11.292857822830156"><ele>413.0</ele><time>2026-04-04T13:37:31Z</time></trkpt><trkpt lat="43.05276888957255" lon="11.292893951203544"><ele>413.0</ele><time>2026-04-04T13:37:32Z</time></trkpt><trkpt lat="43.052807531367385" lon="11.29299753835367"><ele>412.99999999999994</ele><time>2026-04-04T13:37:34Z</time></trkpt><trkpt lat="43.05277793450837" lon="11.293077546641502"><ele>413.0</ele><time>2026-04-04T13:37:35Z</time></trkpt><trkpt lat="43.052682169120594" lon="11.293061038463197"><ele>413.0</ele><time>2026-04-04T13:37:36Z</time></trkpt><trkpt lat="43.052628582319876" lon="11.292997686087395"><ele>413.0</ele><time>2026-04-04T13:37:37Z</time></trkpt><trkpt lat="43.052515627042936" lon="11.292969987808059"><ele>412.99999999999994</ele><time>2026-04-04T13:37:39Z</time></trkpt><trkpt lat="43.05245003658487" lon="11.292945426739568"><ele>413.0</ele><time>2026-04-04T13:37:40Z</time></trkpt><trkpt lat="43.05238132989577" lon="11.29292038100575"><ele>413.0</ele><time>2026-04-04T13:37:41Z</time></trkpt><trkpt lat="43.052264775576575" lon="11.292898682619487"><ele>413.0</ele><time>2026-04-04T13:37:43Z</time></trkpt><trkpt lat="43.05219834019382" lon="11.292879577016992"><ele>413.0</ele><time>2026-04-04T13:37:44Z</time></trkpt><trkpt lat="43.05206727293905" lon="11.292858970489027"><ele>413.0</ele><time>2026-04-04T13:37:46Z</time></trkpt><trkpt lat="43.05199285989279" lon="11.292869778183162"><ele>413.0</ele><time>2026-04-04T13:37:47Z</time></trkpt><trkpt lat="43.051908523479945" lon="11.292875161705831"><ele>413.0</ele><time>2026-04-04T13:37:48Z</time></trkpt><trkpt lat="43.051824204331446" lon="11.292882817354194"><ele>413.0</ele><time>2026-04-04T13:37:49Z</time></trkpt><trkpt lat="43.051736349158524" lon="11.292901547389139"><ele>413.0</ele><time>2026-04-04T13:37:50Z</time></trkpt><trkpt lat="43.05164884537133" lon="11.292934381045242"><ele>413.0</ele><time>2026-04-04T13:37:51Z</time></trkpt><trkpt lat="43.05156384207654" lon="11.292991868482225"><ele>413.0</ele><time>2026-04-04T13:37:52Z</time></trkpt><trkpt lat="43.05147782537262" lon="11.29306312230702"><ele>408.0</ele><time>2026-04-04T13:37:53Z</time></trkpt><trkpt lat="43.05138650699216" lon="11.293126462389704"><ele>403.0</ele><time>2026-04-04T13:37:54Z</time></trkpt><trkpt lat="43.051287339103204" lon="11.293187144242918"><ele>398.0</ele><time>2026-04-04T13:37:55Z</time></trkpt><trkpt lat="43.05118189857456" lon="11.293239953083422"><ele>393.0</ele><time>2026-04-04T13:37:56Z</time></trkpt><trkpt lat="43.051071370737496" lon="11.293271810681746"><ele>388.0</ele><time>2026-04-04T13:37:57Z</time></trkpt><trkpt lat="43.050959959138495" lon="11.293278848347564"><ele>388.0</ele><time>2026-04-04T13:37:58Z</time></trkpt><trkpt lat="43.0508466829969" lon="11.29328588215544"><ele>388.0</ele><time>2026-04-04T13:37:59Z</time></trkpt><trkpt lat="43.05074716070992" lon="11.293292105244722"><ele>388.0</ele><time>2026-04-04T13:38:00Z</time></trkpt><trkpt lat="43.05065744585756" lon="11.293270840217316"><ele>388.0</ele><time>2026-04-04T13:38:01Z</time></trkpt><trkpt lat="43.05057240930151" lon="11.293242240430217"><ele>388.0</ele><time>2026-04-04T13:38:02Z</time></trkpt><trkpt lat="43.05048066068908" lon="11.293218239679613"><ele>388.59999999999997</ele><time>2026-04-04T13:38:03Z</time></trkpt><trkpt lat="43.05039519352947" lon="11.293213828715087"><ele>389.2</ele><time>2026-04-04T13:38:04Z</time></trkpt><trkpt lat="43.05029974599963" lon="11.293236769354552"><ele>389.8</ele><time>2026-04-04T13:38:05Z</time></trkpt><trkpt lat="43.050219932852194" lon="11.293304875515089"><ele>390.4</ele><time>2026-04-04T13:38:06Z</time></trkpt><trkpt lat="43.050157539246094" lon="11.293413993002847"><ele>391.0</ele><time>2026-04-04T13:38:07Z</time></trkpt><trkpt lat="43.05014407897597" lon="11.293553528981558"><ele>391.0</ele><time>2026-04-04T13:38:08Z</time></trkpt><trkpt lat="43.05014886050246" lon="11.293700623060035"><ele>391.0</ele><time>2026-04-04T13:38:09Z</time></trkpt><trkpt lat="43.05015061549147" lon="11.293832190507533"><ele>391.0</ele><time>2026-04-04T13:38:10Z</time></trkpt><trkpt lat="43.050129479444045" lon="11.29396092990668"><ele>391.0</ele><time>2026-04-04T13:38:11Z</time></trkpt><trkpt lat="43.05006994393066" lon="11.294069243996438"><ele>391.0</ele><time>2026-04-04T13:38:12Z</time></trkpt><trkpt lat="43.05003921544607" lon="11.294173113120808"><ele>389.6666666666667</ele><time>2026-04-04T13:38:13Z</time></trkpt><trkpt lat="43.04999367898041" lon="11.294266711644607"><ele>388.33333333333337</ele><time>2026-04-04T13:38:14Z</time></trkpt><trkpt lat="43.04995968044692" lon="11.294346317691277"><ele>387.0</ele><time>2026-04-04T13:38:15Z</time></trkpt><trkpt lat="43.0499107484206" lon="11.294476308636263"><ele>385.6666666666667</ele><time>2026-04-04T13:38:17Z</time></trkpt><trkpt lat="43.04989847833688" lon="11.294574092808785"><ele>384.33333333333337</ele><time>2026-04-04T13:38:19Z</time></trkpt><trkpt lat="43.04989092217263" lon="11.294662880155053"><ele>383.0</ele><time>2026-04-04T13:38:21Z</time></trkpt><trkpt lat="43.04978686680716" lon="11.294688238233764"><ele>383.0</ele><time>2026-04-04T13:38:22Z</time></trkpt><trkpt lat="43.04966798327569" lon="11.294749659924076"><ele>383.0</ele><time>2026-04-04T13:38:24Z</time></trkpt><trkpt lat="43.049603108177436" lon="11.294779332825875"><ele>383.0</ele><time>2026-04-04T13:38:25Z</time></trkpt><trkpt lat="43.0495317681081" lon="11.29480787563187"><ele>383.0</ele><time>2026-04-04T13:38:26Z</time></trkpt><trkpt lat="43.049462254364485" lon="11.29483300707822"><ele>383.0</ele><time>2026-04-04T13:38:27Z</time></trkpt><trkpt lat="43.04938348238782" lon="11.294857970443148"><ele>383.0</ele><time>2026-04-04T13:38:28Z</time></trkpt><trkpt lat="43.04930748698343" lon="11.294880742430085"><ele>381.2</ele><time>2026-04-04T13:38:29Z</time></trkpt><trkpt lat="43.04922794779695" lon="11.294907895876547"><ele>379.4</ele><time>2026-04-04T13:38:30Z</time></trkpt><trkpt lat="43.04914395853093" lon="11.294948693451383"><ele>377.59999999999997</ele><time>2026-04-04T13:38:31Z</time></trkpt><trkpt lat="43.04905973141059" lon="11.294996119671124"><ele>375.79999999999995</ele><time>2026-04-04T13:38:32Z</time></trkpt><trkpt lat="43.04897396178096" lon="11.295047450536732"><ele>374.0</ele><time>2026-04-04T13:38:33Z</time></trkpt><trkpt lat="43.048879418221674" lon="11.295103516411565"><ele>373.4</ele><time>2026-04-04T13:38:34Z</time></trkpt><trkpt lat="43.0487912660246" lon="11.295155387567608"><ele>372.79999999999995</ele><time>2026-04-04T13:38:35Z</time></trkpt><trkpt lat="43.048701538806526" lon="11.295214689623565"><ele>372.20000000000005</ele><time>2026-04-04T13:38:36Z</time></trkpt><trkpt lat="43.04861523155552" lon="11.295273894785714"><ele>371.6</ele><time>2026-04-04T13:38:37Z</time></trkpt><trkpt lat="43.04852448766944" lon="11.295343326926654"><ele>371.0</ele><time>2026-04-04T13:38:38Z</time></trkpt><trkpt lat="43.04844249882752" lon="11.295406276178623"><ele>371.0</ele><time>2026-04-04T13:38:39Z</time></trkpt><trkpt lat="43.04835928561466" lon="11.29544230575211"><ele>371.0</ele><time>2026-04-04T13:38:40Z</time></trkpt><trkpt lat="43.04828219368274" lon="11.295432127461199"><ele>371.0</ele><time>2026-04-04T13:38:41Z</time></trkpt><trkpt lat="43.048204363832824" lon="11.295411150232637"><ele>371.0</ele><time>2026-04-04T13:38:42Z</time></trkpt><trkpt lat="43.04812890853112" lon="11.295423719426047"><ele>371.0</ele><time>2026-04-04T13:38:43Z</time></trkpt><trkpt lat="43.048059299738334" lon="11.295476321254629"><ele>371.0</ele><time>2026-04-04T13:38:44Z</time></trkpt><trkpt lat="43.04802726546674" lon="11.295637024455518"><ele>369.6</ele><time>2026-04-04T13:38:45Z</time></trkpt><trkpt lat="43.047978807802416" lon="11.295754611784853"><ele>368.20000000000005</ele><time>2026-04-04T13:38:46Z</time></trkpt><trkpt lat="43.04796455164388" lon="11.29587534304919"><ele>366.79999999999995</ele><time>2026-04-04T13:38:47Z</time></trkpt><trkpt lat="43.04782731988174" lon="11.295912376006346"><ele>365.4</ele><time>2026-04-04T13:38:48Z</time></trkpt><trkpt lat="43.04773456081172" lon="11.295977481658793"><ele>364.0</ele><time>2026-04-04T13:38:49Z</time></trkpt><trkpt lat="43.04764963084831" lon="11.296040005996952"><ele>364.0</ele><time>2026-04-04T13:38:50Z</time></trkpt><trkpt lat="43.04756009021976" lon="11.296107468562726"><ele>364.0</ele><time>2026-04-04T13:38:51Z</time></trkpt><trkpt lat="43.04747133721723" lon="11.296176391771281"><ele>364.0</ele><time>2026-04-04T13:38:52Z</time></trkpt><trkpt lat="43.047386364732716" lon="11.296249303369976"><ele>364.0</ele><time>2026-04-04T13:38:53Z</time></trkpt><trkpt lat="43.04729269963551" lon="11.296327942591208"><ele>364.0</ele><time>2026-04-04T13:38:54Z</time></trkpt><trkpt lat="43.0471996058627" lon="11.296402665854712"><ele>364.2</ele><time>2026-04-04T13:38:55Z</time></trkpt><trkpt lat="43.04710626529977" lon="11.296473237931172"><ele>364.4</ele><time>2026-04-04T13:38:56Z</time></trkpt><trkpt lat="43.04700741715975" lon="11.29654669349254"><ele>364.6</ele><time>2026-04-04T13:38:57Z</time></trkpt><trkpt lat="43.04691270214688" lon="11.296612900918694"><ele>364.8</ele><time>2026-04-04T13:38:58Z</time></trkpt><trkpt lat="43.04681652300432" lon="11.296680523820994"><ele>365.0</ele><time>2026-04-04T13:38:59Z</time></trkpt><trkpt lat="43.046725976391336" lon="11.296748461293609"><ele>365.4</ele><time>2026-04-04T13:39:00Z</time></trkpt><trkpt lat="43.04662782494332" lon="11.296820505213251"><ele>365.8</ele><time>2026-04-04T13:39:01Z</time></trkpt><trkpt lat="43.04653319424242" lon="11.296887609727511"><ele>366.20000000000005</ele><time>2026-04-04T13:39:02Z</time></trkpt><trkpt lat="43.04643740498257" lon="11.296954987546656"><ele>366.6</ele><time>2026-04-04T13:39:03Z</time></trkpt><trkpt lat="43.04634616984008" lon="11.29701831950404"><ele>367.0</ele><time>2026-04-04T13:39:04Z</time></trkpt><trkpt lat="43.046250038090946" lon="11.297086367242185"><ele>367.0</ele><time>2026-04-04T13:39:05Z</time></trkpt><trkpt lat="43.046158620361304" lon="11.297149734708613"><ele>367.0</ele><time>2026-04-04T13:39:06Z</time></trkpt><trkpt lat="43.04606418825946" lon="11.297216150439542"><ele>367.0</ele><time>2026-04-04T13:39:07Z</time></trkpt><trkpt lat="43.04597505502794" lon="11.297282536122527"><ele>367.0</ele><time>2026-04-04T13:39:08Z</time></trkpt><trkpt lat="43.04588224340034" lon="11.297352109957513"><ele>367.0</ele><time>2026-04-04T13:39:09Z</time></trkpt><trkpt lat="43.04579222069053" lon="11.297418262592059"><ele>367.8</ele><time>2026-04-04T13:39:10Z</time></trkpt><trkpt lat="43.04570126443216" lon="11.297480668029383"><ele>368.6</ele><time>2026-04-04T13:39:11Z</time></trkpt><trkpt lat="43.0456212760208" lon="11.297540317743007"><ele>369.40000000000003</ele><time>2026-04-04T13:39:12Z</time></trkpt><trkpt lat="43.0455343873041" lon="11.297605448559422"><ele>370.20000000000005</ele><time>2026-04-04T13:39:13Z</time></trkpt><trkpt lat="43.045446447557616" lon="11.297671276130023"><ele>371.0</ele><time>2026-04-04T13:39:14Z</time></trkpt><trkpt lat="43.04535794212109" lon="11.297735868947125"><ele>371.0</ele><time>2026-04-04T13:39:15Z</time></trkpt><trkpt lat="43.04527675681151" lon="11.297794047692383"><ele>371.0</ele><time>2026-04-04T13:39:16Z</time></trkpt><trkpt lat="43.045196671880326" lon="11.297852227326622"><ele>371.0</ele><time>2026-04-04T13:39:17Z</time></trkpt><trkpt lat="43.045125900233664" lon="11.297896408156669"><ele>371.0</ele><time>2026-04-04T13:39:18Z</time></trkpt><trkpt lat="43.04503187674847" lon="11.29793043598893"><ele>371.0</ele><time>2026-04-04T13:39:19Z</time></trkpt><trkpt lat="43.04493285671413" lon="11.297952135865279"><ele>371.4</ele><time>2026-04-04T13:39:20Z</time></trkpt><trkpt lat="43.044832008406715" lon="11.29797023343118"><ele>371.8</ele><time>2026-04-04T13:39:21Z</time></trkpt><trkpt lat="43.044728213632816" lon="11.297997921279197"><ele>372.2</ele><time>2026-04-04T13:39:22Z</time></trkpt><trkpt lat="43.044628673432" lon="11.298037039049754"><ele>372.59999999999997</ele><time>2026-04-04T13:39:23Z</time></trkpt><trkpt lat="43.044535366815175" lon="11.29807540425863"><ele>373.0</ele><time>2026-04-04T13:39:24Z</time></trkpt><trkpt lat="43.04444297848672" lon="11.298103787287884"><ele>374.3333333333333</ele><time>2026-04-04T13:39:25Z</time></trkpt><trkpt lat="43.04434460266947" lon="11.298118722962677"><ele>375.66666666666663</ele><time>2026-04-04T13:39:26Z</time></trkpt><trkpt lat="43.044269902536925" lon="11.298120448412678"><ele>377.0</ele><time>2026-04-04T13:39:27Z</time></trkpt><trkpt lat="43.04418998254959" lon="11.298116151041"><ele>378.3333333333333</ele><time>2026-04-04T13:39:28Z</time></trkpt><trkpt lat="43.044109885661896" lon="11.298109995655903"><ele>379.6666666666667</ele><time>2026-04-04T13:39:29Z</time></trkpt><trkpt lat="43.04402408787535" lon="11.298109035966776"><ele>381.0</ele><time>2026-04-04T13:39:30Z</time></trkpt><trkpt lat="43.04394182111528" lon="11.298106494429847"><ele>381.5</ele><time>2026-04-04T13:39:31Z</time></trkpt><trkpt lat="43.04386140110855" lon="11.298087946220383"><ele>382.0</ele><time>2026-04-04T13:39:32Z</time></trkpt><trkpt lat="43.043777115504035" lon="11.298052586145513"><ele>382.5</ele><time>2026-04-04T13:39:33Z</time></trkpt><trkpt lat="43.04370026672275" lon="11.298009456811233"><ele>383.0</ele><time>2026-04-04T13:39:34Z</time></trkpt><trkpt lat="43.043623721758564" lon="11.297963476207824"><ele>383.5</ele><time>2026-04-04T13:39:35Z</time></trkpt><trkpt lat="43.0435462422471" lon="11.29792491672043"><ele>384.0</ele><time>2026-04-04T13:39:36Z</time></trkpt><trkpt lat="43.043471415768664" lon="11.297895044037912"><ele>384.0</ele><time>2026-04-04T13:39:37Z</time></trkpt><trkpt lat="43.04338978661041" lon="11.297883889801161"><ele>384.0</ele><time>2026-04-04T13:39:38Z</time></trkpt><trkpt lat="43.0433065911264" lon="11.29789290997527"><ele>384.0</ele><time>2026-04-04T13:39:39Z</time></trkpt><trkpt lat="43.04322300577249" lon="11.297915881217838"><ele>384.0</ele><time>2026-04-04T13:39:40Z</time></trkpt><trkpt lat="43.04313237262889" lon="11.29794298108733"><ele>384.0</ele><time>2026-04-04T13:39:41Z</time></trkpt><trkpt lat="43.04304145686367" lon="11.297970251098045"><ele>384.0</ele><time>2026-04-04T13:39:42Z</time></trkpt><trkpt lat="43.04295092405544" lon="11.297994267921098"><ele>386.0</ele><time>2026-04-04T13:39:43Z</time></trkpt><trkpt lat="43.04286000648826" lon="11.298015088805343"><ele>388.0</ele><time>2026-04-04T13:39:44Z</time></trkpt><trkpt lat="43.04278205395996" lon="11.298029738037977"><ele>390.0</ele><time>2026-04-04T13:39:45Z</time></trkpt><trkpt lat="43.04269879864598" lon="11.298033489254385"><ele>392.0</ele><time>2026-04-04T13:39:46Z</time></trkpt><trkpt lat="43.04261092244108" lon="11.29802324208966"><ele>394.0</ele><time>2026-04-04T13:39:47Z</time></trkpt><trkpt lat="43.04253045141267" lon="11.297999177214434"><ele>396.0</ele><time>2026-04-04T13:39:48Z</time></trkpt><trkpt lat="43.042452488299396" lon="11.297969586535796"><ele>399.1666666666667</ele><time>2026-04-04T13:39:49Z</time></trkpt><trkpt lat="43.042367259477004" lon="11.297926698499875"><ele>402.33333333333337</ele><time>2026-04-04T13:39:50Z</time></trkpt><trkpt lat="43.04228446484383" lon="11.297875304447066"><ele>405.5</ele><time>2026-04-04T13:39:51Z</time></trkpt><trkpt lat="43.042210006281984" lon="11.297808783779848"><ele>408.6666666666667</ele><time>2026-04-04T13:39:52Z</time></trkpt><trkpt lat="43.04214482414796" lon="11.297719615061494"><ele>411.83333333333337</ele><time>2026-04-04T13:39:53Z</time></trkpt><trkpt lat="43.04209017957276" lon="11.29763047720779"><ele>415.0</ele><time>2026-04-04T13:39:54Z</time></trkpt><trkpt lat="43.04202535099315" lon="11.2975490615952"><ele>415.0</ele><time>2026-04-04T13:39:55Z</time></trkpt><trkpt lat="43.04194892949937" lon="11.297486968812306"><ele>415.0</ele><time>2026-04-04T13:39:56Z</time></trkpt><trkpt lat="43.041859824140566" lon="11.297451764631083"><ele>415.0</ele><time>2026-04-04T13:39:57Z</time></trkpt><trkpt lat="43.04176694645481" lon="11.29741795323666"><ele>415.0</ele><time>2026-04-04T13:39:58Z</time></trkpt><trkpt lat="43.04168261359024" lon="11.29736834197072"><ele>415.0</ele><time>2026-04-04T13:39:59Z</time></trkpt><trkpt lat="43.04160802420835" lon="11.297297307227533"><ele>414.6666666666667</ele><time>2026-04-04T13:40:00Z</time></trkpt><trkpt lat="43.041544682095385" lon="11.297215285224356"><ele>414.33333333333337</ele><time>2026-04-04T13:40:01Z</time></trkpt><trkpt lat="43.041475550592985" lon="11.29714512256197"><ele>414.0</ele><time>2026-04-04T13:40:02Z</time></trkpt><trkpt lat="43.04140021175551" lon="11.297105831845698"><ele>413.66666666666663</ele><time>2026-04-04T13:40:03Z</time></trkpt><trkpt lat="43.041313442057564" lon="11.297108041230475"><ele>413.3333333333333</ele><time>2026-04-04T13:40:04Z</time></trkpt><trkpt lat="43.04122547303892" lon="11.297151828636036"><ele>413.0</ele><time>2026-04-04T13:40:05Z</time></trkpt><trkpt lat="43.041143556317" lon="11.297217240928575"><ele>415.4</ele><time>2026-04-04T13:40:06Z</time></trkpt><trkpt lat="43.041057075185165" lon="11.297277187226888"><ele>417.79999999999995</ele><time>2026-04-04T13:40:07Z</time></trkpt><trkpt lat="43.04097144481199" lon="11.297307530514024"><ele>420.2</ele><time>2026-04-04T13:40:08Z</time></trkpt><trkpt lat="43.04088022110262" lon="11.297308003730064"><ele>422.6</ele><time>2026-04-04T13:40:09Z</time></trkpt><trkpt lat="43.04079734176707" lon="11.29729299550162"><ele>425.0</ele><time>2026-04-04T13:40:10Z</time></trkpt><trkpt lat="43.04070564442087" lon="11.297279037017347"><ele>425.0</ele><time>2026-04-04T13:40:11Z</time></trkpt><trkpt lat="43.04061215013962" lon="11.297263637495492"><ele>425.0</ele><time>2026-04-04T13:40:12Z</time></trkpt><trkpt lat="43.04052288173818" lon="11.297251080499604"><ele>425.0</ele><time>2026-04-04T13:40:13Z</time></trkpt><trkpt lat="43.040429652845745" lon="11.297243831306568"><ele>425.0</ele><time>2026-04-04T13:40:14Z</time></trkpt><trkpt lat="43.04032495047676" lon="11.297241912785912"><ele>425.0</ele><time>2026-04-04T13:40:15Z</time></trkpt><trkpt lat="43.04022832217202" lon="11.297241872362873"><ele>425.0</ele><time>2026-04-04T13:40:16Z</time></trkpt><trkpt lat="43.040136355919955" lon="11.297246110135116"><ele>425.0</ele><time>2026-04-04T13:40:17Z</time></trkpt><trkpt lat="43.04005358859972" lon="11.297257661357829"><ele>425.0</ele><time>2026-04-04T13:40:18Z</time></trkpt><trkpt lat="43.039953424911275" lon="11.297274469151036"><ele>425.0</ele><time>2026-04-04T13:40:19Z</time></trkpt><trkpt lat="43.03985881422121" lon="11.297286161527323"><ele>425.0</ele><time>2026-04-04T13:40:20Z</time></trkpt><trkpt lat="43.03974603425629" lon="11.297309310895752"><ele>424.0</ele><time>2026-04-04T13:40:21Z</time></trkpt><trkpt lat="43.03963579592376" lon="11.29733149141072"><ele>423.0</ele><time>2026-04-04T13:40:22Z</time></trkpt><trkpt lat="43.03952376572337" lon="11.297359779979512"><ele>422.0</ele><time>2026-04-04T13:40:23Z</time></trkpt><trkpt lat="43.039408219044105" lon="11.297402964103032"><ele>421.0</ele><time>2026-04-04T13:40:24Z</time></trkpt><trkpt lat="43.03929533525283" lon="11.297460424667948"><ele>421.0</ele><time>2026-04-04T13:40:25Z</time></trkpt><trkpt lat="43.03918864799095" lon="11.297517147394215"><ele>421.0</ele><time>2026-04-04T13:40:26Z</time></trkpt><trkpt lat="43.03907462912125" lon="11.297574336295035"><ele>421.0</ele><time>2026-04-04T13:40:27Z</time></trkpt><trkpt lat="43.038965252794696" lon="11.297620180329613"><ele>421.0</ele><time>2026-04-04T13:40:28Z</time></trkpt><trkpt lat="43.03884711186998" lon="11.297679135809066"><ele>417.75</ele><time>2026-04-04T13:40:29Z</time></trkpt><trkpt lat="43.03872494454781" lon="11.297749427518267"><ele>414.5</ele><time>2026-04-04T13:40:30Z</time></trkpt><trkpt lat="43.038596478863205" lon="11.297838614419517"><ele>411.25</ele><time>2026-04-04T13:40:31Z</time></trkpt><trkpt lat="43.03847790041183" lon="11.297924265315622"><ele>408.0</ele><time>2026-04-04T13:40:32Z</time></trkpt><trkpt lat="43.038349484240776" lon="11.298025162167388"><ele>405.33333333333337</ele><time>2026-04-04T13:40:33Z</time></trkpt><trkpt lat="43.03821901461532" lon="11.29812263626901"><ele>402.6666666666667</ele><time>2026-04-04T13:40:34Z</time></trkpt><trkpt lat="43.03807873158883" lon="11.298228305058368"><ele>400.0</ele><time>2026-04-04T13:40:35Z</time></trkpt><trkpt lat="43.03794196130614" lon="11.29832065346981"><ele>400.0</ele><time>2026-04-04T13:40:36Z</time></trkpt><trkpt lat="43.03781301178773" lon="11.298406105917449"><ele>400.0</ele><time>2026-04-04T13:40:37Z</time></trkpt><trkpt lat="43.03767641391181" lon="11.298490974803046"><ele>400.0</ele><time>2026-04-04T13:40:38Z</time></trkpt><trkpt lat="43.03754059104308" lon="11.298572391528973"><ele>400.0</ele><time>2026-04-04T13:40:39Z</time></trkpt><trkpt lat="43.03740070806226" lon="11.298647974522833"><ele>397.75</ele><time>2026-04-04T13:40:40Z</time></trkpt><trkpt lat="43.03726642753595" lon="11.298715714570054"><ele>395.5</ele><time>2026-04-04T13:40:41Z</time></trkpt><trkpt lat="43.03712323290766" lon="11.298770984133606"><ele>393.25</ele><time>2026-04-04T13:40:42Z</time></trkpt><trkpt lat="43.036991959116065" lon="11.298791644286192"><ele>391.0</ele><time>2026-04-04T13:40:43Z</time></trkpt><trkpt lat="43.0368569842741" lon="11.298797206273717"><ele>391.0</ele><time>2026-04-04T13:40:44Z</time></trkpt><trkpt lat="43.036716302736835" lon="11.298812582935515"><ele>391.0</ele><time>2026-04-04T13:40:45Z</time></trkpt><trkpt lat="43.03657451086903" lon="11.298847917675744"><ele>391.0</ele><time>2026-04-04T13:40:46Z</time></trkpt><trkpt lat="43.03643193856368" lon="11.298896598516848"><ele>391.0</ele><time>2026-04-04T13:40:47Z</time></trkpt><trkpt lat="43.036294572687154" lon="11.298948821677813"><ele>388.6666666666667</ele><time>2026-04-04T13:40:48Z</time></trkpt><trkpt lat="43.036156891868096" lon="11.299008029749261"><ele>386.33333333333337</ele><time>2026-04-04T13:40:49Z</time></trkpt><trkpt lat="43.03600820583441" lon="11.299074129874706"><ele>384.0</ele><time>2026-04-04T13:40:50Z</time></trkpt><trkpt lat="43.03585987266615" lon="11.299150932747427"><ele>380.3333333333333</ele><time>2026-04-04T13:40:51Z</time></trkpt><trkpt lat="43.03571590727245" lon="11.299238896081135"><ele>376.66666666666663</ele><time>2026-04-04T13:40:52Z</time></trkpt><trkpt lat="43.03557167831944" lon="11.299340919750007"><ele>373.0</ele><time>2026-04-04T13:40:53Z</time></trkpt><trkpt lat="43.0354265413561" lon="11.29945231753188"><ele>373.0</ele><time>2026-04-04T13:40:54Z</time></trkpt><trkpt lat="43.03527984007925" lon="11.29957307958944"><ele>373.0</ele><time>2026-04-04T13:40:55Z</time></trkpt><trkpt lat="43.03513293224301" lon="11.299680796410893"><ele>373.0</ele><time>2026-04-04T13:40:56Z</time></trkpt><trkpt lat="43.03499487341257" lon="11.299775159827139"><ele>372.25</ele><time>2026-04-04T13:40:57Z</time></trkpt><trkpt lat="43.03486034190271" lon="11.299861403227492"><ele>371.5</ele><time>2026-04-04T13:40:58Z</time></trkpt><trkpt lat="43.034732383556346" lon="11.299949796636055"><ele>370.75</ele><time>2026-04-04T13:40:59Z</time></trkpt><trkpt lat="43.03461054559798" lon="11.300041381075046"><ele>370.0</ele><time>2026-04-04T13:41:00Z</time></trkpt><trkpt lat="43.0344830281551" lon="11.300134383358165"><ele>370.0</ele><time>2026-04-04T13:41:01Z</time></trkpt><trkpt lat="43.03435623290035" lon="11.300223925928137"><ele>370.0</ele><time>2026-04-04T13:41:02Z</time></trkpt><trkpt lat="43.0342273591749" lon="11.300307375138592"><ele>370.0</ele><time>2026-04-04T13:41:03Z</time></trkpt><trkpt lat="43.0340922988783" lon="11.30038832961704"><ele>370.0</ele><time>2026-04-04T13:41:04Z</time></trkpt><trkpt lat="43.03395374682111" lon="11.300461945556334"><ele>369.0</ele><time>2026-04-04T13:41:05Z</time></trkpt><trkpt lat="43.03381970178632" lon="11.300531206986763"><ele>368.0</ele><time>2026-04-04T13:41:06Z</time></trkpt><trkpt lat="43.03369582762855" lon="11.300592968976698"><ele>367.0</ele><time>2026-04-04T13:41:07Z</time></trkpt><trkpt lat="43.03357670382926" lon="11.30065753051369"><ele>366.0</ele><time>2026-04-04T13:41:08Z</time></trkpt><trkpt lat="43.03345644867817" lon="11.300715851055614"><ele>367.25</ele><time>2026-04-04T13:41:09Z</time></trkpt><trkpt lat="43.03333663375761" lon="11.3007732602159"><ele>368.5</ele><time>2026-04-04T13:41:10Z</time></trkpt><trkpt lat="43.03321730681992" lon="11.300829630106382"><ele>369.75</ele><time>2026-04-04T13:41:11Z</time></trkpt><trkpt lat="43.03310383822819" lon="11.30088934574855"><ele>371.0</ele><time>2026-04-04T13:41:12Z</time></trkpt><trkpt lat="43.03299840862253" lon="11.300952264235418"><ele>371.0</ele><time>2026-04-04T13:41:13Z</time></trkpt><trkpt lat="43.03290121917273" lon="11.301020369422735"><ele>371.0</ele><time>2026-04-04T13:41:14Z</time></trkpt><trkpt lat="43.032809041022595" lon="11.301106567135607"><ele>371.0</ele><time>2026-04-04T13:41:15Z</time></trkpt><trkpt lat="43.032727191594674" lon="11.301218287923962"><ele>371.0</ele><time>2026-04-04T13:41:16Z</time></trkpt><trkpt lat="43.03265810558204" lon="11.301351156751501"><ele>372.0</ele><time>2026-04-04T13:41:17Z</time></trkpt><trkpt lat="43.03258648546248" lon="11.301496288820431"><ele>373.0</ele><time>2026-04-04T13:41:18Z</time></trkpt><trkpt lat="43.03250234029401" lon="11.301642765424535"><ele>374.0</ele><time>2026-04-04T13:41:19Z</time></trkpt><trkpt lat="43.03241629444871" lon="11.301778170974012"><ele>375.0</ele><time>2026-04-04T13:41:20Z</time></trkpt><trkpt lat="43.032321425445666" lon="11.301894055544048"><ele>375.0</ele><time>2026-04-04T13:41:21Z</time></trkpt><trkpt lat="43.03221826123884" lon="11.301981469305522"><ele>375.0</ele><time>2026-04-04T13:41:22.001Z</time></trkpt><trkpt lat="43.03209501178906" lon="11.302051351023914"><ele>375.0</ele><time>2026-04-04T13:41:23.001Z</time></trkpt><trkpt lat="43.03196967503838" lon="11.302101710145669"><ele>375.0</ele><time>2026-04-04T13:41:24.001Z</time></trkpt><trkpt lat="43.0318347493043" lon="11.302140848355721"><ele>375.0</ele><time>2026-04-04T13:41:25.001Z</time></trkpt><trkpt lat="43.03169930346566" lon="11.30216351580525"><ele>375.0</ele><time>2026-04-04T13:41:26.001Z</time></trkpt><trkpt lat="43.0315688986462" lon="11.30217119407174"><ele>375.0</ele><time>2026-04-04T13:41:27.001Z</time></trkpt><trkpt lat="43.0314389761644" lon="11.302172934156399"><ele>375.0</ele><time>2026-04-04T13:41:28.001Z</time></trkpt><trkpt lat="43.03131325831663" lon="11.302177783305886"><ele>375.25</ele><time>2026-04-04T13:41:29.001Z</time></trkpt><trkpt lat="43.03118896047837" lon="11.302188086299639"><ele>375.5</ele><time>2026-04-04T13:41:30.001Z</time></trkpt><trkpt lat="43.031070681673256" lon="11.302196423987358"><ele>375.75</ele><time>2026-04-04T13:41:31.001Z</time></trkpt><trkpt lat="43.030944092348754" lon="11.302199439061832"><ele>376.0</ele><time>2026-04-04T13:41:32.001Z</time></trkpt><trkpt lat="43.03082242326929" lon="11.302201503616285"><ele>377.4</ele><time>2026-04-04T13:41:33.001Z</time></trkpt><trkpt lat="43.030701618513326" lon="11.30220143062334"><ele>378.8</ele><time>2026-04-04T13:41:34.001Z</time></trkpt><trkpt lat="43.03058527623456" lon="11.302202558063561"><ele>380.2</ele><time>2026-04-04T13:41:35.001Z</time></trkpt><trkpt lat="43.030475100471726" lon="11.30220187248676"><ele>381.59999999999997</ele><time>2026-04-04T13:41:36.001Z</time></trkpt><trkpt lat="43.03037900992911" lon="11.302199868938917"><ele>383.0</ele><time>2026-04-04T13:41:37.001Z</time></trkpt><trkpt lat="43.03028435307563" lon="11.30219513803363"><ele>383.0</ele><time>2026-04-04T13:41:38.001Z</time></trkpt><trkpt lat="43.030194210507275" lon="11.302200571471028"><ele>383.0</ele><time>2026-04-04T13:41:39.001Z</time></trkpt><trkpt lat="43.03009656177719" lon="11.302238185594542"><ele>383.0</ele><time>2026-04-04T13:41:40.001Z</time></trkpt><trkpt lat="43.03000485052724" lon="11.302311948294083"><ele>383.0</ele><time>2026-04-04T13:41:41.001Z</time></trkpt><trkpt lat="43.02991025566863" lon="11.302405373924923"><ele>383.0</ele><time>2026-04-04T13:41:42.001Z</time></trkpt><trkpt lat="43.02981148539552" lon="11.302505369497204"><ele>381.0</ele><time>2026-04-04T13:41:43.001Z</time></trkpt><trkpt lat="43.02971147425996" lon="11.302606059230316"><ele>379.0</ele><time>2026-04-04T13:41:44.001Z</time></trkpt><trkpt lat="43.029614005421394" lon="11.302705248926577"><ele>377.0</ele><time>2026-04-04T13:41:45.001Z</time></trkpt><trkpt lat="43.02951752460676" lon="11.30280040591982"><ele>375.0</ele><time>2026-04-04T13:41:46.001Z</time></trkpt><trkpt lat="43.02942391944208" lon="11.302905932342204"><ele>375.0</ele><time>2026-04-04T13:41:47.001Z</time></trkpt><trkpt lat="43.02932879431993" lon="11.303020734566964"><ele>375.0</ele><time>2026-04-04T13:41:48.001Z</time></trkpt><trkpt lat="43.0292400646874" lon="11.303146397458828"><ele>375.0</ele><time>2026-04-04T13:41:49.001Z</time></trkpt><trkpt lat="43.02916155609535" lon="11.303278692650046"><ele>375.0</ele><time>2026-04-04T13:41:50.001Z</time></trkpt><trkpt lat="43.02909707205442" lon="11.303420278846687"><ele>371.25</ele><time>2026-04-04T13:41:51.001Z</time></trkpt><trkpt lat="43.029044268682576" lon="11.303571047600617"><ele>367.5</ele><time>2026-04-04T13:41:52.001Z</time></trkpt><trkpt lat="43.02900696675564" lon="11.303726136386416"><ele>363.75</ele><time>2026-04-04T13:41:53.001Z</time></trkpt><trkpt lat="43.02897776781759" lon="11.303880439878427"><ele>360.0</ele><time>2026-04-04T13:41:54.001Z</time></trkpt><trkpt lat="43.028932981967436" lon="11.304024161720848"><ele>360.0</ele><time>2026-04-04T13:41:55.001Z</time></trkpt><trkpt lat="43.028869391578716" lon="11.304147507437857"><ele>360.0</ele><time>2026-04-04T13:41:56.001Z</time></trkpt><trkpt lat="43.02880108967444" lon="11.30427985794115"><ele>360.0</ele><time>2026-04-04T13:41:57.001Z</time></trkpt><trkpt lat="43.028748491511365" lon="11.304426089877271"><ele>360.0</ele><time>2026-04-04T13:41:58.001Z</time></trkpt><trkpt lat="43.02873530268417" lon="11.304598192830737"><ele>360.5</ele><time>2026-04-04T13:41:59.001Z</time></trkpt><trkpt lat="43.028753940343464" lon="11.304779658050013"><ele>361.0</ele><time>2026-04-04T13:42:00.001Z</time></trkpt><trkpt lat="43.028772056006325" lon="11.304965303406792"><ele>361.5</ele><time>2026-04-04T13:42:01.001Z</time></trkpt><trkpt lat="43.028769973813695" lon="11.30513439818967"><ele>362.0</ele><time>2026-04-04T13:42:02.001Z</time></trkpt><trkpt lat="43.028746719136116" lon="11.305293031200614"><ele>362.0</ele><time>2026-04-04T13:42:03.001Z</time></trkpt><trkpt lat="43.02870617337114" lon="11.305429555959151"><ele>362.0</ele><time>2026-04-04T13:42:04.001Z</time></trkpt><trkpt lat="43.02864045015239" lon="11.305540759102957"><ele>362.0</ele><time>2026-04-04T13:42:05.001Z</time></trkpt><trkpt lat="43.02855243385246" lon="11.305626659165311"><ele>362.0</ele><time>2026-04-04T13:42:06.001Z</time></trkpt><trkpt lat="43.02846000000728" lon="11.305696804014715"><ele>362.0</ele><time>2026-04-04T13:42:07.001Z</time></trkpt><trkpt lat="43.028365158467786" lon="11.305771843469227"><ele>361.8</ele><time>2026-04-04T13:42:08.001Z</time></trkpt><trkpt lat="43.02827094124046" lon="11.305853590438948"><ele>361.6</ele><time>2026-04-04T13:42:09.001Z</time></trkpt><trkpt lat="43.02818102686677" lon="11.30592883691359"><ele>361.40000000000003</ele><time>2026-04-04T13:42:10.001Z</time></trkpt><trkpt lat="43.028088746026945" lon="11.306010100139321"><ele>361.20000000000005</ele><time>2026-04-04T13:42:11.001Z</time></trkpt><trkpt lat="43.02799741821919" lon="11.30609061845528"><ele>361.0</ele><time>2026-04-04T13:42:12.001Z</time></trkpt><trkpt lat="43.02790624188959" lon="11.306163426839644"><ele>361.0</ele><time>2026-04-04T13:42:13.001Z</time></trkpt><trkpt lat="43.02781882465156" lon="11.30623236994974"><ele>361.0</ele><time>2026-04-04T13:42:14.001Z</time></trkpt><trkpt lat="43.02773053966346" lon="11.306299875653085"><ele>361.0</ele><time>2026-04-04T13:42:15.001Z</time></trkpt><trkpt lat="43.027630789280046" lon="11.306345972544092"><ele>361.0</ele><time>2026-04-04T13:42:16.001Z</time></trkpt><trkpt lat="43.02752454627047" lon="11.306334422878251"><ele>361.0</ele><time>2026-04-04T13:42:17.001Z</time></trkpt><trkpt lat="43.02742768932906" lon="11.306242757267864"><ele>360.0</ele><time>2026-04-04T13:42:18.001Z</time></trkpt><trkpt lat="43.02732572304656" lon="11.306184504453302"><ele>359.0</ele><time>2026-04-04T13:42:19.001Z</time></trkpt><trkpt lat="43.027224446011864" lon="11.306156905882144"><ele>358.0</ele><time>2026-04-04T13:42:20.001Z</time></trkpt><trkpt lat="43.02711348237865" lon="11.306185184845068"><ele>357.0</ele><time>2026-04-04T13:42:21.001Z</time></trkpt><trkpt lat="43.02700143443968" lon="11.306238704261238"><ele>356.0</ele><time>2026-04-04T13:42:22.001Z</time></trkpt><trkpt lat="43.02688894058758" lon="11.306299128599886"><ele>356.0</ele><time>2026-04-04T13:42:23.001Z</time></trkpt><trkpt lat="43.026777638333286" lon="11.306361034374614"><ele>356.0</ele><time>2026-04-04T13:42:24.001Z</time></trkpt><trkpt lat="43.02667146531462" lon="11.30642506311149"><ele>356.0</ele><time>2026-04-04T13:42:25.001Z</time></trkpt><trkpt lat="43.02656866701569" lon="11.306503126289893"><ele>356.0</ele><time>2026-04-04T13:42:26.001Z</time></trkpt><trkpt lat="43.02647085169621" lon="11.306589765108807"><ele>355.75</ele><time>2026-04-04T13:42:27.001Z</time></trkpt><trkpt lat="43.02638200487266" lon="11.306683667715562"><ele>355.5</ele><time>2026-04-04T13:42:28.001Z</time></trkpt><trkpt lat="43.02630119195775" lon="11.30679007303375"><ele>355.25</ele><time>2026-04-04T13:42:29.001Z</time></trkpt><trkpt lat="43.02623499702703" lon="11.306923428265804"><ele>355.0</ele><time>2026-04-04T13:42:30.001Z</time></trkpt><trkpt lat="43.02617925707728" lon="11.307066059638501"><ele>355.0</ele><time>2026-04-04T13:42:31.001Z</time></trkpt><trkpt lat="43.026122199784396" lon="11.307178643857494"><ele>355.0</ele><time>2026-04-04T13:42:32.001Z</time></trkpt><trkpt lat="43.0260513980924" lon="11.307259967242699"><ele>355.0</ele><time>2026-04-04T13:42:33.001Z</time></trkpt><trkpt lat="43.0259638995193" lon="11.30728678602398"><ele>355.0</ele><time>2026-04-04T13:42:34.001Z</time></trkpt><trkpt lat="43.02588496800827" lon="11.30725212325112"><ele>355.0</ele><time>2026-04-04T13:42:35.001Z</time></trkpt><trkpt lat="43.02580649006704" lon="11.30719463369694"><ele>352.2</ele><time>2026-04-04T13:42:36.001Z</time></trkpt><trkpt lat="43.02572584404051" lon="11.30715807608291"><ele>349.4</ele><time>2026-04-04T13:42:37.001Z</time></trkpt><trkpt lat="43.025632134411566" lon="11.307122368240716"><ele>346.6</ele><time>2026-04-04T13:42:38.001Z</time></trkpt><trkpt lat="43.02553619269481" lon="11.307083044858102"><ele>343.8</ele><time>2026-04-04T13:42:39.001Z</time></trkpt><trkpt lat="43.02543473938481" lon="11.30705683551434"><ele>341.0</ele><time>2026-04-04T13:42:40.001Z</time></trkpt><trkpt lat="43.025326010417366" lon="11.307056050742476"><ele>341.0</ele><time>2026-04-04T13:42:41.001Z</time></trkpt><trkpt lat="43.025213341734464" lon="11.307067220333447"><ele>341.0</ele><time>2026-04-04T13:42:42.001Z</time></trkpt><trkpt lat="43.02510163595991" lon="11.307088686757995"><ele>341.0</ele><time>2026-04-04T13:42:43.001Z</time></trkpt><trkpt lat="43.02499375181861" lon="11.307120367376918"><ele>341.0</ele><time>2026-04-04T13:42:44.001Z</time></trkpt><trkpt lat="43.02488367482288" lon="11.307155072372904"><ele>341.0</ele><time>2026-04-04T13:42:45.001Z</time></trkpt><trkpt lat="43.02477181493814" lon="11.307190413340365"><ele>342.0</ele><time>2026-04-04T13:42:46.001Z</time></trkpt><trkpt lat="43.02465750477851" lon="11.307232853885013"><ele>343.0</ele><time>2026-04-04T13:42:47.001Z</time></trkpt><trkpt lat="43.0245423309677" lon="11.307276347699696"><ele>344.0</ele><time>2026-04-04T13:42:48.001Z</time></trkpt><trkpt lat="43.02442720353776" lon="11.307319416082242"><ele>345.0</ele><time>2026-04-04T13:42:49.001Z</time></trkpt><trkpt lat="43.02430301221628" lon="11.30736442108441"><ele>345.0</ele><time>2026-04-04T13:42:50.001Z</time></trkpt><trkpt lat="43.02418067082845" lon="11.307410046059669"><ele>345.0</ele><time>2026-04-04T13:42:51.001Z</time></trkpt><trkpt lat="43.02405144270256" lon="11.307445991920808"><ele>345.0</ele><time>2026-04-04T13:42:52.001Z</time></trkpt><trkpt lat="43.023923361481756" lon="11.307474203479185"><ele>345.0</ele><time>2026-04-04T13:42:53.001Z</time></trkpt><trkpt lat="43.02379064274584" lon="11.307497780295545"><ele>342.5</ele><time>2026-04-04T13:42:54.001Z</time></trkpt><trkpt lat="43.023664483447845" lon="11.30751908322266"><ele>340.0</ele><time>2026-04-04T13:42:55.001Z</time></trkpt><trkpt lat="43.023539687899515" lon="11.307541222120582"><ele>337.5</ele><time>2026-04-04T13:42:56.001Z</time></trkpt><trkpt lat="43.02342020863418" lon="11.307560481769865"><ele>335.0</ele><time>2026-04-04T13:42:57.001Z</time></trkpt><trkpt lat="43.02330577675912" lon="11.30758643542356"><ele>333.8</ele><time>2026-04-04T13:42:58.001Z</time></trkpt><trkpt lat="43.02319220741417" lon="11.307617447815222"><ele>332.6</ele><time>2026-04-04T13:42:59.001Z</time></trkpt><trkpt lat="43.023087061922304" lon="11.307662973984984"><ele>331.4</ele><time>2026-04-04T13:43:00.001Z</time></trkpt><trkpt lat="43.02299412968853" lon="11.307729549832636"><ele>330.2</ele><time>2026-04-04T13:43:01.001Z</time></trkpt><trkpt lat="43.02291153320912" lon="11.307805764117848"><ele>329.0</ele><time>2026-04-04T13:43:02.001Z</time></trkpt><trkpt lat="43.02282973512591" lon="11.307883725746452"><ele>329.0</ele><time>2026-04-04T13:43:03.001Z</time></trkpt><trkpt lat="43.022750077938916" lon="11.307948131051251"><ele>329.0</ele><time>2026-04-04T13:43:04.001Z</time></trkpt><trkpt lat="43.02266852709657" lon="11.308022172589377"><ele>329.0</ele><time>2026-04-04T13:43:05.001Z</time></trkpt><trkpt lat="43.02258887302768" lon="11.308093915157224"><ele>329.0</ele><time>2026-04-04T13:43:06.001Z</time></trkpt><trkpt lat="43.02250140452202" lon="11.30815920847866"><ele>329.0</ele><time>2026-04-04T13:43:07.001Z</time></trkpt><trkpt lat="43.022413260927934" lon="11.308210718782302"><ele>328.0</ele><time>2026-04-04T13:43:08.001Z</time></trkpt><trkpt lat="43.0223207267102" lon="11.30825126018918"><ele>327.0</ele><time>2026-04-04T13:43:09.001Z</time></trkpt><trkpt lat="43.02223004119986" lon="11.308285688596516"><ele>326.0</ele><time>2026-04-04T13:43:10.001Z</time></trkpt><trkpt lat="43.022137596453476" lon="11.308319201802503"><ele>325.0</ele><time>2026-04-04T13:43:11.001Z</time></trkpt><trkpt lat="43.022045670650854" lon="11.308349680202003"><ele>324.0</ele><time>2026-04-04T13:43:12.001Z</time></trkpt><trkpt lat="43.02195454952071" lon="11.308380504651113"><ele>324.0</ele><time>2026-04-04T13:43:13.001Z</time></trkpt><trkpt lat="43.02185717322722" lon="11.308411338651023"><ele>324.0</ele><time>2026-04-04T13:43:14.001Z</time></trkpt><trkpt lat="43.02175950455285" lon="11.308442286222332"><ele>324.0</ele><time>2026-04-04T13:43:15.001Z</time></trkpt><trkpt lat="43.0216627052045" lon="11.30847481959385"><ele>324.0</ele><time>2026-04-04T13:43:16.001Z</time></trkpt><trkpt lat="43.02157047913853" lon="11.308508415062347"><ele>324.0</ele><time>2026-04-04T13:43:17.001Z</time></trkpt><trkpt lat="43.021494393599305" lon="11.308533985229138"><ele>322.8</ele><time>2026-04-04T13:43:18.001Z</time></trkpt><trkpt lat="43.02141677423368" lon="11.308557358804578"><ele>321.59999999999997</ele><time>2026-04-04T13:43:19.001Z</time></trkpt><trkpt lat="43.021350623564835" lon="11.30857001585312"><ele>320.4</ele><time>2026-04-04T13:43:20.001Z</time></trkpt><trkpt lat="43.02127649546393" lon="11.308571930453247"><ele>319.2</ele><time>2026-04-04T13:43:21.001Z</time></trkpt><trkpt lat="43.021189646420694" lon="11.30863019453943"><ele>318.0</ele><time>2026-04-04T13:43:23.001Z</time></trkpt><trkpt lat="43.02115195841272" lon="11.308382753518218"><ele>318.0</ele><time>2026-04-04T13:43:24.001Z</time></trkpt><trkpt lat="43.021166632035346" lon="11.308283007924192"><ele>318.0</ele><time>2026-04-04T13:43:25.001Z</time></trkpt><trkpt lat="43.0211639427529" lon="11.308177279090964"><ele>318.0</ele><time>2026-04-04T13:43:26.001Z</time></trkpt><trkpt lat="43.02117869083132" lon="11.308081409214992"><ele>318.0</ele><time>2026-04-04T13:43:27.001Z</time></trkpt><trkpt lat="43.02118618963746" lon="11.307977187164685"><ele>318.0</ele><time>2026-04-04T13:43:28.001Z</time></trkpt><trkpt lat="43.02119105711425" lon="11.307870255451098"><ele>318.0</ele><time>2026-04-04T13:43:29.001Z</time></trkpt><trkpt lat="43.02119156654163" lon="11.307765577609958"><ele>316.5</ele><time>2026-04-04T13:43:30.001Z</time></trkpt><trkpt lat="43.02118205294316" lon="11.307656357765756"><ele>315.0</ele><time>2026-04-04T13:43:31.001Z</time></trkpt><trkpt lat="43.021157780789814" lon="11.307544423637411"><ele>313.5</ele><time>2026-04-04T13:43:32.001Z</time></trkpt><trkpt lat="43.0211249202157" lon="11.30745095016714"><ele>312.0</ele><time>2026-04-04T13:43:33.001Z</time></trkpt><trkpt lat="43.02106887142946" lon="11.307350712121718"><ele>310.5</ele><time>2026-04-04T13:43:34.001Z</time></trkpt><trkpt lat="43.02100363707474" lon="11.307258820378898"><ele>309.0</ele><time>2026-04-04T13:43:35.001Z</time></trkpt><trkpt lat="43.020938342043884" lon="11.307177206992504"><ele>307.8333333333333</ele><time>2026-04-04T13:43:36.001Z</time></trkpt><trkpt lat="43.02087838197591" lon="11.30710244343087"><ele>306.6666666666667</ele><time>2026-04-04T13:43:37.001Z</time></trkpt><trkpt lat="43.02080790951191" lon="11.307018739183068"><ele>305.5</ele><time>2026-04-04T13:43:38.001Z</time></trkpt><trkpt lat="43.02073597483606" lon="11.306946456555023"><ele>304.33333333333337</ele><time>2026-04-04T13:43:39.001Z</time></trkpt><trkpt lat="43.02066391768088" lon="11.306886037022048"><ele>303.1666666666667</ele><time>2026-04-04T13:43:40.001Z</time></trkpt><trkpt lat="43.020580740860716" lon="11.306829871164052"><ele>302.0</ele><time>2026-04-04T13:43:41.001Z</time></trkpt><trkpt lat="43.02049736231477" lon="11.306787333762164"><ele>301.0</ele><time>2026-04-04T13:43:42.001Z</time></trkpt><trkpt lat="43.020400535181075" lon="11.306766132854285"><ele>300.0</ele><time>2026-04-04T13:43:43.001Z</time></trkpt><trkpt lat="43.020309219678" lon="11.306760537895059"><ele>299.0</ele><time>2026-04-04T13:43:44.001Z</time></trkpt><trkpt lat="43.02021405979431" lon="11.306748651164355"><ele>298.0</ele><time>2026-04-04T13:43:45.001Z</time></trkpt><trkpt lat="43.020123760612336" lon="11.306722261501525"><ele>297.0</ele><time>2026-04-04T13:43:46.001Z</time></trkpt><trkpt lat="43.02004823989978" lon="11.306671539451209"><ele>295.2</ele><time>2026-04-04T13:43:47.001Z</time></trkpt><trkpt lat="43.01996470992418" lon="11.306592055332638"><ele>293.4</ele><time>2026-04-04T13:43:48.001Z</time></trkpt><trkpt lat="43.01990590669453" lon="11.306500655622067"><ele>291.6</ele><time>2026-04-04T13:43:49.001Z</time></trkpt><trkpt lat="43.01983770791292" lon="11.306400380840188"><ele>289.8</ele><time>2026-04-04T13:43:50.001Z</time></trkpt><trkpt lat="43.01975973251561" lon="11.306290705349863"><ele>288.0</ele><time>2026-04-04T13:43:51.001Z</time></trkpt><trkpt lat="43.019682175577685" lon="11.306186370161006"><ele>287.2</ele><time>2026-04-04T13:43:52.001Z</time></trkpt><trkpt lat="43.01960141456732" lon="11.30607949425163"><ele>286.4</ele><time>2026-04-04T13:43:53.001Z</time></trkpt><trkpt lat="43.019516225778744" lon="11.305979048094924"><ele>285.59999999999997</ele><time>2026-04-04T13:43:54.001Z</time></trkpt><trkpt lat="43.019427042995815" lon="11.30589067864292"><ele>284.8</ele><time>2026-04-04T13:43:55.001Z</time></trkpt><trkpt lat="43.01934123214121" lon="11.305809489129695"><ele>284.0</ele><time>2026-04-04T13:43:56.001Z</time></trkpt><trkpt lat="43.01925776571694" lon="11.305749311118031"><ele>284.0</ele><time>2026-04-04T13:43:57.001Z</time></trkpt><trkpt lat="43.01916675957173" lon="11.305710597360992"><ele>284.0</ele><time>2026-04-04T13:43:58.001Z</time></trkpt><trkpt lat="43.01907281745753" lon="11.305694825696897"><ele>284.0</ele><time>2026-04-04T13:43:59.001Z</time></trkpt><trkpt lat="43.01897756697302" lon="11.305712477454552"><ele>284.0</ele><time>2026-04-04T13:44:00.001Z</time></trkpt><trkpt lat="43.018875682571824" lon="11.305751526301021"><ele>284.0</ele><time>2026-04-04T13:44:01.001Z</time></trkpt><trkpt lat="43.018775680882705" lon="11.30580064139812"><ele>282.25</ele><time>2026-04-04T13:44:02.001Z</time></trkpt><trkpt lat="43.01866523080058" lon="11.305821204963143"><ele>280.5</ele><time>2026-04-04T13:44:03.001Z</time></trkpt><trkpt lat="43.01854867644653" lon="11.30581136911748"><ele>278.75</ele><time>2026-04-04T13:44:04.001Z</time></trkpt><trkpt lat="43.018426794197666" lon="11.305793435558941"><ele>277.0</ele><time>2026-04-04T13:44:05.001Z</time></trkpt><trkpt lat="43.01830878301318" lon="11.305784448818475"><ele>275.0</ele><time>2026-04-04T13:44:06.001Z</time></trkpt><trkpt lat="43.01818903573466" lon="11.305775020392305"><ele>273.0</ele><time>2026-04-04T13:44:07.001Z</time></trkpt><trkpt lat="43.018062461964526" lon="11.305737324065614"><ele>271.0</ele><time>2026-04-04T13:44:08.001Z</time></trkpt><trkpt lat="43.01795032663081" lon="11.305664033814418"><ele>269.0</ele><time>2026-04-04T13:44:09.001Z</time></trkpt><trkpt lat="43.017855303697765" lon="11.305560963715799"><ele>268.0</ele><time>2026-04-04T13:44:10.001Z</time></trkpt><trkpt lat="43.017772386998914" lon="11.305470086894546"><ele>267.0</ele><time>2026-04-04T13:44:11.001Z</time></trkpt><trkpt lat="43.017688860832315" lon="11.305416091123792"><ele>266.0</ele><time>2026-04-04T13:44:12Z</time></trkpt><trkpt lat="43.01759339589592" lon="11.305397183568573"><ele>265.0</ele><time>2026-04-04T13:44:13Z</time></trkpt><trkpt lat="43.01748554355928" lon="11.305400109097947"><ele>264.0</ele><time>2026-04-04T13:44:14Z</time></trkpt><trkpt lat="43.01737846115045" lon="11.305407293156168"><ele>263.0</ele><time>2026-04-04T13:44:15Z</time></trkpt><trkpt lat="43.017270178025846" lon="11.305424840120304"><ele>262.0</ele><time>2026-04-04T13:44:16Z</time></trkpt><trkpt lat="43.017175559340735" lon="11.30546099484227"><ele>261.0</ele><time>2026-04-04T13:44:17Z</time></trkpt><trkpt lat="43.01709620297198" lon="11.305488610469299"><ele>260.0</ele><time>2026-04-04T13:44:18Z</time></trkpt><trkpt lat="43.017013016573564" lon="11.305489298346727"><ele>259.0</ele><time>2026-04-04T13:44:19Z</time></trkpt><trkpt lat="43.01693055701543" lon="11.305454938232481"><ele>259.0</ele><time>2026-04-04T13:44:20Z</time></trkpt><trkpt lat="43.01685853949428" lon="11.305405458768135"><ele>259.0</ele><time>2026-04-04T13:44:21Z</time></trkpt><trkpt lat="43.01678320104396" lon="11.305350534600535"><ele>259.0</ele><time>2026-04-04T13:44:22Z</time></trkpt><trkpt lat="43.01671521840707" lon="11.305302931008653"><ele>259.0</ele><time>2026-04-04T13:44:23Z</time></trkpt><trkpt lat="43.016638460691475" lon="11.3052495067981"><ele>259.0</ele><time>2026-04-04T13:44:24Z</time></trkpt><trkpt lat="43.0165754138067" lon="11.30519143718487"><ele>259.0</ele><time>2026-04-04T13:44:25Z</time></trkpt><trkpt lat="43.01652049969427" lon="11.305115198468007"><ele>257.66666666666663</ele><time>2026-04-04T13:44:26Z</time></trkpt><trkpt lat="43.01648326566097" lon="11.30501551109073"><ele>256.3333333333333</ele><time>2026-04-04T13:44:27Z</time></trkpt><trkpt lat="43.016458509734214" lon="11.304909499086955"><ele>255.0</ele><time>2026-04-04T13:44:28Z</time></trkpt><trkpt lat="43.01643208291537" lon="11.304796345187833"><ele>253.66666666666669</ele><time>2026-04-04T13:44:29Z</time></trkpt><trkpt lat="43.0163994390639" lon="11.30470892853788"><ele>252.33333333333334</ele><time>2026-04-04T13:44:30Z</time></trkpt><trkpt lat="43.01632655273376" lon="11.304637925900758"><ele>251.0</ele><time>2026-04-04T13:44:31Z</time></trkpt><trkpt lat="43.01623006189627" lon="11.304619907965286"><ele>250.60000000000002</ele><time>2026-04-04T13:44:32Z</time></trkpt><trkpt lat="43.01613280712445" lon="11.304647730124769"><ele>250.20000000000002</ele><time>2026-04-04T13:44:33Z</time></trkpt><trkpt lat="43.016036437984916" lon="11.304679331057226"><ele>249.79999999999998</ele><time>2026-04-04T13:44:34Z</time></trkpt><trkpt lat="43.01593690944599" lon="11.304705306572009"><ele>249.39999999999998</ele><time>2026-04-04T13:44:35Z</time></trkpt><trkpt lat="43.015841507758374" lon="11.304724054786005"><ele>249.0</ele><time>2026-04-04T13:44:36Z</time></trkpt><trkpt lat="43.01575087958837" lon="11.304747705874123"><ele>248.2</ele><time>2026-04-04T13:44:37Z</time></trkpt><trkpt lat="43.01565492079563" lon="11.304760554383334"><ele>247.39999999999998</ele><time>2026-04-04T13:44:38Z</time></trkpt><trkpt lat="43.015564382406595" lon="11.304767824889797"><ele>246.6</ele><time>2026-04-04T13:44:39Z</time></trkpt><trkpt lat="43.015466263215515" lon="11.304760306896473"><ele>245.8</ele><time>2026-04-04T13:44:40Z</time></trkpt><trkpt lat="43.015364523713636" lon="11.30474420020962"><ele>245.0</ele><time>2026-04-04T13:44:41Z</time></trkpt><trkpt lat="43.015264726990154" lon="11.304718333346678"><ele>245.0</ele><time>2026-04-04T13:44:42Z</time></trkpt><trkpt lat="43.01516445705507" lon="11.304675044576351"><ele>245.0</ele><time>2026-04-04T13:44:43Z</time></trkpt><trkpt lat="43.01506617537394" lon="11.304623903411361"><ele>245.0</ele><time>2026-04-04T13:44:44Z</time></trkpt><trkpt lat="43.01497347953838" lon="11.304577694276713"><ele>245.0</ele><time>2026-04-04T13:44:45Z</time></trkpt><trkpt lat="43.01487052394126" lon="11.304516865538208"><ele>245.0</ele><time>2026-04-04T13:44:46Z</time></trkpt><trkpt lat="43.01477283199295" lon="11.304461324133198"><ele>244.6</ele><time>2026-04-04T13:44:47Z</time></trkpt><trkpt lat="43.01467533940672" lon="11.304411735765646"><ele>244.2</ele><time>2026-04-04T13:44:48Z</time></trkpt><trkpt lat="43.01458323090369" lon="11.304366718475478"><ele>243.8</ele><time>2026-04-04T13:44:49Z</time></trkpt><trkpt lat="43.01448600415723" lon="11.304319838426164"><ele>243.4</ele><time>2026-04-04T13:44:50Z</time></trkpt><trkpt lat="43.01439443612281" lon="11.304273191820883"><ele>243.0</ele><time>2026-04-04T13:44:51Z</time></trkpt><trkpt lat="43.01430634843986" lon="11.304226449545794"><ele>243.0</ele><time>2026-04-04T13:44:52Z</time></trkpt><trkpt lat="43.01421675588963" lon="11.304174737981338"><ele>243.0</ele><time>2026-04-04T13:44:53Z</time></trkpt><trkpt lat="43.014133918721406" lon="11.304114304535117"><ele>243.0</ele><time>2026-04-04T13:44:54Z</time></trkpt><trkpt lat="43.014050982456375" lon="11.304046873144793"><ele>243.0</ele><time>2026-04-04T13:44:55Z</time></trkpt><trkpt lat="43.013970612674356" lon="11.303972372877455"><ele>243.0</ele><time>2026-04-04T13:44:56Z</time></trkpt><trkpt lat="43.01388849433071" lon="11.30389190943588"><ele>242.4</ele><time>2026-04-04T13:44:57Z</time></trkpt><trkpt lat="43.013813482125585" lon="11.303806612378805"><ele>241.8</ele><time>2026-04-04T13:44:58Z</time></trkpt><trkpt lat="43.01373474212799" lon="11.30371723110931"><ele>241.2</ele><time>2026-04-04T13:44:59Z</time></trkpt><trkpt lat="43.013657014164906" lon="11.303624145987676"><ele>240.6</ele><time>2026-04-04T13:45:00Z</time></trkpt><trkpt lat="43.01357727697454" lon="11.303528533597385"><ele>240.0</ele><time>2026-04-04T13:45:01Z</time></trkpt><trkpt lat="43.01349321194441" lon="11.303435036627347"><ele>240.0</ele><time>2026-04-04T13:45:02Z</time></trkpt><trkpt lat="43.0134084269257" lon="11.303345517325672"><ele>240.0</ele><time>2026-04-04T13:45:03Z</time></trkpt><trkpt lat="43.01332725468701" lon="11.303269623892998"><ele>240.0</ele><time>2026-04-04T13:45:04Z</time></trkpt><trkpt lat="43.01323662468109" lon="11.303199808582235"><ele>240.0</ele><time>2026-04-04T13:45:05Z</time></trkpt><trkpt lat="43.013139168685754" lon="11.303145617480602"><ele>240.0</ele><time>2026-04-04T13:45:06Z</time></trkpt><trkpt lat="43.013035723772035" lon="11.30310189689157"><ele>238.0</ele><time>2026-04-04T13:45:07Z</time></trkpt><trkpt lat="43.012925156028366" lon="11.30306729295268"><ele>236.0</ele><time>2026-04-04T13:45:08Z</time></trkpt><trkpt lat="43.0128300693421" lon="11.303000431427394"><ele>234.0</ele><time>2026-04-04T13:45:09Z</time></trkpt><trkpt lat="43.01273488214372" lon="11.302930626451218"><ele>232.0</ele><time>2026-04-04T13:45:10Z</time></trkpt><trkpt lat="43.01263567346882" lon="11.302854182269746"><ele>230.0</ele><time>2026-04-04T13:45:11Z</time></trkpt><trkpt lat="43.01253300806535" lon="11.302781688838412"><ele>229.5</ele><time>2026-04-04T13:45:12Z</time></trkpt><trkpt lat="43.01243775489804" lon="11.302714276442686"><ele>229.0</ele><time>2026-04-04T13:45:13Z</time></trkpt><trkpt lat="43.01233393975634" lon="11.302643754566713"><ele>228.5</ele><time>2026-04-04T13:45:14Z</time></trkpt><trkpt lat="43.01222404037223" lon="11.3025702102441"><ele>228.0</ele><time>2026-04-04T13:45:15Z</time></trkpt><trkpt lat="43.012121573907976" lon="11.302507453588833"><ele>228.0</ele><time>2026-04-04T13:45:16Z</time></trkpt><trkpt lat="43.012017468306794" lon="11.302448981147004"><ele>228.0</ele><time>2026-04-04T13:45:17Z</time></trkpt><trkpt lat="43.01192426536148" lon="11.30238258768968"><ele>228.0</ele><time>2026-04-04T13:45:18Z</time></trkpt><trkpt lat="43.01183601419351" lon="11.302318992405693"><ele>228.0</ele><time>2026-04-04T13:45:19Z</time></trkpt><trkpt lat="43.01173652014438" lon="11.302241496985205"><ele>228.0</ele><time>2026-04-04T13:45:20Z</time></trkpt><trkpt lat="43.01164376771008" lon="11.302157185819073"><ele>227.60000000000002</ele><time>2026-04-04T13:45:21Z</time></trkpt><trkpt lat="43.01155821777392" lon="11.30206815259818"><ele>227.20000000000002</ele><time>2026-04-04T13:45:22Z</time></trkpt><trkpt lat="43.01146923081223" lon="11.301974256942563"><ele>226.8</ele><time>2026-04-04T13:45:23Z</time></trkpt><trkpt lat="43.01137937620579" lon="11.301879218939629"><ele>226.4</ele><time>2026-04-04T13:45:24Z</time></trkpt><trkpt lat="43.011291413212994" lon="11.301787861303378"><ele>226.0</ele><time>2026-04-04T13:45:25Z</time></trkpt><trkpt lat="43.01120485166141" lon="11.30168800355067"><ele>226.0</ele><time>2026-04-04T13:45:26Z</time></trkpt><trkpt lat="43.011128676026956" lon="11.301584688130903"><ele>226.00000000000003</ele><time>2026-04-04T13:45:27Z</time></trkpt><trkpt lat="43.011062072083966" lon="11.301459639943557"><ele>226.00000000000003</ele><time>2026-04-04T13:45:28Z</time></trkpt><trkpt lat="43.0110007863273" lon="11.301333661617152"><ele>226.0</ele><time>2026-04-04T13:45:29Z</time></trkpt><trkpt lat="43.01093662432402" lon="11.301218446230653"><ele>226.0</ele><time>2026-04-04T13:45:30Z</time></trkpt><trkpt lat="43.01085475950076" lon="11.301123552125478"><ele>224.20000000000002</ele><time>2026-04-04T13:45:31Z</time></trkpt><trkpt lat="43.01076130568238" lon="11.301040936003263"><ele>222.40000000000003</ele><time>2026-04-04T13:45:32Z</time></trkpt><trkpt lat="43.01066543588179" lon="11.300971741284476"><ele>220.6</ele><time>2026-04-04T13:45:33Z</time></trkpt><trkpt lat="43.010572024504626" lon="11.30091743518397"><ele>218.8</ele><time>2026-04-04T13:45:34Z</time></trkpt><trkpt lat="43.01048135131354" lon="11.300857225564583"><ele>217.0</ele><time>2026-04-04T13:45:35Z</time></trkpt><trkpt lat="43.010396825921546" lon="11.300794414877164"><ele>217.0</ele><time>2026-04-04T13:45:36Z</time></trkpt><trkpt lat="43.0103256531963" lon="11.300712234172112"><ele>217.0</ele><time>2026-04-04T13:45:37Z</time></trkpt><trkpt lat="43.01026386498499" lon="11.300606831323824"><ele>217.0</ele><time>2026-04-04T13:45:38Z</time></trkpt><trkpt lat="43.01021142259928" lon="11.300498841283103"><ele>217.0</ele><time>2026-04-04T13:45:39Z</time></trkpt><trkpt lat="43.01016752861898" lon="11.300395967535591"><ele>217.0</ele><time>2026-04-04T13:45:40Z</time></trkpt><trkpt lat="43.010128236665615" lon="11.300283646940574"><ele>215.83333333333331</ele><time>2026-04-04T13:45:41Z</time></trkpt><trkpt lat="43.01008659249127" lon="11.300166220810455"><ele>214.66666666666666</ele><time>2026-04-04T13:45:42Z</time></trkpt><trkpt lat="43.01003705983458" lon="11.300046280578684"><ele>213.5</ele><time>2026-04-04T13:45:43Z</time></trkpt><trkpt lat="43.009993664067565" lon="11.299951423140598"><ele>212.33333333333331</ele><time>2026-04-04T13:45:44Z</time></trkpt><trkpt lat="43.009951971455344" lon="11.299847148080959"><ele>211.16666666666666</ele><time>2026-04-04T13:45:45Z</time></trkpt><trkpt lat="43.00991775389199" lon="11.2997428066423"><ele>210.0</ele><time>2026-04-04T13:45:46Z</time></trkpt><trkpt lat="43.00989887428897" lon="11.299627828156597"><ele>207.83333333333334</ele><time>2026-04-04T13:45:47Z</time></trkpt><trkpt lat="43.00990739828419" lon="11.299510197427082"><ele>205.66666666666669</ele><time>2026-04-04T13:45:48Z</time></trkpt><trkpt lat="43.0099424254361" lon="11.299397316329502"><ele>203.5</ele><time>2026-04-04T13:45:49Z</time></trkpt><trkpt lat="43.009953349501345" lon="11.299283537553311"><ele>201.33333333333334</ele><time>2026-04-04T13:45:50Z</time></trkpt><trkpt lat="43.009972334990486" lon="11.29916578429739"><ele>199.16666666666669</ele><time>2026-04-04T13:45:51Z</time></trkpt><trkpt lat="43.009959307451496" lon="11.299043284942924"><ele>197.0</ele><time>2026-04-04T13:45:52Z</time></trkpt><trkpt lat="43.00992106054585" lon="11.298933183982227"><ele>197.0</ele><time>2026-04-04T13:45:53Z</time></trkpt><trkpt lat="43.009848961078966" lon="11.298846811671504"><ele>197.0</ele><time>2026-04-04T13:45:54Z</time></trkpt><trkpt lat="43.009761675233754" lon="11.298806585016276"><ele>197.0</ele><time>2026-04-04T13:45:55Z</time></trkpt><trkpt lat="43.00966342304948" lon="11.298814940922947"><ele>197.0</ele><time>2026-04-04T13:45:56Z</time></trkpt><trkpt lat="43.00958001123717" lon="11.298868122390788"><ele>197.0</ele><time>2026-04-04T13:45:57Z</time></trkpt><trkpt lat="43.00950317775076" lon="11.29893004315396"><ele>197.0</ele><time>2026-04-04T13:45:58Z</time></trkpt><trkpt lat="43.00941745313302" lon="11.298993492755686"><ele>197.0</ele><time>2026-04-04T13:45:59Z</time></trkpt><trkpt lat="43.00933536267471" lon="11.299049379777538"><ele>197.0</ele><time>2026-04-04T13:46:00Z</time></trkpt><trkpt lat="43.0092530983423" lon="11.299096900407328"><ele>197.0</ele><time>2026-04-04T13:46:01Z</time></trkpt><trkpt lat="43.009165216494345" lon="11.299116187047746"><ele>197.0</ele><time>2026-04-04T13:46:02Z</time></trkpt><trkpt lat="43.00908014814454" lon="11.299113703325546"><ele>195.83333333333334</ele><time>2026-04-04T13:46:03Z</time></trkpt><trkpt lat="43.00900225208301" lon="11.299131809622143"><ele>194.66666666666669</ele><time>2026-04-04T13:46:04Z</time></trkpt><trkpt lat="43.00893763804564" lon="11.299184629891556"><ele>193.5</ele><time>2026-04-04T13:46:05Z</time></trkpt><trkpt lat="43.00888195883485" lon="11.299258997233068"><ele>192.33333333333334</ele><time>2026-04-04T13:46:06Z</time></trkpt><trkpt lat="43.008829149386884" lon="11.2993368845357"><ele>191.16666666666669</ele><time>2026-04-04T13:46:07Z</time></trkpt><trkpt lat="43.00876983473916" lon="11.299392199517724"><ele>190.0</ele><time>2026-04-04T13:46:08Z</time></trkpt><trkpt lat="43.00870719652963" lon="11.299450175019608"><ele>190.0</ele><time>2026-04-04T13:46:09Z</time></trkpt><trkpt lat="43.008647772288846" lon="11.299495797135263"><ele>190.0</ele><time>2026-04-04T13:46:10Z</time></trkpt><trkpt lat="43.0085679796227" lon="11.299423111074166"><ele>190.0</ele><time>2026-04-04T13:46:12Z</time></trkpt><trkpt lat="43.00854602751051" lon="11.299317757816024"><ele>190.0</ele><time>2026-04-04T13:46:14Z</time></trkpt><trkpt lat="43.00858506586496" lon="11.299215802727225"><ele>190.0</ele><time>2026-04-04T13:46:17Z</time></trkpt><trkpt lat="43.00860322269347" lon="11.29913030602408"><ele>190.0</ele><time>2026-04-04T13:46:19Z</time></trkpt><trkpt lat="43.00863723031507" lon="11.299020038435065"><ele>188.6</ele><time>2026-04-04T13:46:22Z</time></trkpt><trkpt lat="43.008676150422126" lon="11.298894629125721"><ele>187.2</ele><time>2026-04-04T13:46:26Z</time></trkpt><trkpt lat="43.00870984012433" lon="11.298764774397151"><ele>185.8</ele><time>2026-04-04T13:46:28Z</time></trkpt><trkpt lat="43.008742000284215" lon="11.298660906449092"><ele>184.4</ele><time>2026-04-04T13:46:30Z</time></trkpt><trkpt lat="43.00874439733029" lon="11.298545568577863"><ele>183.0</ele><time>2026-04-04T13:46:32Z</time></trkpt><trkpt lat="43.00873997211247" lon="11.298369506406965"><ele>183.0</ele><time>2026-04-04T13:46:34Z</time></trkpt><trkpt lat="43.0087313543722" lon="11.298225444746642"><ele>183.0</ele><time>2026-04-04T13:46:36Z</time></trkpt><trkpt lat="43.00873973096254" lon="11.29813467260769"><ele>183.0</ele><time>2026-04-04T13:46:37Z</time></trkpt><trkpt lat="43.008753314701266" lon="11.298047705508436"><ele>183.0</ele><time>2026-04-04T13:46:38Z</time></trkpt><trkpt lat="43.00878048472644" lon="11.29796789189401"><ele>183.0</ele><time>2026-04-04T13:46:39Z</time></trkpt><trkpt lat="43.00884368890653" lon="11.297912455151504"><ele>183.0</ele><time>2026-04-04T13:46:40Z</time></trkpt><trkpt lat="43.00887795291195" lon="11.297826825767746"><ele>183.0</ele><time>2026-04-04T13:46:41Z</time></trkpt><trkpt lat="43.00892393849681" lon="11.297750867091608"><ele>181.33333333333334</ele><time>2026-04-04T13:46:42Z</time></trkpt><trkpt lat="43.00897648549068" lon="11.297569048085597"><ele>179.66666666666666</ele><time>2026-04-04T13:46:44Z</time></trkpt><trkpt lat="43.008994341684435" lon="11.297463971287925"><ele>178.0</ele><time>2026-04-04T13:46:45Z</time></trkpt><trkpt lat="43.009009830579146" lon="11.297359869232302"><ele>176.33333333333331</ele><time>2026-04-04T13:46:46Z</time></trkpt><trkpt lat="43.00902248926652" lon="11.297265060889261"><ele>174.66666666666666</ele><time>2026-04-04T13:46:47Z</time></trkpt><trkpt lat="43.009014373951274" lon="11.297168996819037"><ele>173.0</ele><time>2026-04-04T13:46:48Z</time></trkpt><trkpt lat="43.00896039612847" lon="11.297100582152131"><ele>173.0</ele><time>2026-04-04T13:46:49Z</time></trkpt><trkpt lat="43.0088805919285" lon="11.297079057177891"><ele>173.0</ele><time>2026-04-04T13:46:50Z</time></trkpt><trkpt lat="43.00879309024761" lon="11.297095232711229"><ele>173.0</ele><time>2026-04-04T13:46:51Z</time></trkpt><trkpt lat="43.0087092181507" lon="11.297146209927062"><ele>173.0</ele><time>2026-04-04T13:46:52Z</time></trkpt><trkpt lat="43.0086266548945" lon="11.297205199380802"><ele>173.0</ele><time>2026-04-04T13:46:53Z</time></trkpt><trkpt lat="43.00854801001076" lon="11.297262890677514"><ele>173.0</ele><time>2026-04-04T13:46:54Z</time></trkpt><trkpt lat="43.00847207984685" lon="11.297330978681659"><ele>173.0</ele><time>2026-04-04T13:46:55Z</time></trkpt><trkpt lat="43.00838929552073" lon="11.297389936206162"><ele>173.0</ele><time>2026-04-04T13:46:56Z</time></trkpt><trkpt lat="43.00830421992286" lon="11.297431245916282"><ele>173.0</ele><time>2026-04-04T13:46:57Z</time></trkpt><trkpt lat="43.00820309683647" lon="11.297436199680611"><ele>173.0</ele><time>2026-04-04T13:46:58Z</time></trkpt><trkpt lat="43.008122988506656" lon="11.297407521189653"><ele>173.0</ele><time>2026-04-04T13:46:59Z</time></trkpt><trkpt lat="43.00804528316612" lon="11.29735984216792"><ele>172.16666666666666</ele><time>2026-04-04T13:47:00Z</time></trkpt><trkpt lat="43.00796134376396" lon="11.297326220626278"><ele>171.33333333333331</ele><time>2026-04-04T13:47:01Z</time></trkpt><trkpt lat="43.00787189500953" lon="11.297313955875888"><ele>170.5</ele><time>2026-04-04T13:47:02Z</time></trkpt><trkpt lat="43.00778408968654" lon="11.297312683927178"><ele>169.66666666666666</ele><time>2026-04-04T13:47:03Z</time></trkpt><trkpt lat="43.007694320142974" lon="11.297313190877947"><ele>168.83333333333334</ele><time>2026-04-04T13:47:04Z</time></trkpt><trkpt lat="43.00760793498897" lon="11.297309956650327"><ele>168.0</ele><time>2026-04-04T13:47:05Z</time></trkpt><trkpt lat="43.00750698060577" lon="11.2973069860236"><ele>166.60000000000002</ele><time>2026-04-04T13:47:06Z</time></trkpt><trkpt lat="43.0074193483062" lon="11.297306695092832"><ele>165.20000000000002</ele><time>2026-04-04T13:47:07Z</time></trkpt><trkpt lat="43.00732135632585" lon="11.297307709559677"><ele>163.8</ele><time>2026-04-04T13:47:08Z</time></trkpt><trkpt lat="43.00723692497144" lon="11.297305190735285"><ele>162.4</ele><time>2026-04-04T13:47:09Z</time></trkpt><trkpt lat="43.007143068619705" lon="11.297301471535057"><ele>161.0</ele><time>2026-04-04T13:47:10Z</time></trkpt><trkpt lat="43.007055256250574" lon="11.29729469974597"><ele>161.0</ele><time>2026-04-04T13:47:11Z</time></trkpt><trkpt lat="43.00696466026073" lon="11.297289292913375"><ele>161.0</ele><time>2026-04-04T13:47:12Z</time></trkpt><trkpt lat="43.00687955876219" lon="11.297291100019672"><ele>161.0</ele><time>2026-04-04T13:47:13Z</time></trkpt><trkpt lat="43.00678738887654" lon="11.297297487377453"><ele>161.0</ele><time>2026-04-04T13:47:14Z</time></trkpt><trkpt lat="43.0066956507424" lon="11.29731859964547"><ele>161.0</ele><time>2026-04-04T13:47:15Z</time></trkpt><trkpt lat="43.006618269458606" lon="11.29735911769537"><ele>161.0</ele><time>2026-04-04T13:47:16Z</time></trkpt><trkpt lat="43.00655000502372" lon="11.297402570306932"><ele>159.20000000000002</ele><time>2026-04-04T13:47:17Z</time></trkpt><trkpt lat="43.006482134888174" lon="11.297438967841982"><ele>157.4</ele><time>2026-04-04T13:47:18Z</time></trkpt><trkpt lat="43.00642033755035" lon="11.297471610541788"><ele>155.6</ele><time>2026-04-04T13:47:19Z</time></trkpt><trkpt lat="43.00630003366052" lon="11.297513505095484"><ele>153.8</ele><time>2026-04-04T13:47:21Z</time></trkpt><trkpt lat="43.00619541104681" lon="11.297426048688024"><ele>152.0</ele><time>2026-04-04T13:47:23Z</time></trkpt><trkpt lat="43.006186711619684" lon="11.297327677687928"><ele>151.0</ele><time>2026-04-04T13:47:24Z</time></trkpt><trkpt lat="43.0061962440986" lon="11.297231545705941"><ele>150.0</ele><time>2026-04-04T13:47:25Z</time></trkpt><trkpt lat="43.00621164461048" lon="11.29713445700204"><ele>149.0</ele><time>2026-04-04T13:47:26Z</time></trkpt><trkpt lat="43.0062237610944" lon="11.297033126660482"><ele>148.0</ele><time>2026-04-04T13:47:27Z</time></trkpt><trkpt lat="43.00622303530317" lon="11.29693720883219"><ele>147.0</ele><time>2026-04-04T13:47:28Z</time></trkpt><trkpt lat="43.00623138898277" lon="11.296839755398226"><ele>146.0</ele><time>2026-04-04T13:47:29Z</time></trkpt><trkpt lat="43.00625626876049" lon="11.296669126164053"><ele>146.0</ele><time>2026-04-04T13:47:31Z</time></trkpt><trkpt lat="43.00627161958932" lon="11.296529025924675"><ele>146.0</ele><time>2026-04-04T13:47:33Z</time></trkpt><trkpt lat="43.006278509690205" lon="11.296402254016296"><ele>146.0</ele><time>2026-04-04T13:47:35Z</time></trkpt><trkpt lat="43.00625922013972" lon="11.29631870166104"><ele>146.0</ele><time>2026-04-04T13:47:39Z</time></trkpt><trkpt lat="43.00636863375027" lon="11.29619283463304"><ele>146.0</ele><time>2026-04-04T13:48:05Z</time></trkpt><trkpt lat="43.00644072330014" lon="11.296110530404375"><ele>145.8</ele><time>2026-04-04T13:48:07Z</time></trkpt><trkpt lat="43.00650664135094" lon="11.295997049454808"><ele>145.6</ele><time>2026-04-04T13:48:09Z</time></trkpt><trkpt lat="43.0065749923661" lon="11.29588682212"><ele>145.4</ele><time>2026-04-04T13:48:11Z</time></trkpt><trkpt lat="43.00664703727582" lon="11.295789328861389"><ele>145.2</ele><time>2026-04-04T13:48:13Z</time></trkpt><trkpt lat="43.00671142186146" lon="11.295697217968304"><ele>145.0</ele><time>2026-04-04T13:48:15Z</time></trkpt><trkpt lat="43.00679509172432" lon="11.295623610295204"><ele>145.4</ele><time>2026-04-04T13:48:17Z</time></trkpt><trkpt lat="43.006893903396595" lon="11.295563778810594"><ele>145.8</ele><time>2026-04-04T13:48:19Z</time></trkpt><trkpt lat="43.006960388336736" lon="11.295546147443398"><ele>146.2</ele><time>2026-04-04T13:48:20Z</time></trkpt><trkpt lat="43.00707310161862" lon="11.295518106990126"><ele>146.6</ele><time>2026-04-04T13:48:22Z</time></trkpt><trkpt lat="43.007185902030116" lon="11.295499341846726"><ele>147.0</ele><time>2026-04-04T13:48:24Z</time></trkpt><trkpt lat="43.00729611771455" lon="11.295497879586176"><ele>147.0</ele><time>2026-04-04T13:48:26Z</time></trkpt><trkpt lat="43.007410241364674" lon="11.295517180420775"><ele>147.0</ele><time>2026-04-04T13:48:28Z</time></trkpt><trkpt lat="43.00747297948987" lon="11.29554259535765"><ele>147.0</ele><time>2026-04-04T13:48:29Z</time></trkpt><trkpt lat="43.00758707023014" lon="11.295572935672736"><ele>147.0</ele><time>2026-04-04T13:48:31Z</time></trkpt><trkpt lat="43.0076543820212" lon="11.295609932513058"><ele>147.0</ele><time>2026-04-04T13:48:32Z</time></trkpt><trkpt lat="43.007719041724584" lon="11.29561594921341"><ele>147.0</ele><time>2026-04-04T13:48:33Z</time></trkpt><trkpt lat="43.00783146069058" lon="11.295647425794872"><ele>148.6</ele><time>2026-04-04T13:48:35Z</time></trkpt><trkpt lat="43.00794811678077" lon="11.295686302380137"><ele>150.2</ele><time>2026-04-04T13:48:37Z</time></trkpt><trkpt lat="43.00801264349948" lon="11.295698750102138"><ele>151.8</ele><time>2026-04-04T13:48:38Z</time></trkpt><trkpt lat="43.00813095391983" lon="11.295683588606408"><ele>153.4</ele><time>2026-04-04T13:48:40Z</time></trkpt><trkpt lat="43.00826199784482" lon="11.29566453597173"><ele>155.0</ele><time>2026-04-04T13:48:42Z</time></trkpt><trkpt lat="43.0083232817497" lon="11.295640047049934"><ele>154.6</ele><time>2026-04-04T13:48:43Z</time></trkpt><trkpt lat="43.00842414004533" lon="11.29557437129059"><ele>154.2</ele><time>2026-04-04T13:48:45Z</time></trkpt><trkpt lat="43.00849488039871" lon="11.2955137353786"><ele>153.8</ele><time>2026-04-04T13:48:47Z</time></trkpt><trkpt lat="43.008564441434565" lon="11.295420034396459"><ele>153.4</ele><time>2026-04-04T13:48:49Z</time></trkpt><trkpt lat="43.00860755016715" lon="11.295296484778323"><ele>153.0</ele><time>2026-04-04T13:48:51Z</time></trkpt><trkpt lat="43.00861900472835" lon="11.29521115348968"><ele>153.0</ele><time>2026-04-04T13:48:52Z</time></trkpt><trkpt lat="43.00860045152148" lon="11.29506080866396"><ele>153.0</ele><time>2026-04-04T13:48:54Z</time></trkpt><trkpt lat="43.008607028397755" lon="11.294924795700092"><ele>153.0</ele><time>2026-04-04T13:48:56Z</time></trkpt><trkpt lat="43.00859080316592" lon="11.294784349272193"><ele>153.0</ele><time>2026-04-04T13:48:58Z</time></trkpt><trkpt lat="43.0085843751326" lon="11.294652552893675"><ele>153.0</ele><time>2026-04-04T13:49:00Z</time></trkpt><trkpt lat="43.008599008866966" lon="11.294530059725332"><ele>153.20000000000002</ele><time>2026-04-04T13:49:02Z</time></trkpt><trkpt lat="43.008632850642826" lon="11.294420138811056"><ele>153.4</ele><time>2026-04-04T13:49:04Z</time></trkpt><trkpt lat="43.00867455661023" lon="11.294293484880196"><ele>153.60000000000002</ele><time>2026-04-04T13:49:06Z</time></trkpt><trkpt lat="43.00873429765814" lon="11.294176473372673"><ele>153.8</ele><time>2026-04-04T13:49:08Z</time></trkpt><trkpt lat="43.00879263806573" lon="11.294050559673204"><ele>154.0</ele><time>2026-04-04T13:49:10Z</time></trkpt><trkpt lat="43.0088734114963" lon="11.293935179092319"><ele>154.33333333333334</ele><time>2026-04-04T13:49:12Z</time></trkpt><trkpt lat="43.00894977384533" lon="11.293806717629572"><ele>154.66666666666669</ele><time>2026-04-04T13:49:14Z</time></trkpt><trkpt lat="43.008991266264054" lon="11.293735703229842"><ele>155.0</ele><time>2026-04-04T13:49:15Z</time></trkpt><trkpt lat="43.00905940050761" lon="11.293586351062073"><ele>155.33333333333334</ele><time>2026-04-04T13:49:17Z</time></trkpt><trkpt lat="43.0090985456386" lon="11.293509936677484"><ele>155.66666666666666</ele><time>2026-04-04T13:49:18Z</time></trkpt><trkpt lat="43.00913389328405" lon="11.293438287162916"><ele>156.0</ele><time>2026-04-04T13:49:19Z</time></trkpt><trkpt lat="43.00919840462952" lon="11.293299691253758"><ele>156.0</ele><time>2026-04-04T13:49:21Z</time></trkpt><trkpt lat="43.0092334137054" lon="11.293226473250568"><ele>156.0</ele><time>2026-04-04T13:49:22Z</time></trkpt><trkpt lat="43.009305201266656" lon="11.293089985385848"><ele>156.0</ele><time>2026-04-04T13:49:24Z</time></trkpt><trkpt lat="43.00937090368508" lon="11.292933431010143"><ele>156.0</ele><time>2026-04-04T13:49:26Z</time></trkpt><trkpt lat="43.009387149771584" lon="11.292842086512932"><ele>156.0</ele><time>2026-04-04T13:49:27Z</time></trkpt><trkpt lat="43.00943062589301" lon="11.29277181684663"><ele>156.0</ele><time>2026-04-04T13:49:28Z</time></trkpt><trkpt lat="43.00945961763423" lon="11.292685360783853"><ele>156.0</ele><time>2026-04-04T13:49:29Z</time></trkpt><trkpt lat="43.00947330241436" lon="11.292597164504175"><ele>156.0</ele><time>2026-04-04T13:49:30Z</time></trkpt><trkpt lat="43.00949979933841" lon="11.292518701858002"><ele>156.0</ele><time>2026-04-04T13:49:31Z</time></trkpt><trkpt lat="43.009545652461945" lon="11.292382520972438"><ele>156.0</ele><time>2026-04-04T13:49:33Z</time></trkpt><trkpt lat="43.009567552383345" lon="11.292240589751302"><ele>156.0</ele><time>2026-04-04T13:49:35Z</time></trkpt><trkpt lat="43.00957085234058" lon="11.292119257204178"><ele>156.0</ele><time>2026-04-04T13:49:37Z</time></trkpt><trkpt lat="43.009588738679426" lon="11.292015370484258"><ele>156.0</ele><time>2026-04-04T13:49:39Z</time></trkpt><trkpt lat="43.00960038091561" lon="11.291898364082403"><ele>156.0</ele><time>2026-04-04T13:49:41Z</time></trkpt><trkpt lat="43.00960986163098" lon="11.291803081306956"><ele>156.0</ele><time>2026-04-04T13:49:43Z</time></trkpt><trkpt lat="43.009848349508296" lon="11.291793838223276"><ele>156.0</ele><time>2026-04-04T13:49:44Z</time></trkpt><trkpt lat="43.00993594667623" lon="11.291701795741481"><ele>156.0</ele><time>2026-04-04T13:49:46Z</time></trkpt><trkpt lat="43.00998731354225" lon="11.291580326608432"><ele>156.0</ele><time>2026-04-04T13:49:48Z</time></trkpt><trkpt lat="43.01005083908836" lon="11.291455354223608"><ele>156.0</ele><time>2026-04-04T13:49:50Z</time></trkpt><trkpt lat="43.0101195089563" lon="11.291322502586288"><ele>156.0</ele><time>2026-04-04T13:49:52Z</time></trkpt><trkpt lat="43.010191926575224" lon="11.291188977766174"><ele>155.6</ele><time>2026-04-04T13:49:54Z</time></trkpt><trkpt lat="43.01026047952663" lon="11.291059068340346"><ele>155.2</ele><time>2026-04-04T13:49:56Z</time></trkpt><trkpt lat="43.01032333987902" lon="11.290930862286597"><ele>154.8</ele><time>2026-04-04T13:49:58Z</time></trkpt><trkpt lat="43.01038518271658" lon="11.290817903864657"><ele>154.4</ele><time>2026-04-04T13:50:00Z</time></trkpt><trkpt lat="43.010439772761714" lon="11.290710323711378"><ele>154.0</ele><time>2026-04-04T13:50:02Z</time></trkpt><trkpt lat="43.01049061362234" lon="11.290623349361374"><ele>154.16666666666669</ele><time>2026-04-04T13:50:04Z</time></trkpt><trkpt lat="43.010560997003935" lon="11.290554703714795"><ele>154.33333333333334</ele><time>2026-04-04T13:50:06Z</time></trkpt><trkpt lat="43.01064307254903" lon="11.290533066240608"><ele>154.5</ele><time>2026-04-04T13:50:08Z</time></trkpt><trkpt lat="43.01069619525981" lon="11.290476611403433"><ele>154.66666666666666</ele><time>2026-04-04T13:50:10Z</time></trkpt><trkpt lat="43.01076184652046" lon="11.290416686991716"><ele>154.83333333333331</ele><time>2026-04-04T13:50:12Z</time></trkpt><trkpt lat="43.0108287305019" lon="11.290335396102805"><ele>155.0</ele><time>2026-04-04T13:50:15.001Z</time></trkpt><trkpt lat="43.01086516733679" lon="11.290219740872628"><ele>155.0</ele><time>2026-04-04T13:50:17.001Z</time></trkpt><trkpt lat="43.010906871060726" lon="11.29009692973565"><ele>155.0</ele><time>2026-04-04T13:50:19Z</time></trkpt><trkpt lat="43.01091801033069" lon="11.28998211683963"><ele>155.0</ele><time>2026-04-04T13:50:21Z</time></trkpt><trkpt lat="43.01091800834874" lon="11.289854920950829"><ele>155.0</ele><time>2026-04-04T13:50:24Z</time></trkpt><trkpt lat="43.01093639871118" lon="11.289706097393866"><ele>155.0</ele><time>2026-04-04T13:50:26Z</time></trkpt><trkpt lat="43.01096956308913" lon="11.289628726864825"><ele>156.57142857142858</ele><time>2026-04-04T13:50:27Z</time></trkpt><trkpt lat="43.01099928044037" lon="11.289549890551456"><ele>158.14285714285714</ele><time>2026-04-04T13:50:28Z</time></trkpt><trkpt lat="43.011025461385216" lon="11.28946643564069"><ele>159.71428571428572</ele><time>2026-04-04T13:50:29Z</time></trkpt><trkpt lat="43.01105357301262" lon="11.28938125616629"><ele>161.28571428571428</ele><time>2026-04-04T13:50:30Z</time></trkpt><trkpt lat="43.011072769688276" lon="11.289236556918057"><ele>162.85714285714286</ele><time>2026-04-04T13:50:32Z</time></trkpt><trkpt lat="43.01107487619545" lon="11.28914719082835"><ele>164.42857142857142</ele><time>2026-04-04T13:51:00Z</time></trkpt><trkpt lat="43.01109713273996" lon="11.289046979991532"><ele>166.0</ele><time>2026-04-04T13:51:02Z</time></trkpt><trkpt lat="43.01115457357248" lon="11.288956515711789"><ele>169.4</ele><time>2026-04-04T13:51:04Z</time></trkpt><trkpt lat="43.01124561826088" lon="11.288897085968582"><ele>172.8</ele><time>2026-04-04T13:51:06.001Z</time></trkpt><trkpt lat="43.01134034999401" lon="11.28885629014785"><ele>176.20000000000002</ele><time>2026-04-04T13:51:08.001Z</time></trkpt><trkpt lat="43.01142945147196" lon="11.288827086163883"><ele>179.60000000000002</ele><time>2026-04-04T13:51:10.001Z</time></trkpt><trkpt lat="43.01152693866762" lon="11.288810444232874"><ele>183.0</ele><time>2026-04-04T13:51:12.001Z</time></trkpt><trkpt lat="43.011634856405514" lon="11.288800201519892"><ele>182.75</ele><time>2026-04-04T13:51:14.001Z</time></trkpt><trkpt lat="43.01174813132293" lon="11.288788721874594"><ele>182.5</ele><time>2026-04-04T13:51:16.001Z</time></trkpt><trkpt lat="43.0118575368172" lon="11.288790513875979"><ele>182.25</ele><time>2026-04-04T13:51:18.001Z</time></trkpt><trkpt lat="43.01197859108737" lon="11.2887917881409"><ele>182.0</ele><time>2026-04-04T13:51:20.001Z</time></trkpt><trkpt lat="43.01209865152138" lon="11.288814698808002"><ele>182.0</ele><time>2026-04-04T13:51:22.001Z</time></trkpt><trkpt lat="43.01221447929974" lon="11.288829938318225"><ele>182.0</ele><time>2026-04-04T13:51:24Z</time></trkpt><trkpt lat="43.012327403499135" lon="11.288844885306727"><ele>182.0</ele><time>2026-04-04T13:51:26Z</time></trkpt><trkpt lat="43.012440059420946" lon="11.28887095535661"><ele>182.0</ele><time>2026-04-04T13:51:28Z</time></trkpt><trkpt lat="43.01255872528364" lon="11.2889053774899"><ele>183.0</ele><time>2026-04-04T13:51:30Z</time></trkpt><trkpt lat="43.01262286066086" lon="11.288923851775788"><ele>184.0</ele><time>2026-04-04T13:51:31Z</time></trkpt><trkpt lat="43.0127427446615" lon="11.288946364668957"><ele>185.0</ele><time>2026-04-04T13:51:33Z</time></trkpt><trkpt lat="43.01286100432852" lon="11.2889556457859"><ele>186.0</ele><time>2026-04-04T13:51:35Z</time></trkpt><trkpt lat="43.012965556355525" lon="11.288960292550465"><ele>187.0</ele><time>2026-04-04T13:51:37Z</time></trkpt><trkpt lat="43.013067773303646" lon="11.288976102929565"><ele>186.6</ele><time>2026-04-04T13:51:39Z</time></trkpt><trkpt lat="43.01316738271547" lon="11.288992992899045"><ele>186.2</ele><time>2026-04-04T13:51:41Z</time></trkpt><trkpt lat="43.013281648385046" lon="11.288964630696189"><ele>185.8</ele><time>2026-04-04T13:51:43Z</time></trkpt><trkpt lat="43.01334074546426" lon="11.28893462122131"><ele>185.4</ele><time>2026-04-04T13:51:44Z</time></trkpt><trkpt lat="43.013402291632275" lon="11.288911300501962"><ele>185.0</ele><time>2026-04-04T13:51:45Z</time></trkpt><trkpt lat="43.013519047628776" lon="11.2888930117838"><ele>185.0</ele><time>2026-04-04T13:51:47Z</time></trkpt><trkpt lat="43.013630452432665" lon="11.288861789636874"><ele>185.0</ele><time>2026-04-04T13:51:49Z</time></trkpt><trkpt lat="43.013747716252816" lon="11.288828341389035"><ele>185.0</ele><time>2026-04-04T13:51:51Z</time></trkpt><trkpt lat="43.01383040225366" lon="11.288812818433358"><ele>185.0</ele><time>2026-04-04T13:51:53Z</time></trkpt><trkpt lat="43.013922659845804" lon="11.288760785541845"><ele>185.0</ele><time>2026-04-04T13:51:55Z</time></trkpt><trkpt lat="43.01402292800637" lon="11.288680266852307"><ele>185.0</ele><time>2026-04-04T13:51:57Z</time></trkpt><trkpt lat="43.014122709508406" lon="11.288589540303304"><ele>185.0</ele><time>2026-04-04T13:51:59Z</time></trkpt><trkpt lat="43.01418150625941" lon="11.288506244324614"><ele>185.0</ele><time>2026-04-04T13:52:01Z</time></trkpt><trkpt lat="43.01423973244108" lon="11.288382396397571"><ele>185.0</ele><time>2026-04-04T13:52:03Z</time></trkpt><trkpt lat="43.01427987815888" lon="11.288242345103932"><ele>185.0</ele><time>2026-04-04T13:52:05Z</time></trkpt><trkpt lat="43.01431694472627" lon="11.288090469903567"><ele>183.0</ele><time>2026-04-04T13:52:07Z</time></trkpt><trkpt lat="43.01433530344983" lon="11.287943542268208"><ele>181.0</ele><time>2026-04-04T13:52:09Z</time></trkpt><trkpt lat="43.014321545249" lon="11.28780757915366"><ele>179.0</ele><time>2026-04-04T13:52:11Z</time></trkpt><trkpt lat="43.01426202259418" lon="11.287746029389647"><ele>177.0</ele><time>2026-04-04T13:52:14Z</time></trkpt><trkpt lat="43.01417268627127" lon="11.287753360771815"><ele>175.0</ele><time>2026-04-04T13:52:16Z</time></trkpt><trkpt lat="43.01407519117102" lon="11.287804135286027"><ele>175.0</ele><time>2026-04-04T13:52:18Z</time></trkpt><trkpt lat="43.01397217364325" lon="11.287855004672645"><ele>175.0</ele><time>2026-04-04T13:52:20Z</time></trkpt><trkpt lat="43.013864806537676" lon="11.287893412593002"><ele>175.0</ele><time>2026-04-04T13:52:22Z</time></trkpt><trkpt lat="43.013778695513494" lon="11.28799188408449"><ele>175.0</ele><time>2026-04-04T13:52:24Z</time></trkpt><trkpt lat="43.01367933167776" lon="11.28801062786569"><ele>175.0</ele><time>2026-04-04T13:52:26Z</time></trkpt><trkpt lat="43.013580847222165" lon="11.288020305680403"><ele>175.0</ele><time>2026-04-04T13:52:28Z</time></trkpt><trkpt lat="43.01349434854835" lon="11.288045226963476"><ele>175.0</ele><time>2026-04-04T13:52:30Z</time></trkpt><trkpt lat="43.01341776499822" lon="11.288063172074061"><ele>175.0</ele><time>2026-04-04T13:52:32Z</time></trkpt><trkpt lat="43.013346074703314" lon="11.288092740536326"><ele>175.0</ele><time>2026-04-04T13:52:34Z</time></trkpt><trkpt lat="43.01328001215183" lon="11.288100114061246"><ele>175.0</ele><time>2026-04-04T13:52:37Z</time></trkpt><trkpt lat="43.013209305086875" lon="11.28814353071929"><ele>175.0</ele><time>2026-04-04T13:54:08Z</time></trkpt><trkpt lat="43.013109022719846" lon="11.288158448405541"><ele>177.0</ele><time>2026-04-04T13:54:10Z</time></trkpt><trkpt lat="43.01303895717651" lon="11.288154820741019"><ele>179.0</ele><time>2026-04-04T13:54:11Z</time></trkpt><trkpt lat="43.01297081049325" lon="11.288155473164997"><ele>181.0</ele><time>2026-04-04T13:54:12Z</time></trkpt><trkpt lat="43.01290510220732" lon="11.28817030256844"><ele>183.0</ele><time>2026-04-04T13:54:13Z</time></trkpt><trkpt lat="43.01284194455383" lon="11.288170093119422"><ele>185.0</ele><time>2026-04-04T13:54:14Z</time></trkpt><trkpt lat="43.01272948581387" lon="11.288158006112614"><ele>187.0</ele><time>2026-04-04T13:54:16Z</time></trkpt><trkpt lat="43.01260732374816" lon="11.288140406168251"><ele>187.0</ele><time>2026-04-04T13:54:18Z</time></trkpt><trkpt lat="43.012538874338" lon="11.288129296342749"><ele>187.0</ele><time>2026-04-04T13:54:19Z</time></trkpt><trkpt lat="43.012460459972225" lon="11.28811313872198"><ele>187.0</ele><time>2026-04-04T13:54:20Z</time></trkpt><trkpt lat="43.01236999389105" lon="11.288094238590253"><ele>187.0</ele><time>2026-04-04T13:54:21Z</time></trkpt><trkpt lat="43.01228234015247" lon="11.288071821662653"><ele>187.0</ele><time>2026-04-04T13:54:22Z</time></trkpt><trkpt lat="43.01219333538042" lon="11.288049936005038"><ele>187.0</ele><time>2026-04-04T13:54:23Z</time></trkpt><trkpt lat="43.01211145703145" lon="11.288026879169486"><ele>187.0</ele><time>2026-04-04T13:54:24Z</time></trkpt><trkpt lat="43.01202674786752" lon="11.288002762067423"><ele>187.0</ele><time>2026-04-04T13:54:25Z</time></trkpt><trkpt lat="43.011936343645985" lon="11.287977170560577"><ele>187.0</ele><time>2026-04-04T13:54:26Z</time></trkpt><trkpt lat="43.01184084472197" lon="11.28795024878139"><ele>187.0</ele><time>2026-04-04T13:54:27Z</time></trkpt><trkpt lat="43.01174957350873" lon="11.287925003053681"><ele>187.0</ele><time>2026-04-04T13:54:28Z</time></trkpt><trkpt lat="43.011653763748356" lon="11.287899044735294"><ele>189.6</ele><time>2026-04-04T13:54:29Z</time></trkpt><trkpt lat="43.01156606373197" lon="11.287875201515702"><ele>192.2</ele><time>2026-04-04T13:54:30Z</time></trkpt><trkpt lat="43.01146233460895" lon="11.287846751568912"><ele>194.8</ele><time>2026-04-04T13:54:31Z</time></trkpt><trkpt lat="43.01136069996946" lon="11.287818876029286"><ele>197.4</ele><time>2026-04-04T13:54:32Z</time></trkpt><trkpt lat="43.011238103678664" lon="11.287787535015756"><ele>200.0</ele><time>2026-04-04T13:54:33Z</time></trkpt><trkpt lat="43.011124603655944" lon="11.28776045657231"><ele>200.0</ele><time>2026-04-04T13:54:34Z</time></trkpt><trkpt lat="43.01100079332221" lon="11.28773392540532"><ele>200.0</ele><time>2026-04-04T13:54:35Z</time></trkpt><trkpt lat="43.010876236294074" lon="11.287708319702606"><ele>200.0</ele><time>2026-04-04T13:54:36Z</time></trkpt><trkpt lat="43.01076352395292" lon="11.287689047143013"><ele>200.0</ele><time>2026-04-04T13:54:37Z</time></trkpt><trkpt lat="43.01064955120151" lon="11.287669559080628"><ele>200.75</ele><time>2026-04-04T13:54:38Z</time></trkpt><trkpt lat="43.01052448461992" lon="11.287651034112637"><ele>201.5</ele><time>2026-04-04T13:54:39Z</time></trkpt><trkpt lat="43.010420033466765" lon="11.287637556565887"><ele>202.25</ele><time>2026-04-04T13:54:40Z</time></trkpt><trkpt lat="43.01030348932161" lon="11.287622987178073"><ele>203.0</ele><time>2026-04-04T13:54:41Z</time></trkpt><trkpt lat="43.01019687307145" lon="11.287611396896628"><ele>203.0</ele><time>2026-04-04T13:54:42Z</time></trkpt><trkpt lat="43.010086830093975" lon="11.28760174677804"><ele>203.0</ele><time>2026-04-04T13:54:43Z</time></trkpt><trkpt lat="43.009966328353364" lon="11.287593636174801"><ele>203.0</ele><time>2026-04-04T13:54:44Z</time></trkpt><trkpt lat="43.00985077452312" lon="11.287588711333084"><ele>203.0</ele><time>2026-04-04T13:54:45Z</time></trkpt><trkpt lat="43.00974165026788" lon="11.28758705793805"><ele>198.75</ele><time>2026-04-04T13:54:46Z</time></trkpt><trkpt lat="43.00962454706858" lon="11.287586508579832"><ele>194.5</ele><time>2026-04-04T13:54:47Z</time></trkpt><trkpt lat="43.009519002901484" lon="11.287587621576673"><ele>190.25</ele><time>2026-04-04T13:54:48Z</time></trkpt><trkpt lat="43.00940733065315" lon="11.287590469490238"><ele>186.0</ele><time>2026-04-04T13:54:49Z</time></trkpt><trkpt lat="43.00929152286517" lon="11.28759486727464"><ele>186.0</ele><time>2026-04-04T13:54:50Z</time></trkpt><trkpt lat="43.00917145717844" lon="11.287602882789091"><ele>186.0</ele><time>2026-04-04T13:54:51Z</time></trkpt><trkpt lat="43.00906395333881" lon="11.2876097668839"><ele>186.0</ele><time>2026-04-04T13:54:52Z</time></trkpt><trkpt lat="43.00894327898796" lon="11.28761754441558"><ele>186.0</ele><time>2026-04-04T13:54:53Z</time></trkpt><trkpt lat="43.00882768521608" lon="11.28762793118894"><ele>191.25</ele><time>2026-04-04T13:54:54Z</time></trkpt><trkpt lat="43.00871247149431" lon="11.287638283837953"><ele>196.5</ele><time>2026-04-04T13:54:55Z</time></trkpt><trkpt lat="43.0085919935667" lon="11.287649109470303"><ele>201.75</ele><time>2026-04-04T13:54:56Z</time></trkpt><trkpt lat="43.00847438578305" lon="11.28765967721335"><ele>207.0</ele><time>2026-04-04T13:54:57Z</time></trkpt><trkpt lat="43.008356331409345" lon="11.287670285076944"><ele>210.8</ele><time>2026-04-04T13:54:58Z</time></trkpt><trkpt lat="43.00824245172101" lon="11.287680517842066"><ele>214.6</ele><time>2026-04-04T13:54:59Z</time></trkpt><trkpt lat="43.00813289574654" lon="11.287690348365429"><ele>218.40000000000003</ele><time>2026-04-04T13:55:00Z</time></trkpt><trkpt lat="43.00803234183042" lon="11.287698945904456"><ele>222.20000000000002</ele><time>2026-04-04T13:55:01Z</time></trkpt><trkpt lat="43.00793447365114" lon="11.287707419501933"><ele>226.0</ele><time>2026-04-04T13:55:02Z</time></trkpt><trkpt lat="43.0078531567731" lon="11.287714876369233"><ele>225.99999999999997</ele><time>2026-04-04T13:55:03Z</time></trkpt><trkpt lat="43.00778856779479" lon="11.287720799266896"><ele>226.0</ele><time>2026-04-04T13:55:04Z</time></trkpt><trkpt lat="43.007717060575665" lon="11.287728403913388"><ele>226.0</ele><time>2026-04-04T13:55:05Z</time></trkpt><trkpt lat="43.007632054432506" lon="11.28772029632859"><ele>226.0</ele><time>2026-04-04T13:55:06Z</time></trkpt><trkpt lat="43.00752545769339" lon="11.28770231670134"><ele>225.99999999999997</ele><time>2026-04-04T13:55:07Z</time></trkpt><trkpt lat="43.00741362394724" lon="11.287722451006"><ele>226.0</ele><time>2026-04-04T13:55:08Z</time></trkpt><trkpt lat="43.00730506119275" lon="11.287738348849663"><ele>222.75</ele><time>2026-04-04T13:55:09Z</time></trkpt><trkpt lat="43.007193707108186" lon="11.287754673572017"><ele>219.5</ele><time>2026-04-04T13:55:10Z</time></trkpt><trkpt lat="43.00707826650359" lon="11.287764078614847"><ele>216.25</ele><time>2026-04-04T13:55:11Z</time></trkpt><trkpt lat="43.006965179623926" lon="11.287772304069543"><ele>213.0</ele><time>2026-04-04T13:55:12Z</time></trkpt><trkpt lat="43.006846280393795" lon="11.287780305824086"><ele>213.0</ele><time>2026-04-04T13:55:13Z</time></trkpt><trkpt lat="43.00672428332033" lon="11.287790875740455"><ele>213.0</ele><time>2026-04-04T13:55:14Z</time></trkpt><trkpt lat="43.00660996385135" lon="11.287802203427846"><ele>213.0</ele><time>2026-04-04T13:55:15Z</time></trkpt><trkpt lat="43.006497946976445" lon="11.28781136446459"><ele>213.0</ele><time>2026-04-04T13:55:16Z</time></trkpt><trkpt lat="43.00638610172473" lon="11.287823710953194"><ele>215.25</ele><time>2026-04-04T13:55:17Z</time></trkpt><trkpt lat="43.0062652063752" lon="11.287833682633572"><ele>217.5</ele><time>2026-04-04T13:55:18Z</time></trkpt><trkpt lat="43.006143805200836" lon="11.287844972513348"><ele>219.75</ele><time>2026-04-04T13:55:19Z</time></trkpt><trkpt lat="43.00602184546128" lon="11.287856186976436"><ele>222.0</ele><time>2026-04-04T13:55:20Z</time></trkpt><trkpt lat="43.005903076682195" lon="11.287865420731036"><ele>224.5</ele><time>2026-04-04T13:55:21Z</time></trkpt><trkpt lat="43.00578516464805" lon="11.287875428397559"><ele>227.0</ele><time>2026-04-04T13:55:22Z</time></trkpt><trkpt lat="43.00566305300715" lon="11.287885644770643"><ele>229.5</ele><time>2026-04-04T13:55:23Z</time></trkpt><trkpt lat="43.00553785143701" lon="11.287898274817142"><ele>232.0</ele><time>2026-04-04T13:55:24Z</time></trkpt><trkpt lat="43.00541387264461" lon="11.287908123839104"><ele>232.0</ele><time>2026-04-04T13:55:25Z</time></trkpt><trkpt lat="43.0052897781471" lon="11.287918823968898"><ele>232.0</ele><time>2026-04-04T13:55:26Z</time></trkpt><trkpt lat="43.00516431322738" lon="11.28793260610936"><ele>232.0</ele><time>2026-04-04T13:55:27Z</time></trkpt><trkpt lat="43.005038413964876" lon="11.287946411863201"><ele>232.0</ele><time>2026-04-04T13:55:28Z</time></trkpt><trkpt lat="43.00490835391154" lon="11.287954992678893"><ele>231.5</ele><time>2026-04-04T13:55:29Z</time></trkpt><trkpt lat="43.004774315914176" lon="11.287964999910187"><ele>231.0</ele><time>2026-04-04T13:55:30Z</time></trkpt><trkpt lat="43.00464155366012" lon="11.28797703501236"><ele>230.5</ele><time>2026-04-04T13:55:31Z</time></trkpt><trkpt lat="43.004505293488535" lon="11.28799143895723"><ele>230.0</ele><time>2026-04-04T13:55:32Z</time></trkpt><trkpt lat="43.00437104268883" lon="11.288003002255746"><ele>230.0</ele><time>2026-04-04T13:55:33Z</time></trkpt><trkpt lat="43.004240054261196" lon="11.288015151511026"><ele>230.0</ele><time>2026-04-04T13:55:34Z</time></trkpt><trkpt lat="43.00410290709562" lon="11.288026365501683"><ele>230.0</ele><time>2026-04-04T13:55:35Z</time></trkpt><trkpt lat="43.00396727352195" lon="11.288034682513814"><ele>230.0</ele><time>2026-04-04T13:55:36Z</time></trkpt><trkpt lat="43.00383524915913" lon="11.288040993053135"><ele>234.25</ele><time>2026-04-04T13:55:37Z</time></trkpt><trkpt lat="43.00369979102965" lon="11.28804034273223"><ele>238.5</ele><time>2026-04-04T13:55:38Z</time></trkpt><trkpt lat="43.00356263426399" lon="11.288036957480319"><ele>242.75</ele><time>2026-04-04T13:55:39Z</time></trkpt><trkpt lat="43.00342811908357" lon="11.288030303994343"><ele>247.0</ele><time>2026-04-04T13:55:40Z</time></trkpt><trkpt lat="43.00329301035448" lon="11.288024004250722"><ele>249.0</ele><time>2026-04-04T13:55:41Z</time></trkpt><trkpt lat="43.003162813288164" lon="11.288006487750843"><ele>251.0</ele><time>2026-04-04T13:55:42Z</time></trkpt><trkpt lat="43.00302967289374" lon="11.28798804065297"><ele>253.0</ele><time>2026-04-04T13:55:43Z</time></trkpt><trkpt lat="43.002899730011706" lon="11.287967448457433"><ele>255.0</ele><time>2026-04-04T13:55:44Z</time></trkpt><trkpt lat="43.00276399425731" lon="11.287941783619686"><ele>255.0</ele><time>2026-04-04T13:55:45Z</time></trkpt><trkpt lat="43.00262989017026" lon="11.287908845913714"><ele>255.0</ele><time>2026-04-04T13:55:46Z</time></trkpt><trkpt lat="43.00249705540541" lon="11.287873859004694"><ele>255.0</ele><time>2026-04-04T13:55:47Z</time></trkpt><trkpt lat="43.002366995811606" lon="11.287833598184562"><ele>255.0</ele><time>2026-04-04T13:55:48Z</time></trkpt><trkpt lat="43.002232162815496" lon="11.287795505708065"><ele>256.5</ele><time>2026-04-04T13:55:49Z</time></trkpt><trkpt lat="43.002097503673966" lon="11.287761500888827"><ele>258.0</ele><time>2026-04-04T13:55:50Z</time></trkpt><trkpt lat="43.001964859687305" lon="11.28772678802847"><ele>259.5</ele><time>2026-04-04T13:55:51Z</time></trkpt><trkpt lat="43.00183660296624" lon="11.287696896811617"><ele>261.0</ele><time>2026-04-04T13:55:52Z</time></trkpt><trkpt lat="43.00170540665438" lon="11.287666910584488"><ele>260.0</ele><time>2026-04-04T13:55:53Z</time></trkpt><trkpt lat="43.001568370118186" lon="11.287634112450206"><ele>259.0</ele><time>2026-04-04T13:55:54Z</time></trkpt><trkpt lat="43.001413974606315" lon="11.287602474642306"><ele>258.0</ele><time>2026-04-04T13:55:55Z</time></trkpt><trkpt lat="43.00125281599841" lon="11.287567515901612"><ele>258.0</ele><time>2026-04-04T13:55:56Z</time></trkpt><trkpt lat="43.00107904095077" lon="11.28752354355257"><ele>258.0</ele><time>2026-04-04T13:55:57Z</time></trkpt><trkpt lat="43.00091884485532" lon="11.287477945966767"><ele>258.0</ele><time>2026-04-04T13:55:58Z</time></trkpt><trkpt lat="43.00074992353605" lon="11.287429666456143"><ele>258.0</ele><time>2026-04-04T13:55:59Z</time></trkpt><trkpt lat="43.00058968049423" lon="11.287382165596682"><ele>258.0</ele><time>2026-04-04T13:56:00Z</time></trkpt><trkpt lat="43.00043869023455" lon="11.287340245187835"><ele>258.0</ele><time>2026-04-04T13:56:01Z</time></trkpt><trkpt lat="43.00028737704765" lon="11.287304283903264"><ele>258.0</ele><time>2026-04-04T13:56:02Z</time></trkpt><trkpt lat="43.000136905934454" lon="11.28727073056962"><ele>258.0</ele><time>2026-04-04T13:56:03Z</time></trkpt><trkpt lat="42.99998654477336" lon="11.287236410883008"><ele>258.0</ele><time>2026-04-04T13:56:04Z</time></trkpt><trkpt lat="42.99983991170679" lon="11.287209897832458"><ele>265.0</ele><time>2026-04-04T13:56:05Z</time></trkpt><trkpt lat="42.99968937237757" lon="11.287187457354959"><ele>272.0</ele><time>2026-04-04T13:56:06Z</time></trkpt><trkpt lat="42.999539843441276" lon="11.287171882860203"><ele>279.0</ele><time>2026-04-04T13:56:07Z</time></trkpt><trkpt lat="42.999386148012775" lon="11.287155411466513"><ele>279.0</ele><time>2026-04-04T13:56:08Z</time></trkpt><trkpt lat="42.99923628313673" lon="11.28714307670669"><ele>279.0</ele><time>2026-04-04T13:56:09Z</time></trkpt><trkpt lat="42.999087126980264" lon="11.287140045216056"><ele>279.0</ele><time>2026-04-04T13:56:10Z</time></trkpt><trkpt lat="42.99893631424442" lon="11.287146757290607"><ele>277.6666666666667</ele><time>2026-04-04T13:56:11Z</time></trkpt><trkpt lat="42.99878542910461" lon="11.287164918345752"><ele>276.33333333333337</ele><time>2026-04-04T13:56:12Z</time></trkpt><trkpt lat="42.99863217038734" lon="11.287191131524008"><ele>275.0</ele><time>2026-04-04T13:56:13Z</time></trkpt><trkpt lat="42.99847946194341" lon="11.287221659621974"><ele>273.6666666666667</ele><time>2026-04-04T13:56:14Z</time></trkpt><trkpt lat="42.99833277262118" lon="11.287284246038034"><ele>272.3333333333333</ele><time>2026-04-04T13:56:15Z</time></trkpt><trkpt lat="42.998186963376206" lon="11.287331927813355"><ele>271.0</ele><time>2026-04-04T13:56:16Z</time></trkpt><trkpt lat="42.99804435382851" lon="11.287384437684546"><ele>271.0</ele><time>2026-04-04T13:56:17Z</time></trkpt><trkpt lat="42.99790463725585" lon="11.287443830832569"><ele>271.0</ele><time>2026-04-04T13:56:18Z</time></trkpt><trkpt lat="42.997754438380916" lon="11.287447906359056"><ele>271.0</ele><time>2026-04-04T13:56:19Z</time></trkpt><trkpt lat="42.997618659697594" lon="11.287489879601145"><ele>271.0</ele><time>2026-04-04T13:56:20Z</time></trkpt><trkpt lat="42.99749155347187" lon="11.287535172917806"><ele>272.25</ele><time>2026-04-04T13:56:21Z</time></trkpt><trkpt lat="42.997368729881714" lon="11.287579913359254"><ele>273.5</ele><time>2026-04-04T13:56:22Z</time></trkpt><trkpt lat="42.99725216542929" lon="11.287620370456185"><ele>274.75</ele><time>2026-04-04T13:56:23Z</time></trkpt><trkpt lat="42.9971426692764" lon="11.287653137699078"><ele>276.0</ele><time>2026-04-04T13:56:24Z</time></trkpt><trkpt lat="42.99704869383801" lon="11.287680819392829"><ele>276.0</ele><time>2026-04-04T13:56:25Z</time></trkpt><trkpt lat="42.99695074109995" lon="11.287693406195004"><ele>276.0</ele><time>2026-04-04T13:56:26Z</time></trkpt><trkpt lat="42.996860195416986" lon="11.287678277695614"><ele>276.0</ele><time>2026-04-04T13:56:27Z</time></trkpt><trkpt lat="42.99677701384912" lon="11.287651202080012"><ele>276.0</ele><time>2026-04-04T13:56:28Z</time></trkpt><trkpt lat="42.99671601479516" lon="11.287584896632826"><ele>276.0</ele><time>2026-04-04T13:56:29Z</time></trkpt><trkpt lat="42.99667235075263" lon="11.287483966573962"><ele>276.0</ele><time>2026-04-04T13:56:30Z</time></trkpt><trkpt lat="42.99660889367069" lon="11.287423859944596"><ele>276.0</ele><time>2026-04-04T13:56:31Z</time></trkpt><trkpt lat="42.996585394258084" lon="11.287290245923575"><ele>276.0</ele><time>2026-04-04T13:56:32Z</time></trkpt><trkpt lat="42.99655030465957" lon="11.287201775092775"><ele>276.0</ele><time>2026-04-04T13:56:33Z</time></trkpt><trkpt lat="42.99661582394529" lon="11.287043992009554"><ele>276.0</ele><time>2026-04-04T13:56:34Z</time></trkpt><trkpt lat="42.9966224176311" lon="11.286934210549514"><ele>276.0</ele><time>2026-04-04T13:56:35Z</time></trkpt><trkpt lat="42.996784953988836" lon="11.286907261986295"><ele>277.2</ele><time>2026-04-04T13:56:36Z</time></trkpt><trkpt lat="42.99687210753384" lon="11.286822950802243"><ele>278.40000000000003</ele><time>2026-04-04T13:56:37Z</time></trkpt><trkpt lat="42.99695964426828" lon="11.286764279740638"><ele>279.6</ele><time>2026-04-04T13:56:38Z</time></trkpt><trkpt lat="42.997046860466696" lon="11.286693396755961"><ele>280.8</ele><time>2026-04-04T13:56:39Z</time></trkpt><trkpt lat="42.997123155170705" lon="11.286623232777822"><ele>282.0</ele><time>2026-04-04T13:56:40Z</time></trkpt><trkpt lat="42.99720553443153" lon="11.286551446542127"><ele>282.0</ele><time>2026-04-04T13:56:41Z</time></trkpt><trkpt lat="42.997274494793864" lon="11.286470147016699"><ele>282.0</ele><time>2026-04-04T13:56:42Z</time></trkpt><trkpt lat="42.997327635338955" lon="11.286363300660796"><ele>282.0</ele><time>2026-04-04T13:56:43Z</time></trkpt><trkpt lat="42.99735752949627" lon="11.286229743815406"><ele>282.0</ele><time>2026-04-04T13:56:44Z</time></trkpt><trkpt lat="42.99736228819484" lon="11.286090924416847"><ele>282.0</ele><time>2026-04-04T13:56:45Z</time></trkpt><trkpt lat="42.997345988779266" lon="11.28594274800984"><ele>283.25</ele><time>2026-04-04T13:56:46Z</time></trkpt><trkpt lat="42.997312607970876" lon="11.285795745384268"><ele>284.5</ele><time>2026-04-04T13:56:47Z</time></trkpt><trkpt lat="42.99727541155873" lon="11.285650485438785"><ele>285.75</ele><time>2026-04-04T13:56:48Z</time></trkpt><trkpt lat="42.99723555840122" lon="11.285485274622248"><ele>287.0</ele><time>2026-04-04T13:56:49Z</time></trkpt><trkpt lat="42.99720478888695" lon="11.285324961469504"><ele>287.75</ele><time>2026-04-04T13:56:50Z</time></trkpt><trkpt lat="42.997173257837076" lon="11.285159888199404"><ele>288.5</ele><time>2026-04-04T13:56:51Z</time></trkpt><trkpt lat="42.99714290916397" lon="11.28499982696083"><ele>289.25</ele><time>2026-04-04T13:56:52Z</time></trkpt><trkpt lat="42.997111510606864" lon="11.284837910609772"><ele>290.0</ele><time>2026-04-04T13:56:53Z</time></trkpt><trkpt lat="42.99707307704863" lon="11.284681231251641"><ele>290.25</ele><time>2026-04-04T13:56:54Z</time></trkpt><trkpt lat="42.997020902180935" lon="11.284530888944134"><ele>290.5</ele><time>2026-04-04T13:56:55Z</time></trkpt><trkpt lat="42.996960378732894" lon="11.284393036743262"><ele>290.75</ele><time>2026-04-04T13:56:56Z</time></trkpt><trkpt lat="42.99689319505816" lon="11.284256527083382"><ele>291.0</ele><time>2026-04-04T13:56:57Z</time></trkpt><trkpt lat="42.996829891344525" lon="11.284121903496548"><ele>291.0</ele><time>2026-04-04T13:56:58Z</time></trkpt><trkpt lat="42.99676712276681" lon="11.283981821834663"><ele>291.0</ele><time>2026-04-04T13:56:59Z</time></trkpt><trkpt lat="42.99671991560581" lon="11.283853461037133"><ele>291.0</ele><time>2026-04-04T13:57:00Z</time></trkpt><trkpt lat="42.99668590663942" lon="11.283725717937209"><ele>291.0</ele><time>2026-04-04T13:57:01Z</time></trkpt><trkpt lat="42.99667303567975" lon="11.283605248782344"><ele>291.0</ele><time>2026-04-04T13:57:02Z</time></trkpt><trkpt lat="42.996676836166394" lon="11.283496101570591"><ele>291.0</ele><time>2026-04-04T13:57:03Z</time></trkpt><trkpt lat="42.99670514884037" lon="11.283389174337564"><ele>291.0</ele><time>2026-04-04T13:57:04Z</time></trkpt><trkpt lat="42.99667370473907" lon="11.283261984673658"><ele>291.0</ele><time>2026-04-04T13:57:05Z</time></trkpt><trkpt lat="42.99683792490516" lon="11.283246226358264"><ele>291.0</ele><time>2026-04-04T13:57:06Z</time></trkpt><trkpt lat="42.99693062125044" lon="11.283204285924159"><ele>291.0</ele><time>2026-04-04T13:57:07Z</time></trkpt><trkpt lat="42.9970160032225" lon="11.283154664310214"><ele>290.0</ele><time>2026-04-04T13:57:08Z</time></trkpt><trkpt lat="42.99710104483494" lon="11.283083519430834"><ele>289.0</ele><time>2026-04-04T13:57:09Z</time></trkpt><trkpt lat="42.997175382053015" lon="11.282990393271472"><ele>288.0</ele><time>2026-04-04T13:57:10Z</time></trkpt><trkpt lat="42.99724157160851" lon="11.282875698909486"><ele>287.0</ele><time>2026-04-04T13:57:11Z</time></trkpt><trkpt lat="42.9972996726134" lon="11.282738484426408"><ele>286.0</ele><time>2026-04-04T13:57:12Z</time></trkpt><trkpt lat="42.997347086369906" lon="11.282595154375482"><ele>286.0</ele><time>2026-04-04T13:57:13Z</time></trkpt><trkpt lat="42.99739605192344" lon="11.282441789488288"><ele>286.0</ele><time>2026-04-04T13:57:14Z</time></trkpt><trkpt lat="42.99744972660723" lon="11.282284018301114"><ele>286.0</ele><time>2026-04-04T13:57:15Z</time></trkpt><trkpt lat="42.99750788783073" lon="11.28213545292121"><ele>286.0</ele><time>2026-04-04T13:57:16Z</time></trkpt><trkpt lat="42.99756266312081" lon="11.281981048424521"><ele>285.75</ele><time>2026-04-04T13:57:17Z</time></trkpt><trkpt lat="42.99761388315409" lon="11.281820536866185"><ele>285.5</ele><time>2026-04-04T13:57:18Z</time></trkpt><trkpt lat="42.99766810065991" lon="11.281666039695907"><ele>285.25</ele><time>2026-04-04T13:57:19Z</time></trkpt><trkpt lat="42.997736181746646" lon="11.281521485629836"><ele>285.0</ele><time>2026-04-04T13:57:20Z</time></trkpt><trkpt lat="42.99782647179651" lon="11.281402802852336"><ele>279.75</ele><time>2026-04-04T13:57:21Z</time></trkpt><trkpt lat="42.9979376221929" lon="11.281315769191597"><ele>274.5</ele><time>2026-04-04T13:57:22Z</time></trkpt><trkpt lat="42.99806268297513" lon="11.281259754234826"><ele>269.25</ele><time>2026-04-04T13:57:23Z</time></trkpt><trkpt lat="42.99818875560012" lon="11.281218312883087"><ele>264.0</ele><time>2026-04-04T13:57:24Z</time></trkpt><trkpt lat="42.998312547293125" lon="11.281164026221653"><ele>270.0</ele><time>2026-04-04T13:57:25Z</time></trkpt><trkpt lat="42.99842359337732" lon="11.281081564347714"><ele>276.0</ele><time>2026-04-04T13:57:26Z</time></trkpt><trkpt lat="42.9985267014853" lon="11.280973946826876"><ele>282.0</ele><time>2026-04-04T13:57:27Z</time></trkpt><trkpt lat="42.99861355055167" lon="11.280835896431512"><ele>288.0</ele><time>2026-04-04T13:57:28Z</time></trkpt><trkpt lat="42.99867519559683" lon="11.280678906036767"><ele>283.75</ele><time>2026-04-04T13:57:29Z</time></trkpt><trkpt lat="42.99873353654486" lon="11.280505087792218"><ele>279.5</ele><time>2026-04-04T13:57:30Z</time></trkpt><trkpt lat="42.99879288519712" lon="11.280339114313067"><ele>275.25</ele><time>2026-04-04T13:57:31Z</time></trkpt><trkpt lat="42.99885384688305" lon="11.280181306971583"><ele>271.0</ele><time>2026-04-04T13:57:32Z</time></trkpt><trkpt lat="42.99891447439171" lon="11.280023330199713"><ele>271.0</ele><time>2026-04-04T13:57:33Z</time></trkpt><trkpt lat="42.99897216985844" lon="11.279869573401477"><ele>271.0</ele><time>2026-04-04T13:57:34Z</time></trkpt><trkpt lat="42.99903335454026" lon="11.27971627951173"><ele>271.0</ele><time>2026-04-04T13:57:35Z</time></trkpt><trkpt lat="42.99909326187151" lon="11.279559774752135"><ele>271.0</ele><time>2026-04-04T13:57:36Z</time></trkpt><trkpt lat="42.999150504409414" lon="11.279405221851402"><ele>272.75</ele><time>2026-04-04T13:57:37Z</time></trkpt><trkpt lat="42.999208367425545" lon="11.279251336861744"><ele>274.5</ele><time>2026-04-04T13:57:38Z</time></trkpt><trkpt lat="42.99926756357318" lon="11.279090823923582"><ele>276.25</ele><time>2026-04-04T13:57:39Z</time></trkpt><trkpt lat="42.99932951089148" lon="11.278939222844235"><ele>278.0</ele><time>2026-04-04T13:57:40Z</time></trkpt><trkpt lat="42.99939156226739" lon="11.278784666250122"><ele>278.0</ele><time>2026-04-04T13:57:41Z</time></trkpt><trkpt lat="42.99944563086319" lon="11.27862594842267"><ele>278.0</ele><time>2026-04-04T13:57:42Z</time></trkpt><trkpt lat="42.99949197113467" lon="11.278464682143776"><ele>278.0</ele><time>2026-04-04T13:57:43Z</time></trkpt><trkpt lat="42.999515868119474" lon="11.27829888711046"><ele>278.0</ele><time>2026-04-04T13:57:44Z</time></trkpt><trkpt lat="42.99950682595016" lon="11.278129893278033"><ele>276.75</ele><time>2026-04-04T13:57:45Z</time></trkpt><trkpt lat="42.99947224655143" lon="11.2779521768115"><ele>275.5</ele><time>2026-04-04T13:57:46Z</time></trkpt><trkpt lat="42.99942850306908" lon="11.277781830600578"><ele>274.25</ele><time>2026-04-04T13:57:47Z</time></trkpt><trkpt lat="42.999386069514756" lon="11.277611528942979"><ele>273.0</ele><time>2026-04-04T13:57:48Z</time></trkpt><trkpt lat="42.999361795569996" lon="11.277435029296072"><ele>273.0</ele><time>2026-04-04T13:57:49Z</time></trkpt><trkpt lat="42.99935865433992" lon="11.277276289750455"><ele>273.0</ele><time>2026-04-04T13:57:50Z</time></trkpt><trkpt lat="42.99937375039252" lon="11.277088216209208"><ele>273.0</ele><time>2026-04-04T13:57:51Z</time></trkpt><trkpt lat="42.99940393156454" lon="11.276901629853926"><ele>273.0</ele><time>2026-04-04T13:57:52Z</time></trkpt><trkpt lat="42.99945306786479" lon="11.276739824995891"><ele>271.5</ele><time>2026-04-04T13:57:53Z</time></trkpt><trkpt lat="42.99951690529234" lon="11.276601644094981"><ele>270.0</ele><time>2026-04-04T13:57:54Z</time></trkpt><trkpt lat="42.999581938122525" lon="11.276465541682164"><ele>268.5</ele><time>2026-04-04T13:57:55Z</time></trkpt><trkpt lat="42.99963538974498" lon="11.27633651248187"><ele>267.0</ele><time>2026-04-04T13:57:56Z</time></trkpt><trkpt lat="42.99966054574106" lon="11.27618655672447"><ele>267.0</ele><time>2026-04-04T13:57:57Z</time></trkpt><trkpt lat="42.99963378395994" lon="11.276038469906148"><ele>267.0</ele><time>2026-04-04T13:57:58Z</time></trkpt><trkpt lat="42.999561968674875" lon="11.275911868659964"><ele>267.0</ele><time>2026-04-04T13:57:59Z</time></trkpt><trkpt lat="42.9994627958524" lon="11.275825845726855"><ele>267.0</ele><time>2026-04-04T13:58:00Z</time></trkpt><trkpt lat="42.999350537554115" lon="11.275752241734365"><ele>267.0</ele><time>2026-04-04T13:58:01Z</time></trkpt><trkpt lat="42.99922202392391" lon="11.275663806222054"><ele>267.0</ele><time>2026-04-04T13:58:02Z</time></trkpt><trkpt lat="42.999149156200964" lon="11.27560432494854"><ele>267.0</ele><time>2026-04-04T13:58:03Z</time></trkpt><trkpt lat="42.99903160279057" lon="11.275521684878564"><ele>267.0</ele><time>2026-04-04T13:58:04Z</time></trkpt><trkpt lat="42.998919398036534" lon="11.275424796179378"><ele>263.0</ele><time>2026-04-04T13:58:05Z</time></trkpt><trkpt lat="42.99881847080441" lon="11.275315606864947"><ele>259.0</ele><time>2026-04-04T13:58:06Z</time></trkpt><trkpt lat="42.99872803042366" lon="11.275193718447486"><ele>255.0</ele><time>2026-04-04T13:58:07Z</time></trkpt><trkpt lat="42.998649007171764" lon="11.275055075147316"><ele>251.0</ele><time>2026-04-04T13:58:08Z</time></trkpt><trkpt lat="42.99857162816689" lon="11.274919733577503"><ele>251.0</ele><time>2026-04-04T13:58:09Z</time></trkpt><trkpt lat="42.9984913253558" lon="11.274780253770267"><ele>251.0</ele><time>2026-04-04T13:58:10Z</time></trkpt><trkpt lat="42.99840618925602" lon="11.274641816248975"><ele>251.0</ele><time>2026-04-04T13:58:11Z</time></trkpt><trkpt lat="42.99832139830589" lon="11.2745053927321"><ele>251.0</ele><time>2026-04-04T13:58:12Z</time></trkpt><trkpt lat="42.99824017685025" lon="11.274370000090206"><ele>247.60000000000002</ele><time>2026-04-04T13:58:13Z</time></trkpt><trkpt lat="42.99816269245132" lon="11.27423422429125"><ele>244.20000000000002</ele><time>2026-04-04T13:58:14Z</time></trkpt><trkpt lat="42.998100833803605" lon="11.274104275881141"><ele>240.79999999999998</ele><time>2026-04-04T13:58:15Z</time></trkpt><trkpt lat="42.99811193930884" lon="11.273963763474516"><ele>237.39999999999998</ele><time>2026-04-04T13:58:16Z</time></trkpt><trkpt lat="42.9981623859691" lon="11.27384085071886"><ele>234.0</ele><time>2026-04-04T13:58:17Z</time></trkpt><trkpt lat="42.99823004083283" lon="11.273732346721783"><ele>232.39999999999998</ele><time>2026-04-04T13:58:18Z</time></trkpt><trkpt lat="42.99830715735493" lon="11.273620760604558"><ele>230.79999999999998</ele><time>2026-04-04T13:58:19Z</time></trkpt><trkpt lat="42.99838080411269" lon="11.273506996209306"><ele>229.20000000000002</ele><time>2026-04-04T13:58:20Z</time></trkpt><trkpt lat="42.99844493703783" lon="11.273383686985158"><ele>227.60000000000002</ele><time>2026-04-04T13:58:21Z</time></trkpt><trkpt lat="42.99851177408126" lon="11.273275562377222"><ele>226.0</ele><time>2026-04-04T13:58:22Z</time></trkpt><trkpt lat="42.99857024071587" lon="11.273156385973396"><ele>227.20000000000002</ele><time>2026-04-04T13:58:23Z</time></trkpt><trkpt lat="42.998602705719975" lon="11.273015223753776"><ele>228.40000000000003</ele><time>2026-04-04T13:58:24Z</time></trkpt><trkpt lat="42.99858935871275" lon="11.272861730045697"><ele>229.6</ele><time>2026-04-04T13:58:25Z</time></trkpt><trkpt lat="42.998551566381174" lon="11.27271310821926"><ele>230.8</ele><time>2026-04-04T13:58:26Z</time></trkpt><trkpt lat="42.99854161692393" lon="11.272566265238273"><ele>232.0</ele><time>2026-04-04T13:58:27Z</time></trkpt><trkpt lat="42.99861539290057" lon="11.272452620968611"><ele>232.0</ele><time>2026-04-04T13:58:28Z</time></trkpt><trkpt lat="42.99870651719025" lon="11.27236753546554"><ele>232.0</ele><time>2026-04-04T13:58:29Z</time></trkpt><trkpt lat="42.99881096455927" lon="11.272299780827536"><ele>232.0</ele><time>2026-04-04T13:58:30Z</time></trkpt><trkpt lat="42.99892076591888" lon="11.27223653663173"><ele>232.0</ele><time>2026-04-04T13:58:31Z</time></trkpt><trkpt lat="42.99902991797374" lon="11.27217345139046"><ele>231.0</ele><time>2026-04-04T13:58:32Z</time></trkpt><trkpt lat="42.99913953548757" lon="11.272109867101804"><ele>230.0</ele><time>2026-04-04T13:58:33Z</time></trkpt><trkpt lat="42.99925431824645" lon="11.272043286671298"><ele>229.0</ele><time>2026-04-04T13:58:34Z</time></trkpt><trkpt lat="42.99935887728329" lon="11.271965138277729"><ele>228.0</ele><time>2026-04-04T13:58:34.999Z</time></trkpt><trkpt lat="42.99946749677113" lon="11.271908121471531"><ele>228.0</ele><time>2026-04-04T13:58:35.999Z</time></trkpt><trkpt lat="42.99956481463032" lon="11.271852594890996"><ele>228.0</ele><time>2026-04-04T13:58:36.999Z</time></trkpt><trkpt lat="42.99965082117191" lon="11.27180192438944"><ele>228.0</ele><time>2026-04-04T13:58:37.999Z</time></trkpt><trkpt lat="42.99972426520841" lon="11.271736476007574"><ele>228.0</ele><time>2026-04-04T13:58:38.999Z</time></trkpt><trkpt lat="42.99977191413093" lon="11.271634678814587"><ele>228.0</ele><time>2026-04-04T13:58:39.999Z</time></trkpt><trkpt lat="42.99978043493669" lon="11.271491864481163"><ele>229.2</ele><time>2026-04-04T13:58:40.999Z</time></trkpt><trkpt lat="42.99973485074772" lon="11.271354130734304"><ele>230.4</ele><time>2026-04-04T13:58:41.999Z</time></trkpt><trkpt lat="42.99965430302807" lon="11.271258661672999"><ele>231.59999999999997</ele><time>2026-04-04T13:58:42.999Z</time></trkpt><trkpt lat="42.99954479890366" lon="11.27120646383963"><ele>232.79999999999998</ele><time>2026-04-04T13:58:43.999Z</time></trkpt><trkpt lat="42.99943944069211" lon="11.271168562941853"><ele>234.0</ele><time>2026-04-04T13:58:44.999Z</time></trkpt><trkpt lat="42.99933036556221" lon="11.271121005634631"><ele>234.0</ele><time>2026-04-04T13:58:45.999Z</time></trkpt><trkpt lat="42.999224526198674" lon="11.271062250777021"><ele>234.0</ele><time>2026-04-04T13:58:46.999Z</time></trkpt><trkpt lat="42.99911388588062" lon="11.270999264606496"><ele>234.0</ele><time>2026-04-04T13:58:47.999Z</time></trkpt><trkpt lat="42.998999265643505" lon="11.270936462936653"><ele>234.0</ele><time>2026-04-04T13:58:48.999Z</time></trkpt><trkpt lat="42.99888868056286" lon="11.270879649818072"><ele>230.5</ele><time>2026-04-04T13:58:49.999Z</time></trkpt><trkpt lat="42.99876927311291" lon="11.270822757887045"><ele>227.0</ele><time>2026-04-04T13:58:50.999Z</time></trkpt><trkpt lat="42.99865635324003" lon="11.270763406980587"><ele>223.5</ele><time>2026-04-04T13:58:51.999Z</time></trkpt><trkpt lat="42.99853925189133" lon="11.270705962987105"><ele>220.0</ele><time>2026-04-04T13:58:52.999Z</time></trkpt><trkpt lat="42.9984181401267" lon="11.270645024238307"><ele>217.75</ele><time>2026-04-04T13:58:53.999Z</time></trkpt><trkpt lat="42.99830520700336" lon="11.270585135310114"><ele>215.5</ele><time>2026-04-04T13:58:54.999Z</time></trkpt><trkpt lat="42.998191174519185" lon="11.270521993381745"><ele>213.25</ele><time>2026-04-04T13:58:55.999Z</time></trkpt><trkpt lat="42.99808298402702" lon="11.2704613354994"><ele>211.0</ele><time>2026-04-04T13:58:56.999Z</time></trkpt><trkpt lat="42.9979842690892" lon="11.270407630552976"><ele>211.0</ele><time>2026-04-04T13:58:57.999Z</time></trkpt><trkpt lat="42.997890627131746" lon="11.270350421203991"><ele>211.0</ele><time>2026-04-04T13:58:58.999Z</time></trkpt><trkpt lat="42.997815033876385" lon="11.270259149902977"><ele>211.0</ele><time>2026-04-04T13:58:59.999Z</time></trkpt><trkpt lat="42.997764354619626" lon="11.270130430084217"><ele>211.0</ele><time>2026-04-04T13:59:00.999Z</time></trkpt><trkpt lat="42.99775452239158" lon="11.269975605536217"><ele>211.0</ele><time>2026-04-04T13:59:01.999Z</time></trkpt><trkpt lat="42.99779407708538" lon="11.269837408294693"><ele>208.25</ele><time>2026-04-04T13:59:02.999Z</time></trkpt><trkpt lat="42.997858274043615" lon="11.26970332738979"><ele>205.5</ele><time>2026-04-04T13:59:03.999Z</time></trkpt><trkpt lat="42.99793033197456" lon="11.269574572388398"><ele>202.75</ele><time>2026-04-04T13:59:04.999Z</time></trkpt><trkpt lat="42.997996991843436" lon="11.269432979742952"><ele>200.0</ele><time>2026-04-04T13:59:05.999Z</time></trkpt><trkpt lat="42.998062254629716" lon="11.269283074562441"><ele>200.0</ele><time>2026-04-04T13:59:06.999Z</time></trkpt><trkpt lat="42.99813125230872" lon="11.269135148973445"><ele>200.0</ele><time>2026-04-04T13:59:07.999Z</time></trkpt><trkpt lat="42.998200861508096" lon="11.268980915107518"><ele>200.0</ele><time>2026-04-04T13:59:08.999Z</time></trkpt><trkpt lat="42.998269339485425" lon="11.268826133904058"><ele>200.0</ele><time>2026-04-04T13:59:09.999Z</time></trkpt><trkpt lat="42.998335367196766" lon="11.268674562020644"><ele>199.0</ele><time>2026-04-04T13:59:10.999Z</time></trkpt><trkpt lat="42.99839777885099" lon="11.268529732888185"><ele>198.0</ele><time>2026-04-04T13:59:11.999Z</time></trkpt><trkpt lat="42.99846560330916" lon="11.268384376859824"><ele>197.0</ele><time>2026-04-04T13:59:12.999Z</time></trkpt><trkpt lat="42.998533976986344" lon="11.268239361031592"><ele>196.0</ele><time>2026-04-04T13:59:13.999Z</time></trkpt><trkpt lat="42.998604029217745" lon="11.268092071499087"><ele>192.25</ele><time>2026-04-04T13:59:14.999Z</time></trkpt><trkpt lat="42.99867002604451" lon="11.267949687264526"><ele>188.5</ele><time>2026-04-04T13:59:15.999Z</time></trkpt><trkpt lat="42.99873703763927" lon="11.267803964650913"><ele>184.75</ele><time>2026-04-04T13:59:16.999Z</time></trkpt><trkpt lat="42.99879965132421" lon="11.267660790987783"><ele>181.0</ele><time>2026-04-04T13:59:17.999Z</time></trkpt><trkpt lat="42.99885848840572" lon="11.26751523692773"><ele>181.0</ele><time>2026-04-04T13:59:18.999Z</time></trkpt><trkpt lat="42.998907178665" lon="11.267367363332077"><ele>181.0</ele><time>2026-04-04T13:59:19.999Z</time></trkpt><trkpt lat="42.99892723732874" lon="11.267212414818545"><ele>181.0</ele><time>2026-04-04T13:59:20.999Z</time></trkpt><trkpt lat="42.9989036202989" lon="11.267047627104168"><ele>181.0</ele><time>2026-04-04T13:59:21.999Z</time></trkpt><trkpt lat="42.99885146794783" lon="11.266888262879892"><ele>179.0</ele><time>2026-04-04T13:59:22.999Z</time></trkpt><trkpt lat="42.998772689275874" lon="11.266739258522389"><ele>177.0</ele><time>2026-04-04T13:59:23.999Z</time></trkpt><trkpt lat="42.998676468623735" lon="11.266602251997105"><ele>175.0</ele><time>2026-04-04T13:59:24.999Z</time></trkpt><trkpt lat="42.99859546826989" lon="11.266463201923992"><ele>173.0</ele><time>2026-04-04T13:59:25.999Z</time></trkpt><trkpt lat="42.99851369122038" lon="11.266316818800519"><ele>171.25</ele><time>2026-04-04T13:59:26.999Z</time></trkpt><trkpt lat="42.99842942404167" lon="11.26616645115735"><ele>169.5</ele><time>2026-04-04T13:59:28Z</time></trkpt><trkpt lat="42.99834717667561" lon="11.266021974501749"><ele>167.75</ele><time>2026-04-04T13:59:29Z</time></trkpt><trkpt lat="42.99826653275764" lon="11.265878818749274"><ele>166.0</ele><time>2026-04-04T13:59:30Z</time></trkpt><trkpt lat="42.998183893677925" lon="11.265733966296443"><ele>165.0</ele><time>2026-04-04T13:59:31Z</time></trkpt><trkpt lat="42.99810515267264" lon="11.265592078969007"><ele>164.0</ele><time>2026-04-04T13:59:32Z</time></trkpt><trkpt lat="42.99802812685624" lon="11.265441825114884"><ele>163.0</ele><time>2026-04-04T13:59:33Z</time></trkpt><trkpt lat="42.99795879196836" lon="11.265291630664276"><ele>162.0</ele><time>2026-04-04T13:59:34Z</time></trkpt><trkpt lat="42.99789986386276" lon="11.26513402221099"><ele>162.0</ele><time>2026-04-04T13:59:35Z</time></trkpt><trkpt lat="42.99784153255563" lon="11.264975712979952"><ele>162.0</ele><time>2026-04-04T13:59:36Z</time></trkpt><trkpt lat="42.99778846775517" lon="11.264813426286748"><ele>162.0</ele><time>2026-04-04T13:59:37Z</time></trkpt><trkpt lat="42.99774457058912" lon="11.264640965516511"><ele>162.0</ele><time>2026-04-04T13:59:38Z</time></trkpt><trkpt lat="42.99770850357109" lon="11.264464682308075"><ele>161.0</ele><time>2026-04-04T13:59:39Z</time></trkpt><trkpt lat="42.99767347599291" lon="11.264286667283846"><ele>160.0</ele><time>2026-04-04T13:59:40Z</time></trkpt><trkpt lat="42.997640028037935" lon="11.264105254827738"><ele>159.0</ele><time>2026-04-04T13:59:41Z</time></trkpt><trkpt lat="42.99760222646486" lon="11.263928733829625"><ele>158.0</ele><time>2026-04-04T13:59:42Z</time></trkpt><trkpt lat="42.99755395121044" lon="11.263758305852548"><ele>159.25</ele><time>2026-04-04T13:59:43Z</time></trkpt><trkpt lat="42.99749366533524" lon="11.263599835436043"><ele>160.5</ele><time>2026-04-04T13:59:44Z</time></trkpt><trkpt lat="42.997417107967635" lon="11.263440488050362"><ele>161.75</ele><time>2026-04-04T13:59:45Z</time></trkpt><trkpt lat="42.99733131839135" lon="11.263286387975949"><ele>163.0</ele><time>2026-04-04T13:59:46Z</time></trkpt><trkpt lat="42.99724227540434" lon="11.263132795882095"><ele>160.75</ele><time>2026-04-04T13:59:47Z</time></trkpt><trkpt lat="42.99715168524838" lon="11.262975019006802"><ele>158.5</ele><time>2026-04-04T13:59:48Z</time></trkpt><trkpt lat="42.997060588269484" lon="11.262813753890432"><ele>156.25</ele><time>2026-04-04T13:59:49Z</time></trkpt><trkpt lat="42.99697205407783" lon="11.262660320747814"><ele>154.0</ele><time>2026-04-04T13:59:50Z</time></trkpt><trkpt lat="42.99688161088839" lon="11.26249689350286"><ele>154.0</ele><time>2026-04-04T13:59:51Z</time></trkpt><trkpt lat="42.99679754104148" lon="11.262354987871081"><ele>154.0</ele><time>2026-04-04T13:59:52Z</time></trkpt><trkpt lat="42.99671552728865" lon="11.262202257512103"><ele>154.0</ele><time>2026-04-04T13:59:53Z</time></trkpt><trkpt lat="42.99664737994878" lon="11.262039279554715"><ele>154.0</ele><time>2026-04-04T13:59:54Z</time></trkpt><trkpt lat="42.99660325528377" lon="11.26185665534944"><ele>154.5</ele><time>2026-04-04T13:59:55Z</time></trkpt><trkpt lat="42.996586326614725" lon="11.26166027425059"><ele>155.0</ele><time>2026-04-04T13:59:56Z</time></trkpt><trkpt lat="42.99658609726531" lon="11.261465021086238"><ele>155.5</ele><time>2026-04-04T13:59:57Z</time></trkpt><trkpt lat="42.996603566484445" lon="11.261269705188791"><ele>156.0</ele><time>2026-04-04T13:59:58Z</time></trkpt><trkpt lat="42.996629904065166" lon="11.261082180886195"><ele>154.75</ele><time>2026-04-04T13:59:59Z</time></trkpt><trkpt lat="42.99665738167632" lon="11.26088897135912"><ele>153.5</ele><time>2026-04-04T14:00:00Z</time></trkpt><trkpt lat="42.99668433140001" lon="11.260698204758079"><ele>152.25</ele><time>2026-04-04T14:00:01Z</time></trkpt><trkpt lat="42.99670928897295" lon="11.260500149257822"><ele>151.0</ele><time>2026-04-04T14:00:02Z</time></trkpt><trkpt lat="42.996732563547326" lon="11.260304528002791"><ele>148.66666666666669</ele><time>2026-04-04T14:00:03Z</time></trkpt><trkpt lat="42.996756350061" lon="11.26010348226219"><ele>146.33333333333334</ele><time>2026-04-04T14:00:04Z</time></trkpt><trkpt lat="42.99678567867439" lon="11.25989759369189"><ele>144.0</ele><time>2026-04-04T14:00:05Z</time></trkpt><trkpt lat="42.99681454374617" lon="11.259689848270083"><ele>142.33333333333334</ele><time>2026-04-04T14:00:06Z</time></trkpt><trkpt lat="42.99684016552616" lon="11.259479588693395"><ele>140.66666666666669</ele><time>2026-04-04T14:00:07Z</time></trkpt><trkpt lat="42.99686719877526" lon="11.259268549816465"><ele>139.0</ele><time>2026-04-04T14:00:08Z</time></trkpt><trkpt lat="42.99689409889552" lon="11.25905167328398"><ele>137.66666666666669</ele><time>2026-04-04T14:00:09Z</time></trkpt><trkpt lat="42.99691979946368" lon="11.258835446492089"><ele>136.33333333333334</ele><time>2026-04-04T14:00:10Z</time></trkpt><trkpt lat="42.99694941177633" lon="11.258602579734834"><ele>135.0</ele><time>2026-04-04T14:00:11Z</time></trkpt><trkpt lat="42.9969771995825" lon="11.258384433991221"><ele>135.0</ele><time>2026-04-04T14:00:12Z</time></trkpt><trkpt lat="42.99700687959987" lon="11.25815448310052"><ele>135.0</ele><time>2026-04-04T14:00:13Z</time></trkpt><trkpt lat="42.99703698812336" lon="11.257917045643259"><ele>135.0</ele><time>2026-04-04T14:00:14Z</time></trkpt><trkpt lat="42.99707027445948" lon="11.257693570061466"><ele>135.0</ele><time>2026-04-04T14:00:15Z</time></trkpt><trkpt lat="42.997097896557726" lon="11.257448774129672"><ele>135.0</ele><time>2026-04-04T14:00:16Z</time></trkpt><trkpt lat="42.99712642219152" lon="11.257210500474129"><ele>135.0</ele><time>2026-04-04T14:00:17Z</time></trkpt><trkpt lat="42.99715530415073" lon="11.256970672253393"><ele>134.66666666666666</ele><time>2026-04-04T14:00:18Z</time></trkpt><trkpt lat="42.99718734264211" lon="11.256733526401653"><ele>134.33333333333331</ele><time>2026-04-04T14:00:19Z</time></trkpt><trkpt lat="42.99721493553388" lon="11.256504953337064"><ele>134.0</ele><time>2026-04-04T14:00:20Z</time></trkpt><trkpt lat="42.99724456602474" lon="11.256274487232128"><ele>133.33333333333331</ele><time>2026-04-04T14:00:21Z</time></trkpt><trkpt lat="42.997273618778664" lon="11.256048198852811"><ele>132.66666666666666</ele><time>2026-04-04T14:00:22Z</time></trkpt><trkpt lat="42.99730506810577" lon="11.255810034724634"><ele>132.0</ele><time>2026-04-04T14:00:23Z</time></trkpt><trkpt lat="42.99733881902183" lon="11.25557000699546"><ele>131.33333333333334</ele><time>2026-04-04T14:00:24Z</time></trkpt><trkpt lat="42.9973673505921" lon="11.255332591681038"><ele>130.66666666666669</ele><time>2026-04-04T14:00:25Z</time></trkpt><trkpt lat="42.99739498338693" lon="11.255096708825437"><ele>130.0</ele><time>2026-04-04T14:00:26Z</time></trkpt><trkpt lat="42.997421570727944" lon="11.254861691426575"><ele>129.33333333333334</ele><time>2026-04-04T14:00:27Z</time></trkpt><trkpt lat="42.997448937417936" lon="11.254630617252051"><ele>128.66666666666666</ele><time>2026-04-04T14:00:28Z</time></trkpt><trkpt lat="42.99747991527222" lon="11.254396137832527"><ele>128.0</ele><time>2026-04-04T14:00:29Z</time></trkpt><trkpt lat="42.99750946959702" lon="11.254159708394452"><ele>129.0</ele><time>2026-04-04T14:00:30Z</time></trkpt><trkpt lat="42.99753552643338" lon="11.253919652054773"><ele>130.0</ele><time>2026-04-04T14:00:31Z</time></trkpt><trkpt lat="42.99757338528246" lon="11.253672650308843"><ele>131.0</ele><time>2026-04-04T14:00:32Z</time></trkpt><trkpt lat="42.997601503093684" lon="11.253433158177184"><ele>131.0</ele><time>2026-04-04T14:00:33Z</time></trkpt><trkpt lat="42.99763646316294" lon="11.253188985763071"><ele>131.0</ele><time>2026-04-04T14:00:34Z</time></trkpt><trkpt lat="42.99767179297223" lon="11.2529430941272"><ele>131.0</ele><time>2026-04-04T14:00:35Z</time></trkpt><trkpt lat="42.9976878864813" lon="11.252696201765504"><ele>130.33333333333331</ele><time>2026-04-04T14:00:36Z</time></trkpt><trkpt lat="42.997724426760016" lon="11.252446814156295"><ele>129.66666666666666</ele><time>2026-04-04T14:00:37Z</time></trkpt><trkpt lat="42.9977459099426" lon="11.252193853244867"><ele>129.0</ele><time>2026-04-04T14:00:38Z</time></trkpt><trkpt lat="42.99779213720638" lon="11.251935481567845"><ele>129.0</ele><time>2026-04-04T14:00:39Z</time></trkpt><trkpt lat="42.99782755501651" lon="11.251678056647673"><ele>129.0</ele><time>2026-04-04T14:00:40Z</time></trkpt><trkpt lat="42.99786185328602" lon="11.25142136323556"><ele>129.0</ele><time>2026-04-04T14:00:41Z</time></trkpt><trkpt lat="42.9978872215203" lon="11.251169982666962"><ele>129.33333333333334</ele><time>2026-04-04T14:00:42Z</time></trkpt><trkpt lat="42.997914495157126" lon="11.250917212775228"><ele>129.66666666666669</ele><time>2026-04-04T14:00:43Z</time></trkpt><trkpt lat="42.99795252514835" lon="11.25066668849922"><ele>130.0</ele><time>2026-04-04T14:00:44Z</time></trkpt><trkpt lat="42.997988713497186" lon="11.25041442320685"><ele>130.0</ele><time>2026-04-04T14:00:45Z</time></trkpt><trkpt lat="42.99800646529639" lon="11.250158888174708"><ele>130.0</ele><time>2026-04-04T14:00:46Z</time></trkpt><trkpt lat="42.99804154995283" lon="11.249904021213942"><ele>130.0</ele><time>2026-04-04T14:00:47Z</time></trkpt><trkpt lat="42.9980788178887" lon="11.249651125982364"><ele>129.0</ele><time>2026-04-04T14:00:48Z</time></trkpt><trkpt lat="42.9981038224541" lon="11.249393751711736"><ele>128.0</ele><time>2026-04-04T14:00:49Z</time></trkpt><trkpt lat="42.998135400576984" lon="11.249132206345713"><ele>127.0</ele><time>2026-04-04T14:00:50Z</time></trkpt><trkpt lat="42.998169530742715" lon="11.248871527501397"><ele>127.0</ele><time>2026-04-04T14:00:51Z</time></trkpt><trkpt lat="42.998201159925756" lon="11.248609904102624"><ele>127.0</ele><time>2026-04-04T14:00:52Z</time></trkpt><trkpt lat="42.998235753589235" lon="11.248347808230616"><ele>127.0</ele><time>2026-04-04T14:00:53Z</time></trkpt><trkpt lat="42.998270940956324" lon="11.24808700848823"><ele>127.0</ele><time>2026-04-04T14:00:54Z</time></trkpt><trkpt lat="42.998295748592795" lon="11.247829368298405"><ele>127.0</ele><time>2026-04-04T14:00:55Z</time></trkpt><trkpt lat="42.99833596763237" lon="11.247569029012903"><ele>127.0</ele><time>2026-04-04T14:00:56Z</time></trkpt><trkpt lat="42.998363104381475" lon="11.247312138057216"><ele>128.66666666666669</ele><time>2026-04-04T14:00:57Z</time></trkpt><trkpt lat="42.99839323695468" lon="11.247062113648127"><ele>130.33333333333334</ele><time>2026-04-04T14:00:58Z</time></trkpt><trkpt lat="42.998433676540756" lon="11.246814856508719"><ele>132.0</ele><time>2026-04-04T14:00:59Z</time></trkpt><trkpt lat="42.99847518223431" lon="11.246568295554715"><ele>132.66666666666666</ele><time>2026-04-04T14:01:00Z</time></trkpt><trkpt lat="42.998498859895676" lon="11.246314813077703"><ele>133.33333333333331</ele><time>2026-04-04T14:01:01Z</time></trkpt><trkpt lat="42.99853730653272" lon="11.246066008138275"><ele>134.0</ele><time>2026-04-04T14:01:02Z</time></trkpt><trkpt lat="42.99856216952708" lon="11.245814715785825"><ele>132.66666666666666</ele><time>2026-04-04T14:01:03Z</time></trkpt><trkpt lat="42.99859370478697" lon="11.245561991385665"><ele>131.33333333333334</ele><time>2026-04-04T14:01:04Z</time></trkpt><trkpt lat="42.99863083066063" lon="11.245311560528378"><ele>130.0</ele><time>2026-04-04T14:01:05Z</time></trkpt><trkpt lat="42.99865580866257" lon="11.24505642160385"><ele>130.0</ele><time>2026-04-04T14:01:06Z</time></trkpt><trkpt lat="42.99868458603765" lon="11.244796393245908"><ele>130.0</ele><time>2026-04-04T14:01:07Z</time></trkpt><trkpt lat="42.998722901889536" lon="11.244541188361806"><ele>130.0</ele><time>2026-04-04T14:01:08Z</time></trkpt><trkpt lat="42.99876058247915" lon="11.24428813643771"><ele>129.0</ele><time>2026-04-04T14:01:09Z</time></trkpt><trkpt lat="42.99879486920768" lon="11.2440335733116"><ele>128.0</ele><time>2026-04-04T14:01:10Z</time></trkpt><trkpt lat="42.99881867605203" lon="11.243777031584099"><ele>127.0</ele><time>2026-04-04T14:01:11Z</time></trkpt><trkpt lat="42.99884875035334" lon="11.24351832859884"><ele>125.66666666666667</ele><time>2026-04-04T14:01:12Z</time></trkpt><trkpt lat="42.99887669177333" lon="11.243259745302712"><ele>124.33333333333334</ele><time>2026-04-04T14:01:13Z</time></trkpt><trkpt lat="42.998914494512604" lon="11.243007774713396"><ele>123.0</ele><time>2026-04-04T14:01:14Z</time></trkpt><trkpt lat="42.9989509938682" lon="11.242759335695999"><ele>122.66666666666666</ele><time>2026-04-04T14:01:15Z</time></trkpt><trkpt lat="42.99898750973909" lon="11.242504541495263"><ele>122.33333333333333</ele><time>2026-04-04T14:01:16Z</time></trkpt><trkpt lat="42.99901706565973" lon="11.24224866528412"><ele>122.0</ele><time>2026-04-04T14:01:17Z</time></trkpt><trkpt lat="42.999039680662435" lon="11.241993621211178"><ele>122.0</ele><time>2026-04-04T14:01:18Z</time></trkpt><trkpt lat="42.999075266862924" lon="11.24173975397163"><ele>122.0</ele><time>2026-04-04T14:01:19Z</time></trkpt><trkpt lat="42.99911354646977" lon="11.241489834787235"><ele>122.0</ele><time>2026-04-04T14:01:20Z</time></trkpt><trkpt lat="42.999140597187456" lon="11.241239154845257"><ele>122.0</ele><time>2026-04-04T14:01:21Z</time></trkpt><trkpt lat="42.99916343965184" lon="11.240989107327868"><ele>122.0</ele><time>2026-04-04T14:01:22Z</time></trkpt><trkpt lat="42.99920587356609" lon="11.240746342270507"><ele>122.0</ele><time>2026-04-04T14:01:23Z</time></trkpt><trkpt lat="42.99923728775564" lon="11.240501297199739"><ele>122.33333333333333</ele><time>2026-04-04T14:01:24Z</time></trkpt><trkpt lat="42.999273525011226" lon="11.240260329055733"><ele>122.66666666666666</ele><time>2026-04-04T14:01:25Z</time></trkpt><trkpt lat="42.9992965650308" lon="11.240009657335033"><ele>123.0</ele><time>2026-04-04T14:01:26Z</time></trkpt><trkpt lat="42.99932455912278" lon="11.239761256185146"><ele>122.33333333333334</ele><time>2026-04-04T14:01:27Z</time></trkpt><trkpt lat="42.99936113131124" lon="11.239513591244295"><ele>121.66666666666667</ele><time>2026-04-04T14:01:28Z</time></trkpt><trkpt lat="42.9993934627384" lon="11.239264987413991"><ele>121.0</ele><time>2026-04-04T14:01:29Z</time></trkpt><trkpt lat="42.99942468058219" lon="11.239016780081187"><ele>121.33333333333334</ele><time>2026-04-04T14:01:30Z</time></trkpt><trkpt lat="42.99945591156131" lon="11.238767467382747"><ele>121.66666666666666</ele><time>2026-04-04T14:01:31Z</time></trkpt><trkpt lat="42.99947818506366" lon="11.238510062897408"><ele>122.0</ele><time>2026-04-04T14:01:32Z</time></trkpt><trkpt lat="42.999521336504046" lon="11.238267242429421"><ele>123.0</ele><time>2026-04-04T14:01:33Z</time></trkpt><trkpt lat="42.99954364746833" lon="11.238020542371904"><ele>124.0</ele><time>2026-04-04T14:01:34Z</time></trkpt><trkpt lat="42.99957759593483" lon="11.23778452534664"><ele>125.0</ele><time>2026-04-04T14:01:35Z</time></trkpt><trkpt lat="42.99960613480909" lon="11.237545625289583"><ele>125.0</ele><time>2026-04-04T14:01:36Z</time></trkpt><trkpt lat="42.99963510234973" lon="11.237313643354032"><ele>125.0</ele><time>2026-04-04T14:01:37Z</time></trkpt><trkpt lat="42.999668499991444" lon="11.237092662362642"><ele>125.0</ele><time>2026-04-04T14:01:38Z</time></trkpt><trkpt lat="42.9997053875987" lon="11.236876088585776"><ele>126.0</ele><time>2026-04-04T14:01:39Z</time></trkpt><trkpt lat="42.99972407240388" lon="11.236641438461506"><ele>127.0</ele><time>2026-04-04T14:01:40Z</time></trkpt><trkpt lat="42.99975012786303" lon="11.23640870917155"><ele>128.0</ele><time>2026-04-04T14:01:41Z</time></trkpt><trkpt lat="42.99978022416201" lon="11.236175463207344"><ele>129.33333333333331</ele><time>2026-04-04T14:01:42Z</time></trkpt><trkpt lat="42.999813997540166" lon="11.235948367616455"><ele>130.66666666666666</ele><time>2026-04-04T14:01:43Z</time></trkpt><trkpt lat="42.99984074569794" lon="11.235713575491461"><ele>132.0</ele><time>2026-04-04T14:01:44Z</time></trkpt><trkpt lat="42.99986862454986" lon="11.235474445604316"><ele>132.0</ele><time>2026-04-04T14:01:45Z</time></trkpt><trkpt lat="42.9998968730759" lon="11.235230528825099"><ele>132.0</ele><time>2026-04-04T14:01:46Z</time></trkpt><trkpt lat="42.99993324896545" lon="11.234990379928513"><ele>132.0</ele><time>2026-04-04T14:01:47Z</time></trkpt><trkpt lat="42.99995931128364" lon="11.23474779150214"><ele>132.66666666666666</ele><time>2026-04-04T14:01:48Z</time></trkpt><trkpt lat="42.99998708522081" lon="11.234512146638163"><ele>133.33333333333331</ele><time>2026-04-04T14:01:49Z</time></trkpt><trkpt lat="43.00001724572701" lon="11.234270151417183"><ele>134.0</ele><time>2026-04-04T14:01:50Z</time></trkpt><trkpt lat="43.00004904212451" lon="11.234028479058983"><ele>135.33333333333331</ele><time>2026-04-04T14:01:51Z</time></trkpt><trkpt lat="43.000081360246845" lon="11.233793153776077"><ele>136.66666666666666</ele><time>2026-04-04T14:01:52Z</time></trkpt><trkpt lat="43.00010410873911" lon="11.233550607242103"><ele>138.0</ele><time>2026-04-04T14:01:53Z</time></trkpt><trkpt lat="43.00013420035734" lon="11.233319256419257"><ele>138.66666666666666</ele><time>2026-04-04T14:01:54Z</time></trkpt><trkpt lat="43.00016224742081" lon="11.233079120256878"><ele>139.33333333333331</ele><time>2026-04-04T14:01:55Z</time></trkpt><trkpt lat="43.00019353786583" lon="11.23282766343577"><ele>140.0</ele><time>2026-04-04T14:01:56Z</time></trkpt><trkpt lat="43.00022419958427" lon="11.232582153510414"><ele>140.0</ele><time>2026-04-04T14:01:57Z</time></trkpt><trkpt lat="43.000263954794924" lon="11.232351338923323"><ele>140.0</ele><time>2026-04-04T14:01:58Z</time></trkpt><trkpt lat="43.00029139804471" lon="11.232108130013012"><ele>140.0</ele><time>2026-04-04T14:01:59Z</time></trkpt><trkpt lat="43.00031399419608" lon="11.23186490695298"><ele>140.0</ele><time>2026-04-04T14:02:00Z</time></trkpt><trkpt lat="43.00034229024769" lon="11.231621772594236"><ele>140.0</ele><time>2026-04-04T14:02:01Z</time></trkpt><trkpt lat="43.00037442468385" lon="11.231394102962131"><ele>140.0</ele><time>2026-04-04T14:02:02Z</time></trkpt><trkpt lat="43.000402696726134" lon="11.231150306161963"><ele>139.66666666666666</ele><time>2026-04-04T14:02:03Z</time></trkpt><trkpt lat="43.000435862373074" lon="11.230906755138324"><ele>139.33333333333334</ele><time>2026-04-04T14:02:04Z</time></trkpt><trkpt lat="43.0004682640006" lon="11.230662404447193"><ele>139.0</ele><time>2026-04-04T14:02:05Z</time></trkpt><trkpt lat="43.0004971463756" lon="11.230424255680493"><ele>139.0</ele><time>2026-04-04T14:02:06Z</time></trkpt><trkpt lat="43.00053102400587" lon="11.230197394427615"><ele>139.0</ele><time>2026-04-04T14:02:07Z</time></trkpt><trkpt lat="43.00056195239488" lon="11.229944109925642"><ele>139.0</ele><time>2026-04-04T14:02:08Z</time></trkpt><trkpt lat="43.00058859025901" lon="11.229700340743216"><ele>139.0</ele><time>2026-04-04T14:02:09Z</time></trkpt><trkpt lat="43.00061850739529" lon="11.229461861906605"><ele>139.0</ele><time>2026-04-04T14:02:10Z</time></trkpt><trkpt lat="43.00064802886144" lon="11.229199037314427"><ele>139.0</ele><time>2026-04-04T14:02:11Z</time></trkpt><trkpt lat="43.00067746673547" lon="11.228961224959138"><ele>138.66666666666669</ele><time>2026-04-04T14:02:12Z</time></trkpt><trkpt lat="43.00071051009298" lon="11.228714993430025"><ele>138.33333333333334</ele><time>2026-04-04T14:02:13Z</time></trkpt><trkpt lat="43.00074246154871" lon="11.22847279686928"><ele>138.0</ele><time>2026-04-04T14:02:14Z</time></trkpt><trkpt lat="43.00077736807303" lon="11.228225057543177"><ele>138.66666666666666</ele><time>2026-04-04T14:02:15Z</time></trkpt><trkpt lat="43.00080500106483" lon="11.227970628712377"><ele>139.33333333333331</ele><time>2026-04-04T14:02:16Z</time></trkpt><trkpt lat="43.00083113680422" lon="11.227723716486437"><ele>140.0</ele><time>2026-04-04T14:02:17Z</time></trkpt><trkpt lat="43.000861945393936" lon="11.22747874392607"><ele>138.33333333333331</ele><time>2026-04-04T14:02:18Z</time></trkpt><trkpt lat="43.00089531480622" lon="11.227231290480098"><ele>136.66666666666666</ele><time>2026-04-04T14:02:19Z</time></trkpt><trkpt lat="43.00092089239485" lon="11.226983325269238"><ele>135.0</ele><time>2026-04-04T14:02:20Z</time></trkpt><trkpt lat="43.000967367828686" lon="11.22672110326913"><ele>133.66666666666666</ele><time>2026-04-04T14:02:21Z</time></trkpt><trkpt lat="43.000988054968744" lon="11.226472939459489"><ele>132.33333333333331</ele><time>2026-04-04T14:02:22Z</time></trkpt><trkpt lat="43.00101406891403" lon="11.226216113651278"><ele>131.0</ele><time>2026-04-04T14:02:23Z</time></trkpt><trkpt lat="43.0010446187812" lon="11.225955681021805"><ele>131.0</ele><time>2026-04-04T14:02:24Z</time></trkpt><trkpt lat="43.00108101582223" lon="11.225693610486653"><ele>131.0</ele><time>2026-04-04T14:02:25Z</time></trkpt><trkpt lat="43.00112137458725" lon="11.225432273893427"><ele>131.0</ele><time>2026-04-04T14:02:26Z</time></trkpt><trkpt lat="43.00115286273624" lon="11.22517674085104"><ele>130.33333333333331</ele><time>2026-04-04T14:02:27Z</time></trkpt><trkpt lat="43.001189936064975" lon="11.22492116588209"><ele>129.66666666666666</ele><time>2026-04-04T14:02:28Z</time></trkpt><trkpt lat="43.001223355662404" lon="11.22466692941207"><ele>129.0</ele><time>2026-04-04T14:02:29Z</time></trkpt><trkpt lat="43.00124712547832" lon="11.224413896612225"><ele>129.0</ele><time>2026-04-04T14:02:30Z</time></trkpt><trkpt lat="43.00127337626192" lon="11.224158210835244"><ele>129.0</ele><time>2026-04-04T14:02:31Z</time></trkpt><trkpt lat="43.00130984728619" lon="11.223904913449294"><ele>129.0</ele><time>2026-04-04T14:02:32Z</time></trkpt><trkpt lat="43.00134622366444" lon="11.223655076196355"><ele>129.33333333333334</ele><time>2026-04-04T14:02:33Z</time></trkpt><trkpt lat="43.00137421249303" lon="11.223402675885513"><ele>129.66666666666669</ele><time>2026-04-04T14:02:34Z</time></trkpt><trkpt lat="43.001401336050385" lon="11.223148446865052"><ele>130.0</ele><time>2026-04-04T14:02:35Z</time></trkpt><trkpt lat="43.00144501620266" lon="11.22290211331993"><ele>130.0</ele><time>2026-04-04T14:02:36Z</time></trkpt><trkpt lat="43.00146439398799" lon="11.222643917378964"><ele>130.0</ele><time>2026-04-04T14:02:37Z</time></trkpt><trkpt lat="43.00149425633619" lon="11.222389988429095"><ele>130.0</ele><time>2026-04-04T14:02:38Z</time></trkpt><trkpt lat="43.001531440354135" lon="11.22214505601686"><ele>129.66666666666669</ele><time>2026-04-04T14:02:39Z</time></trkpt><trkpt lat="43.001560456746105" lon="11.22188722599115"><ele>129.33333333333334</ele><time>2026-04-04T14:02:40Z</time></trkpt><trkpt lat="43.00159093918093" lon="11.221628231225779"><ele>129.0</ele><time>2026-04-04T14:02:41Z</time></trkpt><trkpt lat="43.00162452700631" lon="11.221375499837114"><ele>129.0</ele><time>2026-04-04T14:02:42Z</time></trkpt><trkpt lat="43.001663913877515" lon="11.221127501584538"><ele>129.0</ele><time>2026-04-04T14:02:43Z</time></trkpt><trkpt lat="43.001694435384486" lon="11.22087077771725"><ele>129.0</ele><time>2026-04-04T14:02:44Z</time></trkpt><trkpt lat="43.00172245636839" lon="11.22061243107091"><ele>129.0</ele><time>2026-04-04T14:02:45Z</time></trkpt><trkpt lat="43.00174944051909" lon="11.220353756296236"><ele>129.0</ele><time>2026-04-04T14:02:46Z</time></trkpt><trkpt lat="43.00178236592142" lon="11.22010733685189"><ele>129.0</ele><time>2026-04-04T14:02:47Z</time></trkpt><trkpt lat="43.00181271571662" lon="11.219850222682892"><ele>129.33333333333334</ele><time>2026-04-04T14:02:48Z</time></trkpt><trkpt lat="43.001844749836934" lon="11.21960310036541"><ele>129.66666666666669</ele><time>2026-04-04T14:02:49Z</time></trkpt><trkpt lat="43.001879942924" lon="11.219386441509922"><ele>130.0</ele><time>2026-04-04T14:02:50Z</time></trkpt><trkpt lat="43.00190786237828" lon="11.219152410913347"><ele>130.0</ele><time>2026-04-04T14:02:51Z</time></trkpt><trkpt lat="43.00193832193233" lon="11.218929314422377"><ele>130.0</ele><time>2026-04-04T14:02:52Z</time></trkpt><trkpt lat="43.00196501116894" lon="11.218701638507744"><ele>130.0</ele><time>2026-04-04T14:02:53Z</time></trkpt><trkpt lat="43.00199429720745" lon="11.21848216299275"><ele>130.0</ele><time>2026-04-04T14:02:54Z</time></trkpt><trkpt lat="43.00201564498375" lon="11.218258443504613"><ele>130.0</ele><time>2026-04-04T14:02:55Z</time></trkpt><trkpt lat="43.00204633929494" lon="11.218048130228171"><ele>130.0</ele><time>2026-04-04T14:02:56Z</time></trkpt><trkpt lat="43.002071039756665" lon="11.217839897974025"><ele>130.25</ele><time>2026-04-04T14:02:57Z</time></trkpt><trkpt lat="43.00209757335989" lon="11.21764639468407"><ele>130.5</ele><time>2026-04-04T14:02:58Z</time></trkpt><trkpt lat="43.00212053199172" lon="11.217443137316105"><ele>130.75</ele><time>2026-04-04T14:02:59Z</time></trkpt><trkpt lat="43.0021420555111" lon="11.217269342869677"><ele>131.0</ele><time>2026-04-04T14:03:00Z</time></trkpt><trkpt lat="43.00215836357159" lon="11.217110147674372"><ele>131.16666666666666</ele><time>2026-04-04T14:03:01Z</time></trkpt><trkpt lat="43.00217489954173" lon="11.2169650609591"><ele>131.33333333333331</ele><time>2026-04-04T14:03:02Z</time></trkpt><trkpt lat="43.002190397603364" lon="11.216835223285791"><ele>131.5</ele><time>2026-04-04T14:03:03Z</time></trkpt><trkpt lat="43.00220452004231" lon="11.21671980196768"><ele>131.66666666666666</ele><time>2026-04-04T14:03:04Z</time></trkpt><trkpt lat="43.00221961428432" lon="11.21663115359999"><ele>131.83333333333334</ele><time>2026-04-04T14:03:05Z</time></trkpt><trkpt lat="43.00227718538399" lon="11.216541126641355"><ele>132.0</ele><time>2026-04-04T14:03:07Z</time></trkpt><trkpt lat="43.00237116997351" lon="11.216565176504174"><ele>132.0</ele><time>2026-04-04T14:03:08Z</time></trkpt><trkpt lat="43.00244009800902" lon="11.216528724043714"><ele>132.0</ele><time>2026-04-04T14:03:09Z</time></trkpt><trkpt lat="43.0025212918175" lon="11.216496797891699"><ele>132.0</ele><time>2026-04-04T14:03:10Z</time></trkpt><trkpt lat="43.00260083438809" lon="11.216460859788153"><ele>132.0</ele><time>2026-04-04T14:03:11Z</time></trkpt><trkpt lat="43.002693497056576" lon="11.216420689744714"><ele>132.0</ele><time>2026-04-04T14:03:12Z</time></trkpt><trkpt lat="43.00277988449955" lon="11.21638540039322"><ele>132.0</ele><time>2026-04-04T14:03:13Z</time></trkpt><trkpt lat="43.00286409335665" lon="11.216351644223188"><ele>132.4</ele><time>2026-04-04T14:03:14Z</time></trkpt><trkpt lat="43.00294921886002" lon="11.216311271392673"><ele>132.79999999999998</ele><time>2026-04-04T14:03:15Z</time></trkpt><trkpt lat="43.00304597704706" lon="11.216274622159345"><ele>133.2</ele><time>2026-04-04T14:03:16Z</time></trkpt><trkpt lat="43.00313460114787" lon="11.216236035049016"><ele>133.6</ele><time>2026-04-04T14:03:17Z</time></trkpt><trkpt lat="43.00323940009481" lon="11.216192965286178"><ele>134.0</ele><time>2026-04-04T14:03:18Z</time></trkpt><trkpt lat="43.00333249734474" lon="11.21614895637552"><ele>134.2</ele><time>2026-04-04T14:03:19Z</time></trkpt><trkpt lat="43.00343685094428" lon="11.216106959303334"><ele>134.4</ele><time>2026-04-04T14:03:20Z</time></trkpt><trkpt lat="43.003545083683264" lon="11.216063977586623"><ele>134.6</ele><time>2026-04-04T14:03:21Z</time></trkpt><trkpt lat="43.003650004076" lon="11.216018688202672"><ele>134.8</ele><time>2026-04-04T14:03:22Z</time></trkpt><trkpt lat="43.003756257407886" lon="11.215974622946337"><ele>135.0</ele><time>2026-04-04T14:03:23Z</time></trkpt><trkpt lat="43.00386545642187" lon="11.21594024873969"><ele>135.0</ele><time>2026-04-04T14:03:24Z</time></trkpt><trkpt lat="43.003972645786966" lon="11.215897468020463"><ele>135.0</ele><time>2026-04-04T14:03:25Z</time></trkpt><trkpt lat="43.0040893650657" lon="11.21585246001924"><ele>135.0</ele><time>2026-04-04T14:03:26Z</time></trkpt><trkpt lat="43.004198621361695" lon="11.215812523737549"><ele>135.0</ele><time>2026-04-04T14:03:27Z</time></trkpt><trkpt lat="43.00430530106796" lon="11.215778354226222"><ele>135.25</ele><time>2026-04-04T14:03:28Z</time></trkpt><trkpt lat="43.00441428246464" lon="11.215740571275271"><ele>135.5</ele><time>2026-04-04T14:03:29Z</time></trkpt><trkpt lat="43.004524232112026" lon="11.215689890282636"><ele>135.75</ele><time>2026-04-04T14:03:30Z</time></trkpt><trkpt lat="43.00463558827042" lon="11.215640982694158"><ele>136.0</ele><time>2026-04-04T14:03:31Z</time></trkpt><trkpt lat="43.004745885795145" lon="11.21559062435943"><ele>136.0</ele><time>2026-04-04T14:03:32Z</time></trkpt><trkpt lat="43.004855682768664" lon="11.215538863313471"><ele>136.0</ele><time>2026-04-04T14:03:33Z</time></trkpt><trkpt lat="43.00497446444017" lon="11.215488336191203"><ele>136.0</ele><time>2026-04-04T14:03:34Z</time></trkpt><trkpt lat="43.005091411337695" lon="11.215440183733591"><ele>136.0</ele><time>2026-04-04T14:03:35Z</time></trkpt><trkpt lat="43.00520953077841" lon="11.215395349564679"><ele>136.5</ele><time>2026-04-04T14:03:36Z</time></trkpt><trkpt lat="43.005326366371285" lon="11.215346560801903"><ele>137.0</ele><time>2026-04-04T14:03:37Z</time></trkpt><trkpt lat="43.00543961643024" lon="11.215296223033342"><ele>137.5</ele><time>2026-04-04T14:03:38Z</time></trkpt><trkpt lat="43.00555430865042" lon="11.215239705993797"><ele>138.0</ele><time>2026-04-04T14:03:39Z</time></trkpt><trkpt lat="43.00566178503137" lon="11.21519173403409"><ele>138.0</ele><time>2026-04-04T14:03:40Z</time></trkpt><trkpt lat="43.00576427129247" lon="11.215140239806638"><ele>138.0</ele><time>2026-04-04T14:03:41Z</time></trkpt><trkpt lat="43.00586661658941" lon="11.215090045701437"><ele>138.0</ele><time>2026-04-04T14:03:42Z</time></trkpt><trkpt lat="43.00597000595428" lon="11.215036387507883"><ele>138.0</ele><time>2026-04-04T14:03:43Z</time></trkpt><trkpt lat="43.00607573506261" lon="11.214994274209666"><ele>138.0</ele><time>2026-04-04T14:03:44Z</time></trkpt><trkpt lat="43.0061794059073" lon="11.214947342387505"><ele>138.4</ele><time>2026-04-04T14:03:45Z</time></trkpt><trkpt lat="43.006283371228434" lon="11.21489455424491"><ele>138.8</ele><time>2026-04-04T14:03:46Z</time></trkpt><trkpt lat="43.006392705999914" lon="11.214862617323034"><ele>139.2</ele><time>2026-04-04T14:03:47Z</time></trkpt><trkpt lat="43.00648787715108" lon="11.21479965305056"><ele>139.6</ele><time>2026-04-04T14:03:48Z</time></trkpt><trkpt lat="43.006597725941496" lon="11.214758061026378"><ele>140.0</ele><time>2026-04-04T14:03:49Z</time></trkpt><trkpt lat="43.006707690460026" lon="11.214698228266535"><ele>140.5</ele><time>2026-04-04T14:03:50Z</time></trkpt><trkpt lat="43.00681828804802" lon="11.214621065553855"><ele>141.0</ele><time>2026-04-04T14:03:51Z</time></trkpt><trkpt lat="43.00692543864882" lon="11.214534879044384"><ele>141.5</ele><time>2026-04-04T14:03:52Z</time></trkpt><trkpt lat="43.007029424779205" lon="11.21444374243135"><ele>142.0</ele><time>2026-04-04T14:03:53Z</time></trkpt><trkpt lat="43.007135800507406" lon="11.214359769357372"><ele>142.0</ele><time>2026-04-04T14:03:54Z</time></trkpt><trkpt lat="43.00724158064979" lon="11.214282978916016"><ele>142.0</ele><time>2026-04-04T14:03:55Z</time></trkpt><trkpt lat="43.007347169680045" lon="11.214195255767105"><ele>142.0</ele><time>2026-04-04T14:03:56Z</time></trkpt><trkpt lat="43.00744836764204" lon="11.214109796623225"><ele>142.0</ele><time>2026-04-04T14:03:57Z</time></trkpt><trkpt lat="43.007547628378504" lon="11.21401210225523"><ele>142.5</ele><time>2026-04-04T14:03:58Z</time></trkpt><trkpt lat="43.00764777810932" lon="11.213907514081578"><ele>143.0</ele><time>2026-04-04T14:03:59Z</time></trkpt><trkpt lat="43.00774091232758" lon="11.213802374148244"><ele>143.5</ele><time>2026-04-04T14:04:00Z</time></trkpt><trkpt lat="43.00783157939756" lon="11.213689617681126"><ele>144.0</ele><time>2026-04-04T14:04:01Z</time></trkpt><trkpt lat="43.00791079087023" lon="11.213572977958902"><ele>144.0</ele><time>2026-04-04T14:04:02Z</time></trkpt><trkpt lat="43.007989645272865" lon="11.21344409162543"><ele>144.0</ele><time>2026-04-04T14:04:03Z</time></trkpt><trkpt lat="43.008080505713515" lon="11.213339822345059"><ele>144.0</ele><time>2026-04-04T14:04:04Z</time></trkpt><trkpt lat="43.00815708908498" lon="11.213235108688217"><ele>144.0</ele><time>2026-04-04T14:04:05Z</time></trkpt><trkpt lat="43.00822695406806" lon="11.213121605160259"><ele>144.0</ele><time>2026-04-04T14:04:06Z</time></trkpt><trkpt lat="43.00830145257735" lon="11.213018451763265"><ele>144.0</ele><time>2026-04-04T14:04:07Z</time></trkpt><trkpt lat="43.00837816921164" lon="11.212911630469774"><ele>144.0</ele><time>2026-04-04T14:04:08Z</time></trkpt><trkpt lat="43.00844767945239" lon="11.212801378798764"><ele>144.0</ele><time>2026-04-04T14:04:09Z</time></trkpt><trkpt lat="43.00852538141531" lon="11.212682735808936"><ele>144.0</ele><time>2026-04-04T14:04:10Z</time></trkpt><trkpt lat="43.00859194246193" lon="11.21256242296574"><ele>144.5</ele><time>2026-04-04T14:04:11Z</time></trkpt><trkpt lat="43.008665730010804" lon="11.212434674722703"><ele>145.0</ele><time>2026-04-04T14:04:12Z</time></trkpt><trkpt lat="43.008743391304165" lon="11.212301885829339"><ele>145.5</ele><time>2026-04-04T14:04:13Z</time></trkpt><trkpt lat="43.00881755396768" lon="11.212171665452694"><ele>146.0</ele><time>2026-04-04T14:04:14Z</time></trkpt><trkpt lat="43.00889154155889" lon="11.212039033006343"><ele>146.25</ele><time>2026-04-04T14:04:15Z</time></trkpt><trkpt lat="43.0089620398381" lon="11.211911665545808"><ele>146.5</ele><time>2026-04-04T14:04:16Z</time></trkpt><trkpt lat="43.009032769738155" lon="11.211783160416013"><ele>146.75</ele><time>2026-04-04T14:04:17Z</time></trkpt><trkpt lat="43.00909630159582" lon="11.211656009980357"><ele>147.0</ele><time>2026-04-04T14:04:18Z</time></trkpt><trkpt lat="43.00915968754436" lon="11.211528247012406"><ele>147.75</ele><time>2026-04-04T14:04:19Z</time></trkpt><trkpt lat="43.00922768554135" lon="11.211403518864682"><ele>148.5</ele><time>2026-04-04T14:04:20Z</time></trkpt><trkpt lat="43.009294779625385" lon="11.211280121185629"><ele>149.25</ele><time>2026-04-04T14:04:21Z</time></trkpt><trkpt lat="43.00936397278469" lon="11.211148748406822"><ele>150.0</ele><time>2026-04-04T14:04:22Z</time></trkpt><trkpt lat="43.00942442540718" lon="11.21101986560857"><ele>150.0</ele><time>2026-04-04T14:04:23Z</time></trkpt><trkpt lat="43.009484740154264" lon="11.210892219584576"><ele>150.0</ele><time>2026-04-04T14:04:24Z</time></trkpt><trkpt lat="43.009537259279725" lon="11.21079287920355"><ele>150.0</ele><time>2026-04-04T14:04:25Z</time></trkpt><trkpt lat="43.0095815291689" lon="11.210710240430643"><ele>150.0</ele><time>2026-04-04T14:04:26Z</time></trkpt><trkpt lat="43.00962279930066" lon="11.210618889699058"><ele>150.0</ele><time>2026-04-04T14:04:27Z</time></trkpt><trkpt lat="43.00966901830412" lon="11.210558242811373"><ele>150.0</ele><time>2026-04-04T14:04:28Z</time></trkpt><trkpt lat="43.0097354269727" lon="11.210502612599468"><ele>150.2</ele><time>2026-04-04T14:04:29Z</time></trkpt><trkpt lat="43.00980457952804" lon="11.210494822589885"><ele>150.4</ele><time>2026-04-04T14:04:30Z</time></trkpt><trkpt lat="43.00989406860644" lon="11.21052934796691"><ele>150.6</ele><time>2026-04-04T14:04:31Z</time></trkpt><trkpt lat="43.009997204005494" lon="11.210622593661448"><ele>150.8</ele><time>2026-04-04T14:04:32Z</time></trkpt><trkpt lat="43.01011272746204" lon="11.210752479088807"><ele>151.0</ele><time>2026-04-04T14:04:33Z</time></trkpt><trkpt lat="43.01021110674286" lon="11.210853289113718"><ele>151.0</ele><time>2026-04-04T14:04:34Z</time></trkpt><trkpt lat="43.01030746809103" lon="11.210940365608698"><ele>151.0</ele><time>2026-04-04T14:04:35.001Z</time></trkpt><trkpt lat="43.01037682984906" lon="11.211006347782448"><ele>151.0</ele><time>2026-04-04T14:04:36.001Z</time></trkpt><trkpt lat="43.010435383031435" lon="11.211044686642017"><ele>151.0</ele><time>2026-04-04T14:04:37.001Z</time></trkpt><trkpt lat="43.01051870512126" lon="11.21105287857933"><ele>151.0</ele><time>2026-04-04T14:04:39.001Z</time></trkpt><trkpt lat="43.01061519734802" lon="11.21093795948477"><ele>151.00000000000003</ele><time>2026-04-04T14:04:41.001Z</time></trkpt><trkpt lat="43.01066800374335" lon="11.210880859955418"><ele>151.0</ele><time>2026-04-04T14:04:42.001Z</time></trkpt><trkpt lat="43.0107170254375" lon="11.21080311738311"><ele>151.0</ele><time>2026-04-04T14:04:43.001Z</time></trkpt><trkpt lat="43.0107678984222" lon="11.210735877626073"><ele>151.0</ele><time>2026-04-04T14:04:44.001Z</time></trkpt><trkpt lat="43.01082989488474" lon="11.210674855992936"><ele>151.0</ele><time>2026-04-04T14:04:45.001Z</time></trkpt><trkpt lat="43.010886070637746" lon="11.21062395568676"><ele>151.00000000000003</ele><time>2026-04-04T14:04:46.001Z</time></trkpt><trkpt lat="43.01093713414589" lon="11.21057292622239"><ele>151.0</ele><time>2026-04-04T14:04:47.001Z</time></trkpt><trkpt lat="43.01100976961819" lon="11.210538116027578"><ele>152.16666666666669</ele><time>2026-04-04T14:04:49.001Z</time></trkpt><trkpt lat="43.01106518789938" lon="11.210437597280439"><ele>153.33333333333334</ele><time>2026-04-04T14:04:52.001Z</time></trkpt><trkpt lat="43.01112343832953" lon="11.210335401710077"><ele>154.5</ele><time>2026-04-04T14:05:02.001Z</time></trkpt><trkpt lat="43.01118227044494" lon="11.21025242469874"><ele>155.66666666666666</ele><time>2026-04-04T14:05:04.001Z</time></trkpt><trkpt lat="43.01124134443566" lon="11.210153901031873"><ele>156.83333333333331</ele><time>2026-04-04T14:05:06.001Z</time></trkpt><trkpt lat="43.01130424113442" lon="11.210077317681687"><ele>158.0</ele><time>2026-04-04T14:05:08.001Z</time></trkpt><trkpt lat="43.011361965542235" lon="11.209992520427456"><ele>158.0</ele><time>2026-04-04T14:05:10.001Z</time></trkpt><trkpt lat="43.01141857573175" lon="11.209906586337125"><ele>158.0</ele><time>2026-04-04T14:05:12.001Z</time></trkpt><trkpt lat="43.01147370938228" lon="11.209817150761024"><ele>158.0</ele><time>2026-04-04T14:05:14.001Z</time></trkpt><trkpt lat="43.011516200052924" lon="11.209718290036518"><ele>158.0</ele><time>2026-04-04T14:05:16.001Z</time></trkpt><trkpt lat="43.011527850046164" lon="11.20958667953599"><ele>158.0</ele><time>2026-04-04T14:05:18.001Z</time></trkpt><trkpt lat="43.01154702463344" lon="11.209480707878997"><ele>158.0</ele><time>2026-04-04T14:05:20.001Z</time></trkpt><trkpt lat="43.011585567606254" lon="11.209402246076026"><ele>158.5</ele><time>2026-04-04T14:05:22.001Z</time></trkpt><trkpt lat="43.01162637594766" lon="11.20929633577597"><ele>159.0</ele><time>2026-04-04T14:05:24.001Z</time></trkpt><trkpt lat="43.01168123225772" lon="11.20919237510636"><ele>159.5</ele><time>2026-04-04T14:05:26.001Z</time></trkpt><trkpt lat="43.011733698338176" lon="11.20908926483689"><ele>160.0</ele><time>2026-04-04T14:05:28.001Z</time></trkpt><trkpt lat="43.01177774139806" lon="11.208992123066766"><ele>160.5</ele><time>2026-04-04T14:05:30.001Z</time></trkpt><trkpt lat="43.01183569432934" lon="11.208894710840687"><ele>161.0</ele><time>2026-04-04T14:05:33.001Z</time></trkpt><trkpt lat="43.011887860529335" lon="11.208817893538159"><ele>164.33333333333331</ele><time>2026-04-04T14:05:35.001Z</time></trkpt><trkpt lat="43.01191178268831" lon="11.208699497028755"><ele>167.66666666666666</ele><time>2026-04-04T14:05:38.001Z</time></trkpt><trkpt lat="43.01192163153004" lon="11.208599845355826"><ele>171.0</ele><time>2026-04-04T14:05:40.001Z</time></trkpt><trkpt lat="43.01189697510365" lon="11.208497401641115"><ele>174.33333333333334</ele><time>2026-04-04T14:05:42.001Z</time></trkpt><trkpt lat="43.01187699027516" lon="11.20838952638601"><ele>177.66666666666669</ele><time>2026-04-04T14:05:44.001Z</time></trkpt><trkpt lat="43.01182946662761" lon="11.20828405577257"><ele>181.0</ele><time>2026-04-04T14:05:46.001Z</time></trkpt><trkpt lat="43.01180521918073" lon="11.208179719973412"><ele>182.60000000000002</ele><time>2026-04-04T14:05:48Z</time></trkpt><trkpt lat="43.011757418764105" lon="11.208045068573904"><ele>184.2</ele><time>2026-04-04T14:05:50Z</time></trkpt><trkpt lat="43.0117038935467" lon="11.207949289624523"><ele>185.8</ele><time>2026-04-04T14:05:52Z</time></trkpt><trkpt lat="43.01164434542627" lon="11.207814717588445"><ele>187.39999999999998</ele><time>2026-04-04T14:05:54Z</time></trkpt><trkpt lat="43.01157990982676" lon="11.207692299872306"><ele>189.0</ele><time>2026-04-04T14:05:56Z</time></trkpt><trkpt lat="43.01151605177849" lon="11.207567719317234"><ele>185.39999999999998</ele><time>2026-04-04T14:05:58Z</time></trkpt><trkpt lat="43.01146739319485" lon="11.207454279016217"><ele>181.8</ele><time>2026-04-04T14:06:00Z</time></trkpt><trkpt lat="43.011475500356866" lon="11.207318985490366"><ele>178.2</ele><time>2026-04-04T14:06:02Z</time></trkpt><trkpt lat="43.01154851068572" lon="11.207211924326133"><ele>174.60000000000002</ele><time>2026-04-04T14:06:04Z</time></trkpt><trkpt lat="43.011602675455535" lon="11.207114983945266"><ele>171.0</ele><time>2026-04-04T14:06:06Z</time></trkpt><trkpt lat="43.01165166285538" lon="11.207034006678574"><ele>175.4</ele><time>2026-04-04T14:06:09Z</time></trkpt><trkpt lat="43.011728872439754" lon="11.206937696908922"><ele>179.8</ele><time>2026-04-04T14:06:11Z</time></trkpt><trkpt lat="43.01177780871136" lon="11.206869801928946"><ele>184.20000000000002</ele><time>2026-04-04T14:06:12Z</time></trkpt><trkpt lat="43.01182711410666" lon="11.206750860693697"><ele>188.60000000000002</ele><time>2026-04-04T14:06:14Z</time></trkpt><trkpt lat="43.01186244268281" lon="11.206648346762176"><ele>193.0</ele><time>2026-04-04T14:06:16Z</time></trkpt><trkpt lat="43.011894645667184" lon="11.206509281124257"><ele>194.2</ele><time>2026-04-04T14:06:18Z</time></trkpt><trkpt lat="43.01193945652267" lon="11.206356689853862"><ele>195.4</ele><time>2026-04-04T14:06:20Z</time></trkpt><trkpt lat="43.01197076440614" lon="11.20627488444013"><ele>196.6</ele><time>2026-04-04T14:06:21Z</time></trkpt><trkpt lat="43.012020522995634" lon="11.20620166984613"><ele>197.79999999999998</ele><time>2026-04-04T14:06:22Z</time></trkpt><trkpt lat="43.01207321771799" lon="11.20613328228713"><ele>199.0</ele><time>2026-04-04T14:06:23Z</time></trkpt><trkpt lat="43.01215208921597" lon="11.205988829297297"><ele>198.99999999999997</ele><time>2026-04-04T14:06:25Z</time></trkpt><trkpt lat="43.01217144306425" lon="11.205892753486209"><ele>199.0</ele><time>2026-04-04T14:06:26Z</time></trkpt><trkpt lat="43.012208420227594" lon="11.20574581388247"><ele>199.0</ele><time>2026-04-04T14:06:28Z</time></trkpt><trkpt lat="43.01220418872627" lon="11.205643561347308"><ele>199.0</ele><time>2026-04-04T14:06:29Z</time></trkpt><trkpt lat="43.01219745077308" lon="11.205536381400591"><ele>198.99999999999997</ele><time>2026-04-04T14:06:30Z</time></trkpt><trkpt lat="43.012197640233374" lon="11.205433552664864"><ele>199.0</ele><time>2026-04-04T14:06:31Z</time></trkpt><trkpt lat="43.01219268249098" lon="11.205333976998267"><ele>199.66666666666666</ele><time>2026-04-04T14:06:32Z</time></trkpt><trkpt lat="43.01218737213545" lon="11.205230633018854"><ele>200.33333333333331</ele><time>2026-04-04T14:06:33Z</time></trkpt><trkpt lat="43.01219057159112" lon="11.20513684600664"><ele>201.0</ele><time>2026-04-04T14:06:34Z</time></trkpt><trkpt lat="43.01222422712366" lon="11.204997706776654"><ele>201.66666666666669</ele><time>2026-04-04T14:06:36Z</time></trkpt><trkpt lat="43.01225685954033" lon="11.20492081108668"><ele>202.33333333333334</ele><time>2026-04-04T14:06:37Z</time></trkpt><trkpt lat="43.01229923397887" lon="11.204795250357396"><ele>203.0</ele><time>2026-04-04T14:06:39Z</time></trkpt><trkpt lat="43.01232776347674" lon="11.204648888501163"><ele>203.0</ele><time>2026-04-04T14:06:41Z</time></trkpt><trkpt lat="43.01237908793152" lon="11.204522441800249"><ele>203.0</ele><time>2026-04-04T14:06:43Z</time></trkpt><trkpt lat="43.01243697385563" lon="11.204400813575218"><ele>203.0</ele><time>2026-04-04T14:06:45Z</time></trkpt><trkpt lat="43.012491340681656" lon="11.204336790171254"><ele>203.0</ele><time>2026-04-04T14:06:46Z</time></trkpt><trkpt lat="43.0125823280881" lon="11.204208251711952"><ele>203.0</ele><time>2026-04-04T14:06:48Z</time></trkpt><trkpt lat="43.01261601319914" lon="11.204133068012327"><ele>205.16666666666669</ele><time>2026-04-04T14:06:49Z</time></trkpt><trkpt lat="43.012644184117555" lon="11.204049381578132"><ele>207.33333333333334</ele><time>2026-04-04T14:06:50Z</time></trkpt><trkpt lat="43.012680848973744" lon="11.203963153252559"><ele>209.5</ele><time>2026-04-04T14:06:51Z</time></trkpt><trkpt lat="43.01270418814739" lon="11.20384663302932"><ele>211.66666666666669</ele><time>2026-04-04T14:06:52Z</time></trkpt><trkpt lat="43.012737942615274" lon="11.203750432739579"><ele>213.83333333333334</ele><time>2026-04-04T14:06:53Z</time></trkpt><trkpt lat="43.01276867248815" lon="11.203671931469376"><ele>216.0</ele><time>2026-04-04T14:06:54Z</time></trkpt><trkpt lat="43.012778286145" lon="11.203502934061646"><ele>216.85714285714286</ele><time>2026-04-04T14:06:56Z</time></trkpt><trkpt lat="43.01279009305002" lon="11.203416860924328"><ele>217.71428571428572</ele><time>2026-04-04T14:06:57Z</time></trkpt><trkpt lat="43.01281100417529" lon="11.203324463276294"><ele>218.57142857142856</ele><time>2026-04-04T14:06:58Z</time></trkpt><trkpt lat="43.012840080020105" lon="11.203225746226652"><ele>219.42857142857144</ele><time>2026-04-04T14:06:59Z</time></trkpt><trkpt lat="43.01286741468673" lon="11.203120872367652"><ele>220.2857142857143</ele><time>2026-04-04T14:07:00Z</time></trkpt><trkpt lat="43.01287061367486" lon="11.203008672791176"><ele>221.14285714285714</ele><time>2026-04-04T14:07:01Z</time></trkpt><trkpt lat="43.012877269888655" lon="11.202909846787874"><ele>222.0</ele><time>2026-04-04T14:07:02Z</time></trkpt><trkpt lat="43.01284455163253" lon="11.202781291574983"><ele>222.0</ele><time>2026-04-04T14:07:05Z</time></trkpt><trkpt lat="43.012827695380075" lon="11.202680300978232"><ele>222.0</ele><time>2026-04-04T14:07:06Z</time></trkpt><trkpt lat="43.012803202363806" lon="11.202522899773141"><ele>222.0</ele><time>2026-04-04T14:07:08Z</time></trkpt><trkpt lat="43.01279657579116" lon="11.202378324620664"><ele>222.0</ele><time>2026-04-04T14:07:10Z</time></trkpt><trkpt lat="43.012830508832856" lon="11.202222351480064"><ele>222.0</ele><time>2026-04-04T14:07:12Z</time></trkpt><trkpt lat="43.01287727179496" lon="11.202102768727615"><ele>222.33333333333334</ele><time>2026-04-04T14:07:14Z</time></trkpt><trkpt lat="43.012883017613326" lon="11.202011107978448"><ele>222.66666666666669</ele><time>2026-04-04T14:07:17Z</time></trkpt><trkpt lat="43.01289685320142" lon="11.201906254102807"><ele>223.0</ele><time>2026-04-04T14:07:34Z</time></trkpt><trkpt lat="43.01290318988248" lon="11.20180411225182"><ele>223.33333333333334</ele><time>2026-04-04T14:07:35Z</time></trkpt><trkpt lat="43.012904769900274" lon="11.201712094042811"><ele>223.66666666666669</ele><time>2026-04-04T14:07:36Z</time></trkpt><trkpt lat="43.01292997042283" lon="11.2015558322487"><ele>224.0</ele><time>2026-04-04T14:07:38Z</time></trkpt><trkpt lat="43.01294894297272" lon="11.201449865817908"><ele>223.33333333333334</ele><time>2026-04-04T14:07:39Z</time></trkpt><trkpt lat="43.01298761959336" lon="11.201351166923137"><ele>222.66666666666669</ele><time>2026-04-04T14:07:40Z</time></trkpt><trkpt lat="43.01302435378647" lon="11.201262731164888"><ele>222.0</ele><time>2026-04-04T14:07:41Z</time></trkpt><trkpt lat="43.0130717578231" lon="11.20115082488172"><ele>221.33333333333331</ele><time>2026-04-04T14:07:42Z</time></trkpt><trkpt lat="43.01311644260045" lon="11.2010447711089"><ele>220.66666666666666</ele><time>2026-04-04T14:07:43Z</time></trkpt><trkpt lat="43.01316538034797" lon="11.2009642795332"><ele>220.0</ele><time>2026-04-04T14:07:44Z</time></trkpt><trkpt lat="43.01324563394956" lon="11.200931721306956"><ele>222.0</ele><time>2026-04-04T14:07:46Z</time></trkpt><trkpt lat="43.01333722632975" lon="11.200845788150664"><ele>224.0</ele><time>2026-04-04T14:07:48Z</time></trkpt><trkpt lat="43.01341951244399" lon="11.200797985677628"><ele>226.0</ele><time>2026-04-04T14:07:49Z</time></trkpt><trkpt lat="43.01349516465681" lon="11.200736612820071"><ele>228.0</ele><time>2026-04-04T14:07:50Z</time></trkpt><trkpt lat="43.01358794628445" lon="11.20065117269536"><ele>230.0</ele><time>2026-04-04T14:07:51Z</time></trkpt><trkpt lat="43.01367605510841" lon="11.200590687020053"><ele>230.00000000000003</ele><time>2026-04-04T14:07:52Z</time></trkpt><trkpt lat="43.01375700872876" lon="11.200533844552758"><ele>230.0</ele><time>2026-04-04T14:07:53Z</time></trkpt><trkpt lat="43.01382157939104" lon="11.200472719519585"><ele>230.0</ele><time>2026-04-04T14:07:54Z</time></trkpt><trkpt lat="43.01389249533946" lon="11.200412067947806"><ele>230.0</ele><time>2026-04-04T14:07:55Z</time></trkpt><trkpt lat="43.01396208333079" lon="11.200359132327819"><ele>230.00000000000003</ele><time>2026-04-04T14:07:56Z</time></trkpt><trkpt lat="43.014021299226364" lon="11.200283111993341"><ele>230.0</ele><time>2026-04-04T14:07:57Z</time></trkpt><trkpt lat="43.014077046211305" lon="11.200196193522187"><ele>230.00000000000003</ele><time>2026-04-04T14:07:58Z</time></trkpt><trkpt lat="43.01412058365306" lon="11.200105553746972"><ele>230.0</ele><time>2026-04-04T14:07:59Z</time></trkpt><trkpt lat="43.014172929885696" lon="11.200020117303286"><ele>230.0</ele><time>2026-04-04T14:08:00Z</time></trkpt><trkpt lat="43.014225524034664" lon="11.199920946844282"><ele>230.0</ele><time>2026-04-04T14:08:01Z</time></trkpt><trkpt lat="43.01428370945715" lon="11.199831302060783"><ele>230.00000000000003</ele><time>2026-04-04T14:08:02Z</time></trkpt><trkpt lat="43.01435525315398" lon="11.199758527006672"><ele>230.0</ele><time>2026-04-04T14:08:03Z</time></trkpt><trkpt lat="43.014435569552745" lon="11.199689075851545"><ele>231.0</ele><time>2026-04-04T14:08:04Z</time></trkpt><trkpt lat="43.01452364512685" lon="11.19962711683987"><ele>232.0</ele><time>2026-04-04T14:08:05Z</time></trkpt><trkpt lat="43.01460745685672" lon="11.199561983224319"><ele>233.0</ele><time>2026-04-04T14:08:06Z</time></trkpt><trkpt lat="43.0146725519956" lon="11.199492120982026"><ele>234.0</ele><time>2026-04-04T14:08:07Z</time></trkpt><trkpt lat="43.01471989130572" lon="11.199429155107401"><ele>235.0</ele><time>2026-04-04T14:08:08Z</time></trkpt><trkpt lat="43.01479478470897" lon="11.199286019277185"><ele>234.99999999999997</ele><time>2026-04-04T14:08:10Z</time></trkpt><trkpt lat="43.01482727202479" lon="11.199208151995297"><ele>235.0</ele><time>2026-04-04T14:08:11Z</time></trkpt><trkpt lat="43.014882948826475" lon="11.199105688129285"><ele>235.0</ele><time>2026-04-04T14:08:13Z</time></trkpt><trkpt lat="43.01487262844963" lon="11.199002442150528"><ele>235.0</ele><time>2026-04-04T14:08:15Z</time></trkpt><trkpt lat="43.014869095347606" lon="11.198904032995005"><ele>234.99999999999997</ele><time>2026-04-04T14:08:19Z</time></trkpt><trkpt lat="43.01483609474755" lon="11.198823176629643"><ele>235.0</ele><time>2026-04-04T14:08:24Z</time></trkpt><trkpt lat="43.014824947154715" lon="11.198690165528054"><ele>234.49999999999997</ele><time>2026-04-04T14:08:28Z</time></trkpt><trkpt lat="43.014796847997594" lon="11.198609442927472"><ele>234.0</ele><time>2026-04-04T14:08:29Z</time></trkpt><trkpt lat="43.01478289778761" lon="11.198469456218215"><ele>233.5</ele><time>2026-04-04T14:08:31Z</time></trkpt><trkpt lat="43.014810262514125" lon="11.198372989056745"><ele>233.0</ele><time>2026-04-04T14:08:33Z</time></trkpt><trkpt lat="43.01489133838545" lon="11.198240779674748"><ele>232.49999999999997</ele><time>2026-04-04T14:08:35Z</time></trkpt><trkpt lat="43.01494360108336" lon="11.198181779871396"><ele>232.0</ele><time>2026-04-04T14:08:36Z</time></trkpt><trkpt lat="43.014995483017934" lon="11.198108752175296"><ele>235.00000000000003</ele><time>2026-04-04T14:08:37Z</time></trkpt><trkpt lat="43.015028836481925" lon="11.198027376292455"><ele>238.0</ele><time>2026-04-04T14:08:38Z</time></trkpt><trkpt lat="43.01504933544753" lon="11.197929441399584"><ele>241.00000000000003</ele><time>2026-04-04T14:08:39Z</time></trkpt><trkpt lat="43.01506095736095" lon="11.197843334584729"><ele>244.00000000000003</ele><time>2026-04-04T14:08:40Z</time></trkpt><trkpt lat="43.015083357981" lon="11.19772660372235"><ele>247.0</ele><time>2026-04-04T14:08:41Z</time></trkpt><trkpt lat="43.01511175642931" lon="11.197630670063308"><ele>250.00000000000003</ele><time>2026-04-04T14:08:42Z</time></trkpt><trkpt lat="43.01514126921139" lon="11.197549543805177"><ele>253.00000000000003</ele><time>2026-04-04T14:08:43Z</time></trkpt><trkpt lat="43.01517503006797" lon="11.197468142600947"><ele>252.99999999999997</ele><time>2026-04-04T14:08:44Z</time></trkpt><trkpt lat="43.01522021812828" lon="11.197381414128714"><ele>253.0</ele><time>2026-04-04T14:08:45Z</time></trkpt><trkpt lat="43.01526125284778" lon="11.197290163162602"><ele>253.0</ele><time>2026-04-04T14:08:46Z</time></trkpt><trkpt lat="43.01531088360106" lon="11.197204848991786"><ele>253.0</ele><time>2026-04-04T14:08:47Z</time></trkpt><trkpt lat="43.01535082434309" lon="11.197108783179527"><ele>252.99999999999997</ele><time>2026-04-04T14:08:48Z</time></trkpt><trkpt lat="43.015383176801954" lon="11.197024595617329"><ele>253.0</ele><time>2026-04-04T14:08:49Z</time></trkpt><trkpt lat="43.01542009056804" lon="11.196930880224995"><ele>253.33333333333331</ele><time>2026-04-04T14:08:50Z</time></trkpt><trkpt lat="43.01543987253271" lon="11.196819069689905"><ele>253.66666666666666</ele><time>2026-04-04T14:08:51Z</time></trkpt><trkpt lat="43.01547735298221" lon="11.196709858283864"><ele>254.0</ele><time>2026-04-04T14:08:52Z</time></trkpt><trkpt lat="43.015529136916236" lon="11.19661095634825"><ele>254.33333333333331</ele><time>2026-04-04T14:08:53Z</time></trkpt><trkpt lat="43.0155672368129" lon="11.196497746661425"><ele>254.66666666666666</ele><time>2026-04-04T14:08:54Z</time></trkpt><trkpt lat="43.015603183964934" lon="11.196395973328126"><ele>255.0</ele><time>2026-04-04T14:08:55Z</time></trkpt><trkpt lat="43.015639634445435" lon="11.196288441249497"><ele>255.16666666666666</ele><time>2026-04-04T14:08:56Z</time></trkpt><trkpt lat="43.01569078045645" lon="11.196184434958965"><ele>255.33333333333331</ele><time>2026-04-04T14:08:57Z</time></trkpt><trkpt lat="43.01572161615947" lon="11.196072948952795"><ele>255.5</ele><time>2026-04-04T14:08:58Z</time></trkpt><trkpt lat="43.01576230437217" lon="11.195976427077621"><ele>255.66666666666666</ele><time>2026-04-04T14:08:59Z</time></trkpt><trkpt lat="43.015793130686724" lon="11.195876056144243"><ele>255.83333333333331</ele><time>2026-04-04T14:09:00Z</time></trkpt><trkpt lat="43.015828253421454" lon="11.195777708792894"><ele>256.0</ele><time>2026-04-04T14:09:01Z</time></trkpt><trkpt lat="43.01585360250079" lon="11.195692338260521"><ele>258.8333333333333</ele><time>2026-04-04T14:09:02Z</time></trkpt><trkpt lat="43.015888354347695" lon="11.195584785541431"><ele>261.66666666666663</ele><time>2026-04-04T14:09:03Z</time></trkpt><trkpt lat="43.01591779843009" lon="11.195491062427196"><ele>264.5</ele><time>2026-04-04T14:09:04Z</time></trkpt><trkpt lat="43.015959080427216" lon="11.195411261928175"><ele>267.3333333333333</ele><time>2026-04-04T14:09:05Z</time></trkpt><trkpt lat="43.01601612352712" lon="11.195266183433038"><ele>270.1666666666667</ele><time>2026-04-04T14:09:07Z</time></trkpt><trkpt lat="43.016047566121934" lon="11.19518997608583"><ele>273.0</ele><time>2026-04-04T14:09:08Z</time></trkpt><trkpt lat="43.01609937054915" lon="11.195126163473565"><ele>273.0</ele><time>2026-04-04T14:09:09Z</time></trkpt><trkpt lat="43.016166631737825" lon="11.19505830394145"><ele>273.0</ele><time>2026-04-04T14:09:10Z</time></trkpt><trkpt lat="43.016235734617474" lon="11.19500671553986"><ele>273.0</ele><time>2026-04-04T14:09:11Z</time></trkpt><trkpt lat="43.01630523102649" lon="11.194976276122663"><ele>273.0</ele><time>2026-04-04T14:09:12Z</time></trkpt><trkpt lat="43.016368425767695" lon="11.194965854752134"><ele>273.0</ele><time>2026-04-04T14:09:13Z</time></trkpt><trkpt lat="43.016475750643885" lon="11.19492497634862"><ele>273.0</ele><time>2026-04-04T14:09:15Z</time></trkpt><trkpt lat="43.01656936308774" lon="11.194827348654076"><ele>274.2</ele><time>2026-04-04T14:09:17Z</time></trkpt><trkpt lat="43.01664907150386" lon="11.19469960039815"><ele>275.4</ele><time>2026-04-04T14:09:19Z</time></trkpt><trkpt lat="43.01668610108031" lon="11.194623932179452"><ele>276.59999999999997</ele><time>2026-04-04T14:09:20Z</time></trkpt><trkpt lat="43.01673879380926" lon="11.194469992504041"><ele>277.8</ele><time>2026-04-04T14:09:22Z</time></trkpt><trkpt lat="43.016771468897275" lon="11.194313035813105"><ele>279.0</ele><time>2026-04-04T14:09:24Z</time></trkpt><trkpt lat="43.01676315985606" lon="11.194149740147244"><ele>280.3333333333333</ele><time>2026-04-04T14:09:26Z</time></trkpt><trkpt lat="43.01675486633547" lon="11.194058160722243"><ele>281.6666666666667</ele><time>2026-04-04T14:09:27Z</time></trkpt><trkpt lat="43.016738555627434" lon="11.193967716087625"><ele>283.0</ele><time>2026-04-04T14:09:28Z</time></trkpt><trkpt lat="43.01669289426974" lon="11.1938007266955"><ele>284.33333333333337</ele><time>2026-04-04T14:09:30Z</time></trkpt><trkpt lat="43.01666065089063" lon="11.193722284491649"><ele>285.6666666666667</ele><time>2026-04-04T14:09:31Z</time></trkpt><trkpt lat="43.01663777357172" lon="11.193621633755388"><ele>287.0</ele><time>2026-04-04T14:09:32Z</time></trkpt><trkpt lat="43.01659317363799" lon="11.193543579984166"><ele>287.0</ele><time>2026-04-04T14:09:33Z</time></trkpt><trkpt lat="43.01654069862764" lon="11.193386786837152"><ele>287.0</ele><time>2026-04-04T14:09:35Z</time></trkpt><trkpt lat="43.0165088759493" lon="11.193292413868356"><ele>287.0</ele><time>2026-04-04T14:09:36Z</time></trkpt><trkpt lat="43.01647892155615" lon="11.193194323809976"><ele>287.0</ele><time>2026-04-04T14:09:37Z</time></trkpt><trkpt lat="43.016440116084524" lon="11.193091930716626"><ele>287.0</ele><time>2026-04-04T14:09:38Z</time></trkpt><trkpt lat="43.016404920284536" lon="11.192983704690835"><ele>288.8</ele><time>2026-04-04T14:09:39Z</time></trkpt><trkpt lat="43.01636484648787" lon="11.192847237128085"><ele>290.6</ele><time>2026-04-04T14:09:40Z</time></trkpt><trkpt lat="43.01634950016455" lon="11.192723696555902"><ele>292.40000000000003</ele><time>2026-04-04T14:09:41Z</time></trkpt><trkpt lat="43.01633199980521" lon="11.192623454400689"><ele>294.2</ele><time>2026-04-04T14:09:42Z</time></trkpt><trkpt lat="43.01629852023262" lon="11.192508431760205"><ele>296.0</ele><time>2026-04-04T14:09:43Z</time></trkpt><trkpt lat="43.016268339303366" lon="11.192389963049553"><ele>297.40000000000003</ele><time>2026-04-04T14:09:44Z</time></trkpt><trkpt lat="43.01623791084559" lon="11.192266883307443"><ele>298.8</ele><time>2026-04-04T14:09:45Z</time></trkpt><trkpt lat="43.016211043243075" lon="11.192147353591924"><ele>300.20000000000005</ele><time>2026-04-04T14:09:46Z</time></trkpt><trkpt lat="43.016181741675396" lon="11.192028155909377"><ele>301.6</ele><time>2026-04-04T14:09:47Z</time></trkpt><trkpt lat="43.016152503462735" lon="11.191920599642195"><ele>303.0</ele><time>2026-04-04T14:09:48Z</time></trkpt><trkpt lat="43.016126527552004" lon="11.191804381979312"><ele>303.0</ele><time>2026-04-04T14:09:49Z</time></trkpt><trkpt lat="43.0160978285601" lon="11.191712972395331"><ele>303.0</ele><time>2026-04-04T14:09:50Z</time></trkpt><trkpt lat="43.016064797940416" lon="11.191603014761148"><ele>303.0</ele><time>2026-04-04T14:09:51Z</time></trkpt><trkpt lat="43.01605514753986" lon="11.191488712027482"><ele>303.0</ele><time>2026-04-04T14:09:52Z</time></trkpt><trkpt lat="43.01603959326821" lon="11.19138531823431"><ele>303.0</ele><time>2026-04-04T14:09:53Z</time></trkpt><trkpt lat="43.01601078431087" lon="11.191278118020307"><ele>303.0</ele><time>2026-04-04T14:09:54Z</time></trkpt><trkpt lat="43.015984168959235" lon="11.191165778533168"><ele>304.8571428571429</ele><time>2026-04-04T14:09:55Z</time></trkpt><trkpt lat="43.01596511130001" lon="11.19106940120346"><ele>306.7142857142857</ele><time>2026-04-04T14:09:56Z</time></trkpt><trkpt lat="43.01594438902885" lon="11.190985510597505"><ele>308.57142857142856</ele><time>2026-04-04T14:09:57Z</time></trkpt><trkpt lat="43.01590444469564" lon="11.190918515269118"><ele>310.42857142857144</ele><time>2026-04-04T14:09:58Z</time></trkpt><trkpt lat="43.01585503011057" lon="11.190835105326439"><ele>312.2857142857143</ele><time>2026-04-04T14:09:59Z</time></trkpt><trkpt lat="43.015785269961775" lon="11.190768813801634"><ele>314.14285714285717</ele><time>2026-04-04T14:10:00Z</time></trkpt><trkpt lat="43.01571323702994" lon="11.190720513119182"><ele>316.0</ele><time>2026-04-04T14:10:01Z</time></trkpt><trkpt lat="43.015631599145436" lon="11.190688164534324"><ele>320.20000000000005</ele><time>2026-04-04T14:10:02Z</time></trkpt><trkpt lat="43.01554057220911" lon="11.190669247924312"><ele>324.40000000000003</ele><time>2026-04-04T14:10:03Z</time></trkpt><trkpt lat="43.01544578090001" lon="11.190656373906918"><ele>328.6</ele><time>2026-04-04T14:10:04Z</time></trkpt><trkpt lat="43.01535536141127" lon="11.190658972519484"><ele>332.8</ele><time>2026-04-04T14:10:05Z</time></trkpt><trkpt lat="43.015271735595476" lon="11.190664925012156"><ele>337.0</ele><time>2026-04-04T14:10:06Z</time></trkpt><trkpt lat="43.015180593417874" lon="11.190672751727826"><ele>337.0</ele><time>2026-04-04T14:10:07Z</time></trkpt><trkpt lat="43.01508487730161" lon="11.190652945595795"><ele>337.0</ele><time>2026-04-04T14:10:08Z</time></trkpt><trkpt lat="43.0149977400295" lon="11.19066967686296"><ele>337.0</ele><time>2026-04-04T14:10:09Z</time></trkpt><trkpt lat="43.01491061751847" lon="11.190679928559925"><ele>337.0</ele><time>2026-04-04T14:10:10Z</time></trkpt><trkpt lat="43.01482172906124" lon="11.190709659548315"><ele>337.0</ele><time>2026-04-04T14:10:11Z</time></trkpt><trkpt lat="43.014745431922584" lon="11.190744388191273"><ele>337.0</ele><time>2026-04-04T14:10:12Z</time></trkpt><trkpt lat="43.014682951951464" lon="11.190763844841111"><ele>337.0</ele><time>2026-04-04T14:10:13Z</time></trkpt><trkpt lat="43.01462156024096" lon="11.190793938898647"><ele>337.0</ele><time>2026-04-04T14:10:14Z</time></trkpt><trkpt lat="43.014540075093215" lon="11.190801469758084"><ele>337.0</ele><time>2026-04-04T14:10:16Z</time></trkpt><trkpt lat="43.01451580814954" lon="11.190713543808307"><ele>337.0</ele><time>2026-04-04T14:10:18Z</time></trkpt><trkpt lat="43.01458327841727" lon="11.190590127027539"><ele>337.0</ele><time>2026-04-04T14:10:20Z</time></trkpt><trkpt lat="43.0146458113714" lon="11.190457931629462"><ele>337.0</ele><time>2026-04-04T14:10:22Z</time></trkpt><trkpt lat="43.01469757204098" lon="11.190333119781894"><ele>337.0</ele><time>2026-04-04T14:10:24Z</time></trkpt><trkpt lat="43.01474274823939" lon="11.190242439358729"><ele>337.0</ele><time>2026-04-04T14:10:26Z</time></trkpt><trkpt lat="43.01478185886418" lon="11.190135027117051"><ele>337.0</ele><time>2026-04-04T14:10:28Z</time></trkpt><trkpt lat="43.01482989540025" lon="11.190066297321739"><ele>337.0</ele><time>2026-04-04T14:11:00Z</time></trkpt><trkpt lat="43.01487286428754" lon="11.189961678294637"><ele>337.0</ele><time>2026-04-04T14:11:02.001Z</time></trkpt><trkpt lat="43.01492409402138" lon="11.189831609834796"><ele>337.0</ele><time>2026-04-04T14:11:04.001Z</time></trkpt><trkpt lat="43.01499017829887" lon="11.189687616165882"><ele>338.3333333333333</ele><time>2026-04-04T14:11:06.001Z</time></trkpt><trkpt lat="43.015030316381846" lon="11.189605823824381"><ele>339.66666666666663</ele><time>2026-04-04T14:11:07.001Z</time></trkpt><trkpt lat="43.01507447839137" lon="11.189515494325821"><ele>341.0</ele><time>2026-04-04T14:11:08.001Z</time></trkpt><trkpt lat="43.015124316504334" lon="11.189418591431531"><ele>342.3333333333333</ele><time>2026-04-04T14:11:09.001Z</time></trkpt><trkpt lat="43.01516628284431" lon="11.189317108099477"><ele>343.6666666666667</ele><time>2026-04-04T14:11:10.001Z</time></trkpt><trkpt lat="43.01520608104803" lon="11.18921802809396"><ele>345.0</ele><time>2026-04-04T14:11:11.001Z</time></trkpt><trkpt lat="43.0152503945231" lon="11.189125802070507"><ele>345.0</ele><time>2026-04-04T14:11:12.001Z</time></trkpt><trkpt lat="43.015296635399345" lon="11.189034313058704"><ele>345.0</ele><time>2026-04-04T14:11:13.001Z</time></trkpt><trkpt lat="43.015333400854644" lon="11.188943900176563"><ele>345.0</ele><time>2026-04-04T14:11:14.001Z</time></trkpt><trkpt lat="43.01535816251313" lon="11.188858876208434"><ele>345.0</ele><time>2026-04-04T14:11:15.001Z</time></trkpt><trkpt lat="43.01536719069242" lon="11.18877085444151"><ele>345.0</ele><time>2026-04-04T14:11:16.001Z</time></trkpt><trkpt lat="43.01535272903165" lon="11.188681752662205"><ele>345.0</ele><time>2026-04-04T14:11:17.001Z</time></trkpt><trkpt lat="43.01532118558668" lon="11.188604947672449"><ele>345.0</ele><time>2026-04-04T14:11:18.001Z</time></trkpt><trkpt lat="43.01526376722099" lon="11.188541329568151"><ele>345.8</ele><time>2026-04-04T14:11:19.001Z</time></trkpt><trkpt lat="43.0151921158899" lon="11.188467684200189"><ele>346.6</ele><time>2026-04-04T14:11:20.001Z</time></trkpt><trkpt lat="43.015138721510006" lon="11.18840643565538"><ele>347.4</ele><time>2026-04-04T14:11:21.001Z</time></trkpt><trkpt lat="43.01501055800752" lon="11.188384659723448"><ele>348.2</ele><time>2026-04-04T14:11:23.001Z</time></trkpt><trkpt lat="43.01492796368661" lon="11.1884147207046"><ele>349.0</ele><time>2026-04-04T14:11:24.001Z</time></trkpt><trkpt lat="43.014853907557416" lon="11.188452377161783"><ele>350.0</ele><time>2026-04-04T14:11:25.001Z</time></trkpt><trkpt lat="43.01479018261485" lon="11.188477564353745"><ele>351.0</ele><time>2026-04-04T14:11:26.001Z</time></trkpt><trkpt lat="43.01468872916137" lon="11.188515091657381"><ele>352.0</ele><time>2026-04-04T14:11:28.001Z</time></trkpt><trkpt lat="43.01459005312444" lon="11.188498620272444"><ele>353.0</ele><time>2026-04-04T14:11:30.001Z</time></trkpt><trkpt lat="43.01449328225646" lon="11.188373954568895"><ele>354.0</ele><time>2026-04-04T14:11:32.001Z</time></trkpt><trkpt lat="43.01441575773674" lon="11.188337720963762"><ele>354.0</ele><time>2026-04-04T14:11:33.001Z</time></trkpt><trkpt lat="43.014340128493586" lon="11.188280635668177"><ele>354.0</ele><time>2026-04-04T14:11:34.001Z</time></trkpt><trkpt lat="43.014252001930714" lon="11.188221788962364"><ele>354.0</ele><time>2026-04-04T14:11:35.001Z</time></trkpt><trkpt lat="43.01418081760838" lon="11.18817159022209"><ele>354.0</ele><time>2026-04-04T14:11:36.001Z</time></trkpt><trkpt lat="43.014120430620125" lon="11.188133659609514"><ele>354.0</ele><time>2026-04-04T14:11:37.001Z</time></trkpt><trkpt lat="43.01403341962113" lon="11.188044379091247"><ele>354.0</ele><time>2026-04-04T14:11:39.001Z</time></trkpt><trkpt lat="43.01402359438951" lon="11.187915029849888"><ele>355.14285714285717</ele><time>2026-04-04T14:11:41.001Z</time></trkpt><trkpt lat="43.01403757100758" lon="11.187825117806794"><ele>356.2857142857143</ele><time>2026-04-04T14:11:42.001Z</time></trkpt><trkpt lat="43.0140291902372" lon="11.187721516252388"><ele>357.42857142857144</ele><time>2026-04-04T14:11:43.001Z</time></trkpt><trkpt lat="43.014035787226746" lon="11.187621265812936"><ele>358.57142857142856</ele><time>2026-04-04T14:11:44.001Z</time></trkpt><trkpt lat="43.01402413039677" lon="11.187526616138486"><ele>359.71428571428567</ele><time>2026-04-04T14:11:45.001Z</time></trkpt><trkpt lat="43.01399582502052" lon="11.187433474798562"><ele>360.85714285714283</ele><time>2026-04-04T14:11:46.001Z</time></trkpt><trkpt lat="43.013967480266636" lon="11.18735412505723"><ele>362.0</ele><time>2026-04-04T14:11:47.001Z</time></trkpt><trkpt lat="43.013935126665636" lon="11.187277008516356"><ele>363.0</ele><time>2026-04-04T14:11:48.001Z</time></trkpt><trkpt lat="43.01384523886441" lon="11.187183259495747"><ele>364.0</ele><time>2026-04-04T14:11:50.001Z</time></trkpt><trkpt lat="43.0137772114745" lon="11.187144121695184"><ele>365.0</ele><time>2026-04-04T14:11:51.001Z</time></trkpt><trkpt lat="43.01371070232817" lon="11.187126018368197"><ele>366.0</ele><time>2026-04-04T14:11:52.001Z</time></trkpt><trkpt lat="43.01362009783109" lon="11.18702930081777"><ele>367.0</ele><time>2026-04-04T14:11:54.001Z</time></trkpt><trkpt lat="43.013585328443895" lon="11.186956238493195"><ele>368.0</ele><time>2026-04-04T14:11:55.001Z</time></trkpt><trkpt lat="43.01353416217512" lon="11.186880392934139"><ele>368.0</ele><time>2026-04-04T14:11:56.001Z</time></trkpt><trkpt lat="43.013520708896294" lon="11.186783502641147"><ele>368.0</ele><time>2026-04-04T14:11:57.001Z</time></trkpt><trkpt lat="43.01348308583938" lon="11.186714316957639"><ele>368.0</ele><time>2026-04-04T14:11:58.001Z</time></trkpt><trkpt lat="43.01353340393791" lon="11.18659860779248"><ele>368.0</ele><time>2026-04-04T14:11:59.001Z</time></trkpt><trkpt lat="43.013548554039765" lon="11.186507415740566"><ele>368.0</ele><time>2026-04-04T14:12:00.001Z</time></trkpt><trkpt lat="43.01357864448573" lon="11.18640982847388"><ele>368.0</ele><time>2026-04-04T14:12:01.001Z</time></trkpt><trkpt lat="43.01360641280327" lon="11.186332313444996"><ele>368.0</ele><time>2026-04-04T14:12:02.001Z</time></trkpt><trkpt lat="43.01365045625438" lon="11.18618342755658"><ele>369.5</ele><time>2026-04-04T14:12:04.001Z</time></trkpt><trkpt lat="43.0136727721994" lon="11.186021240062228"><ele>371.0</ele><time>2026-04-04T14:12:06.001Z</time></trkpt><trkpt lat="43.01370467251511" lon="11.185892485149772"><ele>372.5</ele><time>2026-04-04T14:12:08.001Z</time></trkpt><trkpt lat="43.01371445793133" lon="11.185796579219168"><ele>374.0</ele><time>2026-04-04T14:12:43.001Z</time></trkpt><trkpt lat="43.01367865551148" lon="11.185698251144718"><ele>375.5</ele><time>2026-04-04T14:19:52.001Z</time></trkpt><trkpt lat="43.01367195366993" lon="11.185603885515343"><ele>377.0</ele><time>2026-04-04T14:19:54.001Z</time></trkpt><trkpt lat="43.01363762035689" lon="11.185507979785884"><ele>376.40000000000003</ele><time>2026-04-04T14:19:56.001Z</time></trkpt><trkpt lat="43.01356584716597" lon="11.185419016748629"><ele>375.8</ele><time>2026-04-04T14:19:59.001Z</time></trkpt><trkpt lat="43.013493436809874" lon="11.18535937271545"><ele>375.2</ele><time>2026-04-04T14:20:01.001Z</time></trkpt><trkpt lat="43.013411265986434" lon="11.185249566896708"><ele>374.6</ele><time>2026-04-04T14:20:03.001Z</time></trkpt><trkpt lat="43.01333958921772" lon="11.185134551791396"><ele>374.0</ele><time>2026-04-04T14:20:05.001Z</time></trkpt><trkpt lat="43.01327634782859" lon="11.185010614822376"><ele>374.0</ele><time>2026-04-04T14:20:07.001Z</time></trkpt><trkpt lat="43.013248874707166" lon="11.184923831884623"><ele>374.0</ele><time>2026-04-04T14:20:08.001Z</time></trkpt><trkpt lat="43.01322276916888" lon="11.184774384279535"><ele>374.0</ele><time>2026-04-04T14:20:10.001Z</time></trkpt><trkpt lat="43.01322246310231" lon="11.184654286949185"><ele>374.0</ele><time>2026-04-04T14:20:12.001Z</time></trkpt><trkpt lat="43.01316783723267" lon="11.184525550040739"><ele>374.0</ele><time>2026-04-04T14:20:14Z</time></trkpt><trkpt lat="43.01313807580927" lon="11.18442702251146"><ele>376.5</ele><time>2026-04-04T14:20:15Z</time></trkpt><trkpt lat="43.01310935982911" lon="11.184341557384041"><ele>379.0</ele><time>2026-04-04T14:20:16Z</time></trkpt><trkpt lat="43.01308132378132" lon="11.184250627475427"><ele>381.5</ele><time>2026-04-04T14:20:17Z</time></trkpt><trkpt lat="43.01302060910155" lon="11.184108617257001"><ele>384.0</ele><time>2026-04-04T14:20:19Z</time></trkpt><trkpt lat="43.01299052371559" lon="11.18402783995832"><ele>386.49999999999994</ele><time>2026-04-04T14:20:20Z</time></trkpt><trkpt lat="43.01294092821637" lon="11.183968297928649"><ele>389.0</ele><time>2026-04-04T14:20:21Z</time></trkpt><trkpt lat="43.01291067061373" lon="11.1838217216302"><ele>391.2</ele><time>2026-04-04T14:20:23Z</time></trkpt><trkpt lat="43.012905216986255" lon="11.183729321912054"><ele>393.4</ele><time>2026-04-04T14:20:24Z</time></trkpt><trkpt lat="43.0129022439538" lon="11.18364033822185"><ele>395.6</ele><time>2026-04-04T14:20:25Z</time></trkpt><trkpt lat="43.012943979988265" lon="11.183402337663592"><ele>397.8</ele><time>2026-04-04T14:20:28Z</time></trkpt><trkpt lat="43.01295227585472" lon="11.183308858887024"><ele>400.0</ele><time>2026-04-04T14:20:29Z</time></trkpt><trkpt lat="43.01295973574341" lon="11.18321226056191"><ele>399.33333333333337</ele><time>2026-04-04T14:20:30Z</time></trkpt><trkpt lat="43.01296802523922" lon="11.183120185810653"><ele>398.6666666666667</ele><time>2026-04-04T14:20:31Z</time></trkpt><trkpt lat="43.01298939764826" lon="11.183018553151015"><ele>398.0</ele><time>2026-04-04T14:20:32Z</time></trkpt><trkpt lat="43.01302104982708" lon="11.18290508544196"><ele>397.33333333333337</ele><time>2026-04-04T14:20:33Z</time></trkpt><trkpt lat="43.01306235602209" lon="11.182799779682625"><ele>396.6666666666667</ele><time>2026-04-04T14:20:34Z</time></trkpt><trkpt lat="43.01310293468314" lon="11.182695171524877"><ele>396.0</ele><time>2026-04-04T14:20:35Z</time></trkpt><trkpt lat="43.01314042281096" lon="11.182590213255724"><ele>396.0</ele><time>2026-04-04T14:20:36Z</time></trkpt><trkpt lat="43.01317338898881" lon="11.182484991729575"><ele>396.0</ele><time>2026-04-04T14:20:37Z</time></trkpt><trkpt lat="43.01320755934551" lon="11.182387584220589"><ele>396.0</ele><time>2026-04-04T14:20:38Z</time></trkpt><trkpt lat="43.013239510684514" lon="11.182292602563617"><ele>396.0</ele><time>2026-04-04T14:20:39Z</time></trkpt><trkpt lat="43.01326940528079" lon="11.182201609415864"><ele>396.0</ele><time>2026-04-04T14:20:40Z</time></trkpt><trkpt lat="43.01330737452154" lon="11.182122472120906"><ele>396.0</ele><time>2026-04-04T14:20:41Z</time></trkpt><trkpt lat="43.01335457779683" lon="11.18204584523746"><ele>398.3333333333333</ele><time>2026-04-04T14:20:42Z</time></trkpt><trkpt lat="43.013410032232635" lon="11.181973392509587"><ele>400.66666666666663</ele><time>2026-04-04T14:20:43Z</time></trkpt><trkpt lat="43.013468816515214" lon="11.181897673503851"><ele>403.0</ele><time>2026-04-04T14:20:44Z</time></trkpt><trkpt lat="43.01352206398123" lon="11.181818663436141"><ele>405.3333333333333</ele><time>2026-04-04T14:20:45Z</time></trkpt><trkpt lat="43.013570492874194" lon="11.18173477750227"><ele>407.66666666666663</ele><time>2026-04-04T14:20:46Z</time></trkpt><trkpt lat="43.013614667725264" lon="11.181648386385342"><ele>410.0</ele><time>2026-04-04T14:20:47Z</time></trkpt><trkpt lat="43.013649572147735" lon="11.18156705858802"><ele>408.49999999999994</ele><time>2026-04-04T14:20:48Z</time></trkpt><trkpt lat="43.013693503222655" lon="11.181479086041454"><ele>407.0</ele><time>2026-04-04T14:20:49Z</time></trkpt><trkpt lat="43.013731220106045" lon="11.18137127471658"><ele>405.5</ele><time>2026-04-04T14:20:50Z</time></trkpt><trkpt lat="43.01379397622291" lon="11.181279341425496"><ele>404.0</ele><time>2026-04-04T14:20:51Z</time></trkpt><trkpt lat="43.01383443237673" lon="11.181181529444611"><ele>402.49999999999994</ele><time>2026-04-04T14:20:52Z</time></trkpt><trkpt lat="43.01386249818221" lon="11.181091235969767"><ele>401.0</ele><time>2026-04-04T14:20:53Z</time></trkpt><trkpt lat="43.01388881252528" lon="11.180993244865023"><ele>400.99999999999994</ele><time>2026-04-04T14:20:54Z</time></trkpt><trkpt lat="43.013911864658944" lon="11.180901382197987"><ele>401.0</ele><time>2026-04-04T14:20:55Z</time></trkpt><trkpt lat="43.01391580479681" lon="11.180807915871865"><ele>401.0</ele><time>2026-04-04T14:20:56Z</time></trkpt><trkpt lat="43.01394078270684" lon="11.180727837746753"><ele>401.0</ele><time>2026-04-04T14:20:57Z</time></trkpt><trkpt lat="43.013963696480175" lon="11.180647351296676"><ele>400.99999999999994</ele><time>2026-04-04T14:20:58Z</time></trkpt><trkpt lat="43.013978618705224" lon="11.180480382749357"><ele>401.0</ele><time>2026-04-04T14:21:00Z</time></trkpt><trkpt lat="43.01396858221365" lon="11.180390782049182"><ele>400.99999999999994</ele><time>2026-04-04T14:21:01Z</time></trkpt><trkpt lat="43.01398151156112" lon="11.18030420752721"><ele>401.0</ele><time>2026-04-04T14:21:02Z</time></trkpt><trkpt lat="43.01398948156189" lon="11.180147849185376"><ele>401.0</ele><time>2026-04-04T14:21:04Z</time></trkpt><trkpt lat="43.014005221987055" lon="11.18003182024238"><ele>401.0</ele><time>2026-04-04T14:21:06Z</time></trkpt><trkpt lat="43.0140277020649" lon="11.179951361205815"><ele>400.99999999999994</ele><time>2026-04-04T14:21:07Z</time></trkpt><trkpt lat="43.014083237980486" lon="11.179811114390308"><ele>401.0</ele><time>2026-04-04T14:21:09Z</time></trkpt><trkpt lat="43.01412068027919" lon="11.1796616064547"><ele>401.20000000000005</ele><time>2026-04-04T14:21:11Z</time></trkpt><trkpt lat="43.01415117521379" lon="11.179577787118205"><ele>401.40000000000003</ele><time>2026-04-04T14:21:12Z</time></trkpt><trkpt lat="43.01418213275439" lon="11.179482490421165"><ele>401.6</ele><time>2026-04-04T14:21:13Z</time></trkpt><trkpt lat="43.01421288316786" lon="11.17939198638849"><ele>401.8</ele><time>2026-04-04T14:21:14Z</time></trkpt><trkpt lat="43.014253661241774" lon="11.179240801407603"><ele>402.0</ele><time>2026-04-04T14:21:16Z</time></trkpt><trkpt lat="43.014316682158515" lon="11.179091664416932"><ele>404.1666666666667</ele><time>2026-04-04T14:21:18Z</time></trkpt><trkpt lat="43.0143881289581" lon="11.178965811573226"><ele>406.33333333333337</ele><time>2026-04-04T14:21:20Z</time></trkpt><trkpt lat="43.01444053816037" lon="11.178819605311292"><ele>408.5</ele><time>2026-04-04T14:21:22Z</time></trkpt><trkpt lat="43.01446668498242" lon="11.178735382773079"><ele>410.6666666666667</ele><time>2026-04-04T14:21:23Z</time></trkpt><trkpt lat="43.014494978165835" lon="11.17864838418964"><ele>412.83333333333337</ele><time>2026-04-04T14:21:24Z</time></trkpt><trkpt lat="43.014528163944256" lon="11.178558265531821"><ele>415.0</ele><time>2026-04-04T14:21:25Z</time></trkpt><trkpt lat="43.014559510356364" lon="11.178468614349573"><ele>415.00000000000006</ele><time>2026-04-04T14:21:26Z</time></trkpt><trkpt lat="43.01458753709717" lon="11.178367798371006"><ele>415.0</ele><time>2026-04-04T14:21:27Z</time></trkpt><trkpt lat="43.01461610876035" lon="11.17826416424369"><ele>415.0</ele><time>2026-04-04T14:21:28Z</time></trkpt><trkpt lat="43.014641802230614" lon="11.178154128174704"><ele>415.0</ele><time>2026-04-04T14:21:29Z</time></trkpt><trkpt lat="43.01466918070021" lon="11.178051716536931"><ele>415.00000000000006</ele><time>2026-04-04T14:21:30Z</time></trkpt><trkpt lat="43.014693674369404" lon="11.177964152333574"><ele>415.0</ele><time>2026-04-04T14:21:31Z</time></trkpt><trkpt lat="43.014715678946565" lon="11.177867176287464"><ele>415.1666666666667</ele><time>2026-04-04T14:21:32Z</time></trkpt><trkpt lat="43.014742467520826" lon="11.177758071958442"><ele>415.33333333333337</ele><time>2026-04-04T14:21:33Z</time></trkpt><trkpt lat="43.01477201078956" lon="11.177648968849553"><ele>415.5</ele><time>2026-04-04T14:21:34Z</time></trkpt><trkpt lat="43.01479528787853" lon="11.177539764165632"><ele>415.66666666666663</ele><time>2026-04-04T14:21:35Z</time></trkpt><trkpt lat="43.014831193713896" lon="11.177419699520758"><ele>415.8333333333333</ele><time>2026-04-04T14:21:36Z</time></trkpt><trkpt lat="43.01486817920427" lon="11.177300033456241"><ele>416.0</ele><time>2026-04-04T14:21:37Z</time></trkpt><trkpt lat="43.01489714767118" lon="11.177195196408881"><ele>416.3333333333333</ele><time>2026-04-04T14:21:38Z</time></trkpt><trkpt lat="43.014920959589894" lon="11.177090583154978"><ele>416.66666666666663</ele><time>2026-04-04T14:21:39Z</time></trkpt><trkpt lat="43.01493304975161" lon="11.17699399026656"><ele>417.0</ele><time>2026-04-04T14:21:40Z</time></trkpt><trkpt lat="43.01493578324151" lon="11.176886589447317"><ele>417.33333333333337</ele><time>2026-04-04T14:21:41Z</time></trkpt><trkpt lat="43.0149256692586" lon="11.17677890693003"><ele>417.6666666666667</ele><time>2026-04-04T14:21:42Z</time></trkpt><trkpt lat="43.0149125832721" lon="11.176668442930092"><ele>418.0</ele><time>2026-04-04T14:21:43Z</time></trkpt><trkpt lat="43.014912221036944" lon="11.176558149587208"><ele>417.6666666666667</ele><time>2026-04-04T14:21:44Z</time></trkpt><trkpt lat="43.014936262564824" lon="11.17643177346592"><ele>417.33333333333337</ele><time>2026-04-04T14:21:45Z</time></trkpt><trkpt lat="43.01495188985781" lon="11.17631083854161"><ele>417.0</ele><time>2026-04-04T14:21:46Z</time></trkpt><trkpt lat="43.01499509293697" lon="11.176206840877065"><ele>416.66666666666663</ele><time>2026-04-04T14:21:47Z</time></trkpt><trkpt lat="43.01501860867028" lon="11.176101098606054"><ele>416.3333333333333</ele><time>2026-04-04T14:21:48Z</time></trkpt><trkpt lat="43.01504232095668" lon="11.175994724528913"><ele>416.0</ele><time>2026-04-04T14:21:49Z</time></trkpt><trkpt lat="43.01505270729812" lon="11.175888678014877"><ele>418.4285714285714</ele><time>2026-04-04T14:21:50Z</time></trkpt><trkpt lat="43.015075462724205" lon="11.175780886229536"><ele>420.8571428571429</ele><time>2026-04-04T14:21:51Z</time></trkpt><trkpt lat="43.015090090399724" lon="11.175663551863018"><ele>423.2857142857143</ele><time>2026-04-04T14:21:52Z</time></trkpt><trkpt lat="43.01511186133547" lon="11.175580033432524"><ele>425.71428571428567</ele><time>2026-04-04T14:21:53Z</time></trkpt><trkpt lat="43.01512514224789" lon="11.175479326927396"><ele>428.1428571428571</ele><time>2026-04-04T14:21:54Z</time></trkpt><trkpt lat="43.015136369009134" lon="11.175392153731167"><ele>430.57142857142856</ele><time>2026-04-04T14:21:55Z</time></trkpt><trkpt lat="43.01515199664342" lon="11.17530089095915"><ele>433.0</ele><time>2026-04-04T14:21:56Z</time></trkpt><trkpt lat="43.015177570366035" lon="11.175214464786052"><ele>433.00000000000006</ele><time>2026-04-04T14:21:57Z</time></trkpt><trkpt lat="43.01520608385526" lon="11.17512979774659"><ele>433.0</ele><time>2026-04-04T14:21:58Z</time></trkpt><trkpt lat="43.01521892242379" lon="11.175033287809805"><ele>433.0</ele><time>2026-04-04T14:21:59Z</time></trkpt><trkpt lat="43.01527008856856" lon="11.174905354584272"><ele>433.0</ele><time>2026-04-04T14:22:01Z</time></trkpt><trkpt lat="43.015297450973044" lon="11.174787134377437"><ele>433.00000000000006</ele><time>2026-04-04T14:22:03Z</time></trkpt><trkpt lat="43.015325267193774" lon="11.174662144722744"><ele>433.0</ele><time>2026-04-04T14:22:05Z</time></trkpt><trkpt lat="43.015367913459414" lon="11.174508418246385"><ele>433.0</ele><time>2026-04-04T14:22:07Z</time></trkpt><trkpt lat="43.01541492658834" lon="11.174365175536376"><ele>432.99999999999994</ele><time>2026-04-04T14:22:09Z</time></trkpt><trkpt lat="43.01544327306792" lon="11.174242206043589"><ele>432.99999999999994</ele><time>2026-04-04T14:22:11Z</time></trkpt><trkpt lat="43.015473506563204" lon="11.174113863628325"><ele>433.0</ele><time>2026-04-04T14:22:13Z</time></trkpt><trkpt lat="43.015506681840385" lon="11.173978324427246"><ele>433.0</ele><time>2026-04-04T14:22:15Z</time></trkpt><trkpt lat="43.01552692652559" lon="11.173859034550349"><ele>432.59999999999997</ele><time>2026-04-04T14:22:17Z</time></trkpt><trkpt lat="43.01555560335401" lon="11.173707917395463"><ele>432.19999999999993</ele><time>2026-04-04T14:22:19Z</time></trkpt><trkpt lat="43.01557695448507" lon="11.173623568468814"><ele>431.8</ele><time>2026-04-04T14:22:20Z</time></trkpt><trkpt lat="43.01560934146281" lon="11.173462709330407"><ele>431.4</ele><time>2026-04-04T14:22:22Z</time></trkpt><trkpt lat="43.0156377383035" lon="11.17333901587999"><ele>431.0</ele><time>2026-04-04T14:22:24Z</time></trkpt><trkpt lat="43.01565835365091" lon="11.173254616509286"><ele>430.8</ele><time>2026-04-04T14:22:26Z</time></trkpt><trkpt lat="43.01569280617138" lon="11.173178579800352"><ele>430.6</ele><time>2026-04-04T14:22:28Z</time></trkpt><trkpt lat="43.01571226179774" lon="11.173055375593584"><ele>430.4</ele><time>2026-04-04T14:22:30Z</time></trkpt><trkpt lat="43.01571777500408" lon="11.172886766341326"><ele>430.2</ele><time>2026-04-04T14:22:32Z</time></trkpt><trkpt lat="43.01573693237357" lon="11.172722858940219"><ele>430.0</ele><time>2026-04-04T14:22:34Z</time></trkpt><trkpt lat="43.01575011214927" lon="11.172635530099962"><ele>430.00000000000006</ele><time>2026-04-04T14:22:35Z</time></trkpt><trkpt lat="43.01575885175763" lon="11.172545747853087"><ele>430.0</ele><time>2026-04-04T14:22:36Z</time></trkpt><trkpt lat="43.01576900559346" lon="11.172409520943901"><ele>430.0</ele><time>2026-04-04T14:22:38Z</time></trkpt><trkpt lat="43.015779470201586" lon="11.172295325268582"><ele>430.0</ele><time>2026-04-04T14:22:41Z</time></trkpt><trkpt lat="43.0157905674819" lon="11.17220734505859"><ele>430.00000000000006</ele><time>2026-04-04T14:22:45Z</time></trkpt><trkpt lat="43.015807897919345" lon="11.172075481765111"><ele>430.0</ele><time>2026-04-04T14:22:48Z</time></trkpt><trkpt lat="43.01582421516111" lon="11.171991218792684"><ele>431.00000000000006</ele><time>2026-04-04T14:22:51Z</time></trkpt><trkpt lat="43.01584203717361" lon="11.17190464699211"><ele>432.0</ele><time>2026-04-04T14:23:11Z</time></trkpt><trkpt lat="43.01583568175044" lon="11.171792639788555"><ele>433.0</ele><time>2026-04-04T14:23:13Z</time></trkpt><trkpt lat="43.01583536127783" lon="11.171704502074142"><ele>434.0</ele><time>2026-04-04T14:23:14Z</time></trkpt><trkpt lat="43.01586006551563" lon="11.17159280384682"><ele>435.00000000000006</ele><time>2026-04-04T14:23:16Z</time></trkpt><trkpt lat="43.01587646801505" lon="11.171443695678084"><ele>436.0</ele><time>2026-04-04T14:23:18Z</time></trkpt><trkpt lat="43.01588589012771" lon="11.171351549955153"><ele>436.8571428571429</ele><time>2026-04-04T14:23:19Z</time></trkpt><trkpt lat="43.01589468645482" lon="11.17125592355441"><ele>437.7142857142857</ele><time>2026-04-04T14:23:20Z</time></trkpt><trkpt lat="43.015903062474706" lon="11.171157019272012"><ele>438.57142857142856</ele><time>2026-04-04T14:23:21Z</time></trkpt><trkpt lat="43.01591350107978" lon="11.171053795110993"><ele>439.42857142857144</ele><time>2026-04-04T14:23:22Z</time></trkpt><trkpt lat="43.01592548511276" lon="11.170957998255387"><ele>440.2857142857143</ele><time>2026-04-04T14:23:23Z</time></trkpt><trkpt lat="43.01593073076886" lon="11.170858013056694"><ele>441.14285714285717</ele><time>2026-04-04T14:23:24Z</time></trkpt><trkpt lat="43.015938215072" lon="11.170756452357333"><ele>442.0</ele><time>2026-04-04T14:23:25Z</time></trkpt><trkpt lat="43.01594484801186" lon="11.170670051857405"><ele>442.6666666666667</ele><time>2026-04-04T14:23:26Z</time></trkpt><trkpt lat="43.01595335112029" lon="11.170578772702571"><ele>443.33333333333337</ele><time>2026-04-04T14:23:27Z</time></trkpt><trkpt lat="43.015962081809676" lon="11.170483821289709"><ele>444.0</ele><time>2026-04-04T14:23:28Z</time></trkpt><trkpt lat="43.01596942833786" lon="11.170377695128426"><ele>444.66666666666663</ele><time>2026-04-04T14:23:29Z</time></trkpt><trkpt lat="43.01598080681452" lon="11.170264467184833"><ele>445.3333333333333</ele><time>2026-04-04T14:23:30Z</time></trkpt><trkpt lat="43.01599549289216" lon="11.170150492996395"><ele>446.0</ele><time>2026-04-04T14:23:31Z</time></trkpt><trkpt lat="43.01601015592604" lon="11.170041762009053"><ele>445.99999999999994</ele><time>2026-04-04T14:23:32Z</time></trkpt><trkpt lat="43.01602477767502" lon="11.169932784585665"><ele>446.0</ele><time>2026-04-04T14:23:33Z</time></trkpt><trkpt lat="43.01603709034773" lon="11.169821486713023"><ele>446.0</ele><time>2026-04-04T14:23:34Z</time></trkpt><trkpt lat="43.01604894592245" lon="11.169710324611703"><ele>446.0</ele><time>2026-04-04T14:23:35Z</time></trkpt><trkpt lat="43.01605600995709" lon="11.16960014640557"><ele>445.99999999999994</ele><time>2026-04-04T14:23:36Z</time></trkpt><trkpt lat="43.016065361815016" lon="11.169489046646495"><ele>446.0</ele><time>2026-04-04T14:23:37Z</time></trkpt><trkpt lat="43.01607221414832" lon="11.16938603026513"><ele>446.99999999999994</ele><time>2026-04-04T14:23:38Z</time></trkpt><trkpt lat="43.01609324443602" lon="11.169263115695445"><ele>448.0</ele><time>2026-04-04T14:23:39Z</time></trkpt><trkpt lat="43.01612153236926" lon="11.169156365450808"><ele>449.0</ele><time>2026-04-04T14:23:40Z</time></trkpt><trkpt lat="43.016165855959386" lon="11.169051479711003"><ele>450.0</ele><time>2026-04-04T14:23:41Z</time></trkpt><trkpt lat="43.01622831182284" lon="11.168968355934883"><ele>450.99999999999994</ele><time>2026-04-04T14:23:42Z</time></trkpt><trkpt lat="43.01630370732622" lon="11.16890087671987"><ele>452.0</ele><time>2026-04-04T14:23:43Z</time></trkpt><trkpt lat="43.016389186309816" lon="11.168844230050158"><ele>453.3333333333333</ele><time>2026-04-04T14:23:44Z</time></trkpt><trkpt lat="43.01645550595231" lon="11.168769710951757"><ele>454.66666666666663</ele><time>2026-04-04T14:23:45Z</time></trkpt><trkpt lat="43.016524713982996" lon="11.16869404999434"><ele>456.0</ele><time>2026-04-04T14:23:46Z</time></trkpt><trkpt lat="43.01659329398208" lon="11.168633595714393"><ele>457.33333333333337</ele><time>2026-04-04T14:23:47Z</time></trkpt><trkpt lat="43.016660033855274" lon="11.168566652040413"><ele>458.6666666666667</ele><time>2026-04-04T14:23:48Z</time></trkpt><trkpt lat="43.016705820518446" lon="11.168484921661397"><ele>460.0</ele><time>2026-04-04T14:23:49Z</time></trkpt><trkpt lat="43.016733426091065" lon="11.168390471529227"><ele>460.00000000000006</ele><time>2026-04-04T14:23:50Z</time></trkpt><trkpt lat="43.01672856294443" lon="11.16828945985203"><ele>460.0</ele><time>2026-04-04T14:23:51Z</time></trkpt><trkpt lat="43.01668445943622" lon="11.168195566299094"><ele>460.0</ele><time>2026-04-04T14:23:52Z</time></trkpt><trkpt lat="43.01660473268095" lon="11.168140709736145"><ele>460.0</ele><time>2026-04-04T14:23:53Z</time></trkpt><trkpt lat="43.01651000681579" lon="11.168137629439128"><ele>460.00000000000006</ele><time>2026-04-04T14:23:54Z</time></trkpt><trkpt lat="43.01641221722832" lon="11.1681673687615"><ele>460.0</ele><time>2026-04-04T14:23:55Z</time></trkpt><trkpt lat="43.016329338623095" lon="11.168181010474688"><ele>462.1666666666667</ele><time>2026-04-04T14:23:56Z</time></trkpt><trkpt lat="43.01624692458147" lon="11.168149128450098"><ele>464.33333333333337</ele><time>2026-04-04T14:23:57Z</time></trkpt><trkpt lat="43.016173152408555" lon="11.16808083911123"><ele>466.5</ele><time>2026-04-04T14:23:58Z</time></trkpt><trkpt lat="43.01613803446797" lon="11.167978857584682"><ele>468.66666666666663</ele><time>2026-04-04T14:23:59Z</time></trkpt><trkpt lat="43.016145710947285" lon="11.167872419489202"><ele>470.8333333333333</ele><time>2026-04-04T14:24:00Z</time></trkpt><trkpt lat="43.01619127230829" lon="11.167775269125096"><ele>473.0</ele><time>2026-04-04T14:24:01Z</time></trkpt><trkpt lat="43.01626937953286" lon="11.167708179172397"><ele>473.0</ele><time>2026-04-04T14:24:02Z</time></trkpt><trkpt lat="43.01636139867265" lon="11.167661053128297"><ele>472.99999999999994</ele><time>2026-04-04T14:24:03Z</time></trkpt><trkpt lat="43.01645518903377" lon="11.1676129163829"><ele>472.99999999999994</ele><time>2026-04-04T14:24:04Z</time></trkpt><trkpt lat="43.016536572566274" lon="11.167558939238294"><ele>473.0</ele><time>2026-04-04T14:24:05Z</time></trkpt><trkpt lat="43.01661272657739" lon="11.167510120676619"><ele>473.0</ele><time>2026-04-04T14:24:06Z</time></trkpt><trkpt lat="43.01669129617717" lon="11.167460840256927"><ele>472.66666666666663</ele><time>2026-04-04T14:24:07Z</time></trkpt><trkpt lat="43.01675841428179" lon="11.16739693460231"><ele>472.3333333333333</ele><time>2026-04-04T14:24:08Z</time></trkpt><trkpt lat="43.01680166221781" lon="11.167316329621762"><ele>472.0</ele><time>2026-04-04T14:24:09Z</time></trkpt><trkpt lat="43.016810573041745" lon="11.167209464731805"><ele>471.66666666666663</ele><time>2026-04-04T14:24:10Z</time></trkpt><trkpt lat="43.01679344299054" lon="11.167108949439198"><ele>471.3333333333333</ele><time>2026-04-04T14:24:11Z</time></trkpt><trkpt lat="43.01673769451716" lon="11.167023348799576"><ele>471.0</ele><time>2026-04-04T14:24:12Z</time></trkpt><trkpt lat="43.01665179423587" lon="11.166989291016169"><ele>473.3333333333333</ele><time>2026-04-04T14:24:13Z</time></trkpt><trkpt lat="43.01655517563682" lon="11.167003274641017"><ele>475.66666666666663</ele><time>2026-04-04T14:24:14Z</time></trkpt><trkpt lat="43.01646032022569" lon="11.167044955963183"><ele>478.0</ele><time>2026-04-04T14:24:15Z</time></trkpt><trkpt lat="43.016377660970065" lon="11.167051716620417"><ele>480.3333333333333</ele><time>2026-04-04T14:24:16Z</time></trkpt><trkpt lat="43.01628454225445" lon="11.167069568355739"><ele>482.66666666666663</ele><time>2026-04-04T14:24:17Z</time></trkpt><trkpt lat="43.01621019554056" lon="11.167080338248462"><ele>485.0</ele><time>2026-04-04T14:24:18Z</time></trkpt><trkpt lat="43.01613859516516" lon="11.167049646220898"><ele>484.99999999999994</ele><time>2026-04-04T14:24:19Z</time></trkpt><trkpt lat="43.016063091202625" lon="11.167000854952839"><ele>485.0</ele><time>2026-04-04T14:24:20Z</time></trkpt><trkpt lat="43.01600604417031" lon="11.166949303008446"><ele>485.0</ele><time>2026-04-04T14:24:21Z</time></trkpt><trkpt lat="43.01593183571845" lon="11.166861489292298"><ele>485.0</ele><time>2026-04-04T14:24:23Z</time></trkpt><trkpt lat="43.0158817359575" lon="11.166790514980063"><ele>484.99999999999994</ele><time>2026-04-04T14:24:26Z</time></trkpt><trkpt lat="43.015851829429025" lon="11.166656664041255"><ele>485.0</ele><time>2026-04-04T14:24:35Z</time></trkpt><trkpt lat="43.01576751062011" lon="11.166571401733727"><ele>486.4</ele><time>2026-04-04T14:24:37Z</time></trkpt><trkpt lat="43.015675226353835" lon="11.16649359123564"><ele>487.8</ele><time>2026-04-04T14:24:39Z</time></trkpt><trkpt lat="43.015576594430144" lon="11.166427924303733"><ele>489.20000000000005</ele><time>2026-04-04T14:24:41Z</time></trkpt><trkpt lat="43.01545418019417" lon="11.166378257712338"><ele>490.6</ele><time>2026-04-04T14:24:43Z</time></trkpt><trkpt lat="43.01538942985042" lon="11.16636195022271"><ele>492.0</ele><time>2026-04-04T14:24:44Z</time></trkpt><trkpt lat="43.015321404664775" lon="11.166345645090031"><ele>492.0</ele><time>2026-04-04T14:24:45Z</time></trkpt><trkpt lat="43.01524835852896" lon="11.166331373843509"><ele>492.0</ele><time>2026-04-04T14:24:46Z</time></trkpt><trkpt lat="43.01517770395455" lon="11.166314989859279"><ele>492.0</ele><time>2026-04-04T14:24:47Z</time></trkpt><trkpt lat="43.0150973467106" lon="11.166300091409004"><ele>492.0</ele><time>2026-04-04T14:24:48Z</time></trkpt><trkpt lat="43.01501021923675" lon="11.166286954831392"><ele>492.0</ele><time>2026-04-04T14:24:49Z</time></trkpt><trkpt lat="43.01492264067355" lon="11.166279755136392"><ele>492.0</ele><time>2026-04-04T14:24:50Z</time></trkpt><trkpt lat="43.0148212693787" lon="11.166274439929692"><ele>490.6</ele><time>2026-04-04T14:24:51Z</time></trkpt><trkpt lat="43.01471471139004" lon="11.166274670517772"><ele>489.20000000000005</ele><time>2026-04-04T14:24:52Z</time></trkpt><trkpt lat="43.01461926746612" lon="11.166271921004476"><ele>487.8</ele><time>2026-04-04T14:24:53Z</time></trkpt><trkpt lat="43.01452599357216" lon="11.166265515147426"><ele>486.4</ele><time>2026-04-04T14:24:54Z</time></trkpt><trkpt lat="43.01443227530099" lon="11.166257235858055"><ele>485.0</ele><time>2026-04-04T14:24:55Z</time></trkpt><trkpt lat="43.01433060065429" lon="11.166249438828089"><ele>485.0</ele><time>2026-04-04T14:24:56Z</time></trkpt><trkpt lat="43.01422816965519" lon="11.166243770932713"><ele>485.0</ele><time>2026-04-04T14:24:57Z</time></trkpt><trkpt lat="43.01412500340459" lon="11.166239955296492"><ele>485.0</ele><time>2026-04-04T14:24:58Z</time></trkpt><trkpt lat="43.014018991047806" lon="11.166230879289154"><ele>485.0</ele><time>2026-04-04T14:24:59Z</time></trkpt><trkpt lat="43.01391520545765" lon="11.166221744970452"><ele>485.0</ele><time>2026-04-04T14:25:00Z</time></trkpt><trkpt lat="43.01380598966685" lon="11.166220449699201"><ele>485.6</ele><time>2026-04-04T14:25:01Z</time></trkpt><trkpt lat="43.013700197637924" lon="11.166215401999741"><ele>486.2</ele><time>2026-04-04T14:25:02Z</time></trkpt><trkpt lat="43.013592145541054" lon="11.166209763691384"><ele>486.79999999999995</ele><time>2026-04-04T14:25:03Z</time></trkpt><trkpt lat="43.01348270485908" lon="11.166221114072163"><ele>487.4</ele><time>2026-04-04T14:25:04Z</time></trkpt><trkpt lat="43.01337475877786" lon="11.166234848603597"><ele>488.0</ele><time>2026-04-04T14:25:05Z</time></trkpt><trkpt lat="43.01326743818334" lon="11.166251671071679"><ele>488.0</ele><time>2026-04-04T14:25:06Z</time></trkpt><trkpt lat="43.013160921052716" lon="11.166274950350797"><ele>487.99999999999994</ele><time>2026-04-04T14:25:07Z</time></trkpt><trkpt lat="43.0130563683337" lon="11.166302283000599"><ele>487.99999999999994</ele><time>2026-04-04T14:25:08Z</time></trkpt><trkpt lat="43.01294816079986" lon="11.166334118646807"><ele>488.0</ele><time>2026-04-04T14:25:09Z</time></trkpt><trkpt lat="43.01284501678528" lon="11.166364076523987"><ele>488.0</ele><time>2026-04-04T14:25:10Z</time></trkpt><trkpt lat="43.012739430176936" lon="11.166402637321706"><ele>488.0</ele><time>2026-04-04T14:25:11Z</time></trkpt><trkpt lat="43.01263335552704" lon="11.166444811766825"><ele>487.99999999999994</ele><time>2026-04-04T14:25:12Z</time></trkpt><trkpt lat="43.01253633586444" lon="11.166479904018518"><ele>487.99999999999994</ele><time>2026-04-04T14:25:13Z</time></trkpt><trkpt lat="43.01243257140481" lon="11.16651725583814"><ele>488.0</ele><time>2026-04-04T14:25:14Z</time></trkpt><trkpt lat="43.01233500577555" lon="11.166550481140993"><ele>488.0</ele><time>2026-04-04T14:25:15Z</time></trkpt><trkpt lat="43.01223766218554" lon="11.166584967282382"><ele>487.2</ele><time>2026-04-04T14:25:16Z</time></trkpt><trkpt lat="43.01214452486892" lon="11.16662637278521"><ele>486.4</ele><time>2026-04-04T14:25:17Z</time></trkpt><trkpt lat="43.01204963127941" lon="11.166671627652601"><ele>485.59999999999997</ele><time>2026-04-04T14:25:18Z</time></trkpt><trkpt lat="43.011962177639546" lon="11.166714527779419"><ele>484.79999999999995</ele><time>2026-04-04T14:25:19Z</time></trkpt><trkpt lat="43.01187275155336" lon="11.166764356250876"><ele>484.0</ele><time>2026-04-04T14:25:20Z</time></trkpt><trkpt lat="43.011787357673114" lon="11.166817974855997"><ele>484.00000000000006</ele><time>2026-04-04T14:25:21Z</time></trkpt><trkpt lat="43.01170216707154" lon="11.166868793477917"><ele>484.0</ele><time>2026-04-04T14:25:22Z</time></trkpt><trkpt lat="43.01162583987042" lon="11.166919788123897"><ele>484.0</ele><time>2026-04-04T14:25:23Z</time></trkpt><trkpt lat="43.01154812413515" lon="11.166969685494893"><ele>484.0</ele><time>2026-04-04T14:25:24Z</time></trkpt><trkpt lat="43.011475225535904" lon="11.167021022097982"><ele>484.00000000000006</ele><time>2026-04-04T14:25:25Z</time></trkpt><trkpt lat="43.01140251272083" lon="11.16707711377077"><ele>484.0</ele><time>2026-04-04T14:25:26Z</time></trkpt><trkpt lat="43.01132967307068" lon="11.167130635290343"><ele>483.33333333333337</ele><time>2026-04-04T14:25:27Z</time></trkpt><trkpt lat="43.011252029041046" lon="11.167185316456425"><ele>482.6666666666667</ele><time>2026-04-04T14:25:28Z</time></trkpt><trkpt lat="43.01117001844964" lon="11.167238382197043"><ele>482.0</ele><time>2026-04-04T14:25:29Z</time></trkpt><trkpt lat="43.01108946723554" lon="11.167292936791114"><ele>481.33333333333337</ele><time>2026-04-04T14:25:30Z</time></trkpt><trkpt lat="43.011011356004495" lon="11.167345622426511"><ele>480.6666666666667</ele><time>2026-04-04T14:25:31Z</time></trkpt><trkpt lat="43.010931634204454" lon="11.167392991232074"><ele>480.0</ele><time>2026-04-04T14:25:32Z</time></trkpt><trkpt lat="43.01085359347284" lon="11.16744802919155"><ele>479.1666666666667</ele><time>2026-04-04T14:25:33Z</time></trkpt><trkpt lat="43.01078259113875" lon="11.167497232143582"><ele>478.33333333333337</ele><time>2026-04-04T14:25:34Z</time></trkpt><trkpt lat="43.010702756989346" lon="11.167548438604125"><ele>477.5</ele><time>2026-04-04T14:25:35Z</time></trkpt><trkpt lat="43.010624316936024" lon="11.167602655469457"><ele>476.6666666666667</ele><time>2026-04-04T14:25:36Z</time></trkpt><trkpt lat="43.01055009344115" lon="11.167650796289365"><ele>475.83333333333337</ele><time>2026-04-04T14:25:37Z</time></trkpt><trkpt lat="43.01048851569064" lon="11.167693139452364"><ele>475.0</ele><time>2026-04-04T14:25:38Z</time></trkpt><trkpt lat="43.010426677653776" lon="11.167742552443862"><ele>475.00000000000006</ele><time>2026-04-04T14:25:39Z</time></trkpt><trkpt lat="43.010369412497425" lon="11.167795877641"><ele>475.0</ele><time>2026-04-04T14:25:40Z</time></trkpt><trkpt lat="43.01032572934336" lon="11.16785958689476"><ele>475.0</ele><time>2026-04-04T14:25:41Z</time></trkpt><trkpt lat="43.0102822315175" lon="11.168019178842473"><ele>475.0</ele><time>2026-04-04T14:25:43Z</time></trkpt><trkpt lat="43.0102923845917" lon="11.168111047853428"><ele>475.00000000000006</ele><time>2026-04-04T14:25:44Z</time></trkpt><trkpt lat="43.010316218091326" lon="11.168198605316086"><ele>475.0</ele><time>2026-04-04T14:25:45Z</time></trkpt><trkpt lat="43.01033669073194" lon="11.168291641275168"><ele>475.2</ele><time>2026-04-04T14:25:46Z</time></trkpt><trkpt lat="43.01035308667775" lon="11.168458068899707"><ele>475.4</ele><time>2026-04-04T14:25:48Z</time></trkpt><trkpt lat="43.01024141666469" lon="11.168532500618365"><ele>475.6</ele><time>2026-04-04T14:25:50Z</time></trkpt><trkpt lat="43.010167845386775" lon="11.168535851784245"><ele>475.8</ele><time>2026-04-04T14:25:51Z</time></trkpt><trkpt lat="43.010102177231325" lon="11.168541811271407"><ele>476.0</ele><time>2026-04-04T14:25:52Z</time></trkpt><trkpt lat="43.01002904149654" lon="11.168537099916769"><ele>477.66666666666663</ele><time>2026-04-04T14:25:53Z</time></trkpt><trkpt lat="43.00994377945203" lon="11.168537768989513"><ele>479.3333333333333</ele><time>2026-04-04T14:25:54Z</time></trkpt><trkpt lat="43.0098677137565" lon="11.168541297863593"><ele>481.0</ele><time>2026-04-04T14:25:55Z</time></trkpt><trkpt lat="43.00978641909425" lon="11.16855832065617"><ele>482.66666666666663</ele><time>2026-04-04T14:25:56Z</time></trkpt><trkpt lat="43.00971799358845" lon="11.168584230821018"><ele>484.3333333333333</ele><time>2026-04-04T14:25:57Z</time></trkpt><trkpt lat="43.00965644916345" lon="11.168618579042375"><ele>486.0</ele><time>2026-04-04T14:25:58Z</time></trkpt><trkpt lat="43.00952424238533" lon="11.168714521060371"><ele>486.0</ele><time>2026-04-04T14:25:59Z</time></trkpt><trkpt lat="43.00944261117107" lon="11.168773036240378"><ele>486.0</ele><time>2026-04-04T14:26:00Z</time></trkpt><trkpt lat="43.00936780939817" lon="11.168868514005823"><ele>486.0</ele><time>2026-04-04T14:26:01Z</time></trkpt><trkpt lat="43.009289715785606" lon="11.168962908706785"><ele>486.0</ele><time>2026-04-04T14:26:02Z</time></trkpt><trkpt lat="43.00921368778198" lon="11.169058811051732"><ele>486.0</ele><time>2026-04-04T14:26:03Z</time></trkpt><trkpt lat="43.00913644384712" lon="11.169145364965669"><ele>484.6</ele><time>2026-04-04T14:26:04Z</time></trkpt><trkpt lat="43.009061610677634" lon="11.169236888177025"><ele>483.20000000000005</ele><time>2026-04-04T14:26:05Z</time></trkpt><trkpt lat="43.00898406322223" lon="11.16933503401527"><ele>481.79999999999995</ele><time>2026-04-04T14:26:06Z</time></trkpt><trkpt lat="43.008905699554816" lon="11.169424730028464"><ele>480.4</ele><time>2026-04-04T14:26:07Z</time></trkpt><trkpt lat="43.008830451939545" lon="11.169518091470279"><ele>479.0</ele><time>2026-04-04T14:26:08Z</time></trkpt><trkpt lat="43.008756859575044" lon="11.16961382933011"><ele>479.0</ele><time>2026-04-04T14:26:09Z</time></trkpt><trkpt lat="43.00867730865756" lon="11.169703301499503"><ele>479.0</ele><time>2026-04-04T14:26:10Z</time></trkpt><trkpt lat="43.00859814997427" lon="11.169789452966574"><ele>479.0</ele><time>2026-04-04T14:26:11Z</time></trkpt><trkpt lat="43.00851606998948" lon="11.169873305244062"><ele>479.0</ele><time>2026-04-04T14:26:12Z</time></trkpt><trkpt lat="43.008429849071696" lon="11.16994776246312"><ele>479.0</ele><time>2026-04-04T14:26:13Z</time></trkpt><trkpt lat="43.00834338229396" lon="11.170018178905025"><ele>474.79999999999995</ele><time>2026-04-04T14:26:14Z</time></trkpt><trkpt lat="43.008251225554034" lon="11.17008302522537"><ele>470.59999999999997</ele><time>2026-04-04T14:26:15Z</time></trkpt><trkpt lat="43.00815731129583" lon="11.170138669202396"><ele>466.4</ele><time>2026-04-04T14:26:16Z</time></trkpt><trkpt lat="43.00805810139898" lon="11.170194097765787"><ele>462.2</ele><time>2026-04-04T14:26:17Z</time></trkpt><trkpt lat="43.0079585574391" lon="11.17024899265509"><ele>458.0</ele><time>2026-04-04T14:26:18Z</time></trkpt><trkpt lat="43.00785821689582" lon="11.170282755756721"><ele>457.99999999999994</ele><time>2026-04-04T14:26:19Z</time></trkpt><trkpt lat="43.007759067290785" lon="11.170299274150498"><ele>458.0</ele><time>2026-04-04T14:26:20Z</time></trkpt><trkpt lat="43.00766623595619" lon="11.17028697028728"><ele>458.0</ele><time>2026-04-04T14:26:21Z</time></trkpt><trkpt lat="43.00757577401373" lon="11.170267498388009"><ele>458.0</ele><time>2026-04-04T14:26:22Z</time></trkpt><trkpt lat="43.00750686958724" lon="11.170235300283784"><ele>457.99999999999994</ele><time>2026-04-04T14:26:23Z</time></trkpt><trkpt lat="43.0074270057913" lon="11.170195280309441"><ele>458.0</ele><time>2026-04-04T14:26:24Z</time></trkpt><trkpt lat="43.00735560550517" lon="11.1701406163086"><ele>455.8333333333333</ele><time>2026-04-04T14:26:25Z</time></trkpt><trkpt lat="43.00728610325491" lon="11.170072473266172"><ele>453.66666666666663</ele><time>2026-04-04T14:26:26Z</time></trkpt><trkpt lat="43.00722051458815" lon="11.170011214030888"><ele>451.5</ele><time>2026-04-04T14:26:27Z</time></trkpt><trkpt lat="43.00716090524347" lon="11.169939049885505"><ele>449.33333333333337</ele><time>2026-04-04T14:26:28Z</time></trkpt><trkpt lat="43.00710775943785" lon="11.169887555234444"><ele>447.1666666666667</ele><time>2026-04-04T14:26:29Z</time></trkpt><trkpt lat="43.00706430802111" lon="11.169818553593629"><ele>445.0</ele><time>2026-04-04T14:26:30Z</time></trkpt><trkpt lat="43.006997283314796" lon="11.169696861147896"><ele>445.0</ele><time>2026-04-04T14:26:32Z</time></trkpt><trkpt lat="43.00694475692809" lon="11.169636796360505"><ele>445.0</ele><time>2026-04-04T14:26:34Z</time></trkpt><trkpt lat="43.00688771305499" lon="11.16971248122543"><ele>445.0</ele><time>2026-04-04T14:26:37Z</time></trkpt><trkpt lat="43.0068857703155" lon="11.169836177747403"><ele>445.0</ele><time>2026-04-04T14:26:39Z</time></trkpt><trkpt lat="43.006864268129924" lon="11.16998460242976"><ele>445.0</ele><time>2026-04-04T14:26:41Z</time></trkpt><trkpt lat="43.0067879430035" lon="11.170109183794748"><ele>444.8</ele><time>2026-04-04T14:26:43Z</time></trkpt><trkpt lat="43.00667344178652" lon="11.170136048659243"><ele>444.6</ele><time>2026-04-04T14:26:45Z</time></trkpt><trkpt lat="43.006535501723114" lon="11.170160058612911"><ele>444.4</ele><time>2026-04-04T14:26:47Z</time></trkpt><trkpt lat="43.00646957307641" lon="11.170177616430092"><ele>444.2</ele><time>2026-04-04T14:26:48Z</time></trkpt><trkpt lat="43.00639696227061" lon="11.170223020701732"><ele>444.0</ele><time>2026-04-04T14:26:49Z</time></trkpt><trkpt lat="43.006329542474454" lon="11.170274849722412"><ele>441.5</ele><time>2026-04-04T14:26:50Z</time></trkpt><trkpt lat="43.00627035988907" lon="11.170339657018308"><ele>439.0</ele><time>2026-04-04T14:26:51Z</time></trkpt><trkpt lat="43.00621971956461" lon="11.170415315818728"><ele>436.5</ele><time>2026-04-04T14:26:52Z</time></trkpt><trkpt lat="43.006170986015235" lon="11.170499637754189"><ele>434.0</ele><time>2026-04-04T14:26:53Z</time></trkpt><trkpt lat="43.006114451971854" lon="11.170562920801757"><ele>431.5</ele><time>2026-04-04T14:26:54Z</time></trkpt><trkpt lat="43.00605116225814" lon="11.170622261196948"><ele>429.0</ele><time>2026-04-04T14:26:55Z</time></trkpt><trkpt lat="43.00598610426243" lon="11.170677108571791"><ele>429.8333333333333</ele><time>2026-04-04T14:26:56Z</time></trkpt><trkpt lat="43.00591057081252" lon="11.170727942557205"><ele>430.66666666666663</ele><time>2026-04-04T14:26:57Z</time></trkpt><trkpt lat="43.00583603143203" lon="11.170783761880207"><ele>431.5</ele><time>2026-04-04T14:26:58Z</time></trkpt><trkpt lat="43.00577347208347" lon="11.17084629748572"><ele>432.3333333333333</ele><time>2026-04-04T14:26:59Z</time></trkpt><trkpt lat="43.00569036674718" lon="11.1709022300768"><ele>433.16666666666663</ele><time>2026-04-04T14:27:00Z</time></trkpt><trkpt lat="43.00561207141506" lon="11.170955423893622"><ele>434.0</ele><time>2026-04-04T14:27:01Z</time></trkpt><trkpt lat="43.00552836954242" lon="11.171010542004765"><ele>431.2</ele><time>2026-04-04T14:27:02Z</time></trkpt><trkpt lat="43.00545310577803" lon="11.171073729696761"><ele>428.4</ele><time>2026-04-04T14:27:03Z</time></trkpt><trkpt lat="43.00537363815853" lon="11.171133441458608"><ele>425.6</ele><time>2026-04-04T14:27:04Z</time></trkpt><trkpt lat="43.00530013276605" lon="11.171192627571322"><ele>422.8</ele><time>2026-04-04T14:27:05Z</time></trkpt><trkpt lat="43.00521018536458" lon="11.171244290924468"><ele>420.0</ele><time>2026-04-04T14:27:06Z</time></trkpt><trkpt lat="43.00512960419515" lon="11.171299242495753"><ele>420.0</ele><time>2026-04-04T14:27:07Z</time></trkpt><trkpt lat="43.00504475715309" lon="11.171349792468156"><ele>420.0</ele><time>2026-04-04T14:27:08Z</time></trkpt><trkpt lat="43.00496956631172" lon="11.171410586657116"><ele>420.0</ele><time>2026-04-04T14:27:09Z</time></trkpt><trkpt lat="43.00488682141365" lon="11.17146359518203"><ele>420.0</ele><time>2026-04-04T14:27:10Z</time></trkpt><trkpt lat="43.00479941643839" lon="11.171510041590741"><ele>420.0</ele><time>2026-04-04T14:27:11Z</time></trkpt><trkpt lat="43.00472097060894" lon="11.171566429882454"><ele>419.1666666666667</ele><time>2026-04-04T14:27:12Z</time></trkpt><trkpt lat="43.00463589636602" lon="11.171624595158837"><ele>418.33333333333337</ele><time>2026-04-04T14:27:13Z</time></trkpt><trkpt lat="43.004558717683075" lon="11.17168644008468"><ele>417.5</ele><time>2026-04-04T14:27:14Z</time></trkpt><trkpt lat="43.00448036588491" lon="11.171739649636462"><ele>416.6666666666667</ele><time>2026-04-04T14:27:15Z</time></trkpt><trkpt lat="43.00441515567631" lon="11.171806983163377"><ele>415.83333333333337</ele><time>2026-04-04T14:27:16Z</time></trkpt><trkpt lat="43.00434135606798" lon="11.171861723632448"><ele>415.0</ele><time>2026-04-04T14:27:17Z</time></trkpt><trkpt lat="43.00426859238946" lon="11.171912411061305"><ele>415.00000000000006</ele><time>2026-04-04T14:27:18Z</time></trkpt><trkpt lat="43.0041841356964" lon="11.171941812448528"><ele>415.0</ele><time>2026-04-04T14:27:19Z</time></trkpt><trkpt lat="43.004088821210765" lon="11.171938431723229"><ele>415.0</ele><time>2026-04-04T14:27:20Z</time></trkpt><trkpt lat="43.00400455201309" lon="11.17192883330807"><ele>415.0</ele><time>2026-04-04T14:27:21Z</time></trkpt><trkpt lat="43.003920168465754" lon="11.171914418475225"><ele>415.00000000000006</ele><time>2026-04-04T14:27:22Z</time></trkpt><trkpt lat="43.00383822344767" lon="11.171892144995912"><ele>415.0</ele><time>2026-04-04T14:27:23Z</time></trkpt><trkpt lat="43.003751557379736" lon="11.171863055040935"><ele>412.6666666666667</ele><time>2026-04-04T14:27:24Z</time></trkpt><trkpt lat="43.003671520874676" lon="11.171850539459784"><ele>410.33333333333337</ele><time>2026-04-04T14:27:24.999Z</time></trkpt><trkpt lat="43.003589961716905" lon="11.17184442013175"><ele>408.0</ele><time>2026-04-04T14:27:25.999Z</time></trkpt><trkpt lat="43.00351371209015" lon="11.171856010853803"><ele>405.66666666666663</ele><time>2026-04-04T14:27:26.999Z</time></trkpt><trkpt lat="43.0034463875731" lon="11.171874485878392"><ele>403.3333333333333</ele><time>2026-04-04T14:27:27.999Z</time></trkpt><trkpt lat="43.003339765697426" lon="11.171909585510406"><ele>401.0</ele><time>2026-04-04T14:27:29.999Z</time></trkpt><trkpt lat="43.00327481005435" lon="11.171912623486294"><ele>399.3333333333333</ele><time>2026-04-04T14:27:31.999Z</time></trkpt><trkpt lat="43.00318826077474" lon="11.171920140036699"><ele>397.66666666666663</ele><time>2026-04-04T14:27:42.999Z</time></trkpt><trkpt lat="43.003096105884" lon="11.171924404859295"><ele>396.0</ele><time>2026-04-04T14:27:44.999Z</time></trkpt><trkpt lat="43.00304406717219" lon="11.171984496845711"><ele>394.33333333333337</ele><time>2026-04-04T14:27:45.999Z</time></trkpt><trkpt lat="43.00298173237496" lon="11.172023994971754"><ele>392.6666666666667</ele><time>2026-04-04T14:27:46.999Z</time></trkpt><trkpt lat="43.00292032541882" lon="11.172061085820753"><ele>391.0</ele><time>2026-04-04T14:27:47.999Z</time></trkpt><trkpt lat="43.00285208955985" lon="11.17209103959469"><ele>391.00000000000006</ele><time>2026-04-04T14:27:48.999Z</time></trkpt><trkpt lat="43.00278492156495" lon="11.172118057285752"><ele>391.0</ele><time>2026-04-04T14:27:49.999Z</time></trkpt><trkpt lat="43.0027103140605" lon="11.17214123301351"><ele>391.0</ele><time>2026-04-04T14:27:50.999Z</time></trkpt><trkpt lat="43.00263933867675" lon="11.172167031431256"><ele>391.0</ele><time>2026-04-04T14:27:51.999Z</time></trkpt><trkpt lat="43.00255450198668" lon="11.172199765434993"><ele>391.00000000000006</ele><time>2026-04-04T14:27:52.999Z</time></trkpt><trkpt lat="43.002476965076845" lon="11.17223670492528"><ele>391.0</ele><time>2026-04-04T14:27:53.999Z</time></trkpt><trkpt lat="43.0024055376037" lon="11.172286205763797"><ele>390.6666666666667</ele><time>2026-04-04T14:27:54.999Z</time></trkpt><trkpt lat="43.00232701018123" lon="11.172353611558577"><ele>390.33333333333337</ele><time>2026-04-04T14:27:55.999Z</time></trkpt><trkpt lat="43.00225274573439" lon="11.172417299496578"><ele>390.0</ele><time>2026-04-04T14:27:56.999Z</time></trkpt><trkpt lat="43.0021759326158" lon="11.172484312305768"><ele>389.66666666666663</ele><time>2026-04-04T14:27:57.999Z</time></trkpt><trkpt lat="43.00211221264062" lon="11.17254428102582"><ele>389.3333333333333</ele><time>2026-04-04T14:27:58.999Z</time></trkpt><trkpt lat="43.00202886128958" lon="11.172613760267538"><ele>389.0</ele><time>2026-04-04T14:27:59.999Z</time></trkpt><trkpt lat="43.001947195912514" lon="11.172692990225801"><ele>389.0</ele><time>2026-04-04T14:28:00.999Z</time></trkpt><trkpt lat="43.00188457702192" lon="11.172774219650899"><ele>389.0</ele><time>2026-04-04T14:28:02Z</time></trkpt><trkpt lat="43.00181614512604" lon="11.172876021687422"><ele>389.0</ele><time>2026-04-04T14:28:03Z</time></trkpt><trkpt lat="43.00175484135447" lon="11.172982963524893"><ele>389.0</ele><time>2026-04-04T14:28:04Z</time></trkpt><trkpt lat="43.001700629031184" lon="11.173106202648032"><ele>389.0</ele><time>2026-04-04T14:28:05Z</time></trkpt><trkpt lat="43.00165241506585" lon="11.173232991037382"><ele>387.79999999999995</ele><time>2026-04-04T14:28:06Z</time></trkpt><trkpt lat="43.00160485421044" lon="11.173358955747245"><ele>386.59999999999997</ele><time>2026-04-04T14:28:07Z</time></trkpt><trkpt lat="43.001555481493874" lon="11.173481951413756"><ele>385.4</ele><time>2026-04-04T14:28:08Z</time></trkpt><trkpt lat="43.001509967272824" lon="11.173599408588466"><ele>384.2</ele><time>2026-04-04T14:28:09Z</time></trkpt><trkpt lat="43.00146009209244" lon="11.173723061830056"><ele>383.0</ele><time>2026-04-04T14:28:10Z</time></trkpt><trkpt lat="43.00140528261031" lon="11.173826349000882"><ele>383.0</ele><time>2026-04-04T14:28:11Z</time></trkpt><trkpt lat="43.00133387761957" lon="11.17390766574137"><ele>383.0</ele><time>2026-04-04T14:28:12Z</time></trkpt><trkpt lat="43.00125388536186" lon="11.173958453686424"><ele>383.0</ele><time>2026-04-04T14:28:13Z</time></trkpt><trkpt lat="43.00116264429388" lon="11.173971138153398"><ele>383.0</ele><time>2026-04-04T14:28:14Z</time></trkpt><trkpt lat="43.0010777158799" lon="11.173944745286562"><ele>383.0</ele><time>2026-04-04T14:28:15Z</time></trkpt><trkpt lat="43.00101685089428" lon="11.173890871273539"><ele>383.0</ele><time>2026-04-04T14:28:16Z</time></trkpt><trkpt lat="43.000952345622885" lon="11.173821113205431"><ele>383.0</ele><time>2026-04-04T14:28:17Z</time></trkpt><trkpt lat="43.0008887049526" lon="11.173749964593407"><ele>383.0</ele><time>2026-04-04T14:28:18Z</time></trkpt><trkpt lat="43.00082987373212" lon="11.173686295834466"><ele>383.0</ele><time>2026-04-04T14:28:19Z</time></trkpt><trkpt lat="43.00077117923997" lon="11.173615595243803"><ele>383.0</ele><time>2026-04-04T14:28:20Z</time></trkpt><trkpt lat="43.00071271118895" lon="11.173553476996865"><ele>383.0</ele><time>2026-04-04T14:28:21Z</time></trkpt><trkpt lat="43.00065536845466" lon="11.173495073547084"><ele>383.0</ele><time>2026-04-04T14:28:22Z</time></trkpt><trkpt lat="43.0006045552682" lon="11.1734379892069"><ele>383.0</ele><time>2026-04-04T14:28:23Z</time></trkpt><trkpt lat="43.00055443349552" lon="11.1733718611232"><ele>383.25</ele><time>2026-04-04T14:28:24Z</time></trkpt><trkpt lat="43.00051037138867" lon="11.173306888087001"><ele>383.5</ele><time>2026-04-04T14:28:25Z</time></trkpt><trkpt lat="43.00045048779171" lon="11.173194522882689"><ele>383.75</ele><time>2026-04-04T14:28:27Z</time></trkpt><trkpt lat="43.00052257843623" lon="11.172953950697952"><ele>384.0</ele><time>2026-04-04T14:28:30Z</time></trkpt><trkpt lat="43.00058042177307" lon="11.172806664283014"><ele>382.57142857142856</ele><time>2026-04-04T14:28:32Z</time></trkpt><trkpt lat="43.000618356456116" lon="11.17273080756209"><ele>381.1428571428571</ele><time>2026-04-04T14:28:33Z</time></trkpt><trkpt lat="43.000654637414335" lon="11.172651909020168"><ele>379.71428571428567</ele><time>2026-04-04T14:28:34Z</time></trkpt><trkpt lat="43.000693193793126" lon="11.172567189774645"><ele>378.2857142857143</ele><time>2026-04-04T14:28:35Z</time></trkpt><trkpt lat="43.00073128878987" lon="11.172480068190032"><ele>376.8571428571429</ele><time>2026-04-04T14:28:36Z</time></trkpt><trkpt lat="43.00077101151011" lon="11.172393039399882"><ele>375.4285714285714</ele><time>2026-04-04T14:28:37Z</time></trkpt><trkpt lat="43.000809078220065" lon="11.172303901559982"><ele>374.0</ele><time>2026-04-04T14:28:38Z</time></trkpt><trkpt lat="43.00084940307436" lon="11.172217352211597"><ele>373.6666666666667</ele><time>2026-04-04T14:28:39Z</time></trkpt><trkpt lat="43.0008908488181" lon="11.17213162007376"><ele>373.33333333333337</ele><time>2026-04-04T14:28:40Z</time></trkpt><trkpt lat="43.00093261518881" lon="11.172043115492203"><ele>373.0</ele><time>2026-04-04T14:28:41Z</time></trkpt><trkpt lat="43.00096947952337" lon="11.17195157429644"><ele>372.6666666666667</ele><time>2026-04-04T14:28:42Z</time></trkpt><trkpt lat="43.001020398325345" lon="11.171847332024882"><ele>372.3333333333333</ele><time>2026-04-04T14:28:43Z</time></trkpt><trkpt lat="43.0010663532893" lon="11.171749105344901"><ele>372.0</ele><time>2026-04-04T14:28:44Z</time></trkpt><trkpt lat="43.00111935108489" lon="11.17164454475944"><ele>372.0</ele><time>2026-04-04T14:28:45Z</time></trkpt><trkpt lat="43.00117193456576" lon="11.17154012486828"><ele>372.0</ele><time>2026-04-04T14:28:46Z</time></trkpt><trkpt lat="43.00122437506083" lon="11.171435796702157"><ele>372.0</ele><time>2026-04-04T14:28:47Z</time></trkpt><trkpt lat="43.001274802725526" lon="11.171330311273406"><ele>372.0</ele><time>2026-04-04T14:28:48Z</time></trkpt><trkpt lat="43.00132489751529" lon="11.171220499414932"><ele>372.0</ele><time>2026-04-04T14:28:49Z</time></trkpt><trkpt lat="43.001373565214266" lon="11.171106628669662"><ele>371.40000000000003</ele><time>2026-04-04T14:28:50Z</time></trkpt><trkpt lat="43.00142746691338" lon="11.170992358138829"><ele>370.8</ele><time>2026-04-04T14:28:51Z</time></trkpt><trkpt lat="43.00148193587798" lon="11.170875773141137"><ele>370.2</ele><time>2026-04-04T14:28:52Z</time></trkpt><trkpt lat="43.00153678255388" lon="11.170756954618057"><ele>369.6</ele><time>2026-04-04T14:28:53Z</time></trkpt><trkpt lat="43.00158509243941" lon="11.17063823110201"><ele>369.0</ele><time>2026-04-04T14:28:54Z</time></trkpt><trkpt lat="43.00162951787885" lon="11.170520353989298"><ele>369.2</ele><time>2026-04-04T14:28:55Z</time></trkpt><trkpt lat="43.00167315206356" lon="11.170398736404277"><ele>369.4</ele><time>2026-04-04T14:28:56Z</time></trkpt><trkpt lat="43.00172120635465" lon="11.170269493710839"><ele>369.6</ele><time>2026-04-04T14:28:57Z</time></trkpt><trkpt lat="43.00174837376088" lon="11.170132149458334"><ele>369.8</ele><time>2026-04-04T14:28:58Z</time></trkpt><trkpt lat="43.00176457625675" lon="11.169992563708709"><ele>370.0</ele><time>2026-04-04T14:28:59Z</time></trkpt><trkpt lat="43.001770702491164" lon="11.169843885713842"><ele>370.0</ele><time>2026-04-04T14:29:00Z</time></trkpt><trkpt lat="43.00176913869753" lon="11.169694705185135"><ele>370.0</ele><time>2026-04-04T14:29:01Z</time></trkpt><trkpt lat="43.0017574201975" lon="11.169544407389465"><ele>370.0</ele><time>2026-04-04T14:29:02Z</time></trkpt><trkpt lat="43.00173311626146" lon="11.169389738262145"><ele>370.0</ele><time>2026-04-04T14:29:03Z</time></trkpt><trkpt lat="43.001691178287956" lon="11.169243649905892"><ele>369.5</ele><time>2026-04-04T14:29:04Z</time></trkpt><trkpt lat="43.001633765089345" lon="11.169102874453472"><ele>369.0</ele><time>2026-04-04T14:29:05Z</time></trkpt><trkpt lat="43.001575788818" lon="11.16895612807255"><ele>368.5</ele><time>2026-04-04T14:29:06Z</time></trkpt><trkpt lat="43.00152002023226" lon="11.168805883868451"><ele>368.0</ele><time>2026-04-04T14:29:07Z</time></trkpt><trkpt lat="43.00146290517693" lon="11.168656833830084"><ele>368.0</ele><time>2026-04-04T14:29:08Z</time></trkpt><trkpt lat="43.001407024627824" lon="11.16851248998488"><ele>368.0</ele><time>2026-04-04T14:29:09Z</time></trkpt><trkpt lat="43.00135344378935" lon="11.168368466368888"><ele>368.0</ele><time>2026-04-04T14:29:10Z</time></trkpt><trkpt lat="43.00130059440149" lon="11.168221508257062"><ele>368.0</ele><time>2026-04-04T14:29:11Z</time></trkpt><trkpt lat="43.00124544413673" lon="11.168080974319105"><ele>366.5</ele><time>2026-04-04T14:29:12Z</time></trkpt><trkpt lat="43.00118893290624" lon="11.167934067170332"><ele>365.0</ele><time>2026-04-04T14:29:13Z</time></trkpt><trkpt lat="43.00113162031427" lon="11.167791130556312"><ele>363.5</ele><time>2026-04-04T14:29:14Z</time></trkpt><trkpt lat="43.001075625647516" lon="11.16765311561398"><ele>362.0</ele><time>2026-04-04T14:29:15Z</time></trkpt><trkpt lat="43.00102043521596" lon="11.167499446286964"><ele>361.0</ele><time>2026-04-04T14:29:16Z</time></trkpt><trkpt lat="43.00096323699079" lon="11.167356197075105"><ele>360.0</ele><time>2026-04-04T14:29:17Z</time></trkpt><trkpt lat="43.000909321515444" lon="11.167218063856922"><ele>359.0</ele><time>2026-04-04T14:29:18Z</time></trkpt><trkpt lat="43.0008496799771" lon="11.167070364329465"><ele>358.0</ele><time>2026-04-04T14:29:19Z</time></trkpt><trkpt lat="43.00078783456397" lon="11.166933650258708"><ele>356.75</ele><time>2026-04-04T14:29:20Z</time></trkpt><trkpt lat="43.00071495841002" lon="11.166802267857467"><ele>355.5</ele><time>2026-04-04T14:29:21Z</time></trkpt><trkpt lat="43.00062310208274" lon="11.166691493693003"><ele>354.25</ele><time>2026-04-04T14:29:22Z</time></trkpt><trkpt lat="43.000517281512195" lon="11.166603985419894"><ele>353.0</ele><time>2026-04-04T14:29:22.999Z</time></trkpt><trkpt lat="43.00040083121809" lon="11.166543155640936"><ele>353.0</ele><time>2026-04-04T14:29:23.999Z</time></trkpt><trkpt lat="43.00027679430792" lon="11.16650936726578"><ele>353.0</ele><time>2026-04-04T14:29:24.999Z</time></trkpt><trkpt lat="43.000151618392856" lon="11.166496758314226"><ele>353.0</ele><time>2026-04-04T14:29:25.999Z</time></trkpt><trkpt lat="43.00002659075209" lon="11.166534945619178"><ele>353.0</ele><time>2026-04-04T14:29:26.999Z</time></trkpt><trkpt lat="42.99989989755489" lon="11.166570903380043"><ele>353.0</ele><time>2026-04-04T14:29:27.999Z</time></trkpt><trkpt lat="42.99978444701109" lon="11.16662387285975"><ele>353.0</ele><time>2026-04-04T14:29:28.999Z</time></trkpt><trkpt lat="42.99965927251453" lon="11.166681443747736"><ele>353.0</ele><time>2026-04-04T14:29:29.999Z</time></trkpt><trkpt lat="42.99954133742254" lon="11.166737769497265"><ele>353.0</ele><time>2026-04-04T14:29:30.999Z</time></trkpt><trkpt lat="42.9994199664998" lon="11.166796194584578"><ele>353.0</ele><time>2026-04-04T14:29:31.999Z</time></trkpt><trkpt lat="42.99929690603136" lon="11.166855395211757"><ele>353.0</ele><time>2026-04-04T14:29:32.999Z</time></trkpt><trkpt lat="42.99916481763787" lon="11.16691482152675"><ele>353.0</ele><time>2026-04-04T14:29:33.999Z</time></trkpt><trkpt lat="42.99902649136718" lon="11.16696615617139"><ele>353.0</ele><time>2026-04-04T14:29:34.999Z</time></trkpt><trkpt lat="42.9988758019435" lon="11.167003580092306"><ele>352.0</ele><time>2026-04-04T14:29:35.999Z</time></trkpt><trkpt lat="42.99876839391056" lon="11.167057248365142"><ele>351.0</ele><time>2026-04-04T14:29:36.999Z</time></trkpt><trkpt lat="42.998630103885645" lon="11.167059069759476"><ele>350.0</ele><time>2026-04-04T14:29:37.999Z</time></trkpt><trkpt lat="42.998489701937615" lon="11.167047967449767"><ele>349.0</ele><time>2026-04-04T14:29:38.999Z</time></trkpt><trkpt lat="42.998355691707296" lon="11.167034229743225"><ele>348.0</ele><time>2026-04-04T14:29:39.999Z</time></trkpt><trkpt lat="42.99821633324817" lon="11.167026060138971"><ele>347.0</ele><time>2026-04-04T14:29:40.999Z</time></trkpt><trkpt lat="42.998080945583226" lon="11.1670262576172"><ele>346.0</ele><time>2026-04-04T14:29:41.999Z</time></trkpt><trkpt lat="42.99794479880683" lon="11.167030216548405"><ele>345.0</ele><time>2026-04-04T14:29:42.999Z</time></trkpt><trkpt lat="42.997808927160044" lon="11.167005799877824"><ele>345.0</ele><time>2026-04-04T14:29:43.999Z</time></trkpt><trkpt lat="42.9976979733537" lon="11.166927015016114"><ele>345.0</ele><time>2026-04-04T14:29:44.999Z</time></trkpt><trkpt lat="42.997585958123764" lon="11.16685297594006"><ele>345.0</ele><time>2026-04-04T14:29:45.999Z</time></trkpt><trkpt lat="42.99752156339787" lon="11.166703237271445"><ele>345.0</ele><time>2026-04-04T14:29:46.999Z</time></trkpt><trkpt lat="42.997455844238814" lon="11.166544312797026"><ele>340.75</ele><time>2026-04-04T14:29:47.999Z</time></trkpt><trkpt lat="42.99740711110968" lon="11.166373818114455"><ele>336.5</ele><time>2026-04-04T14:29:48.999Z</time></trkpt><trkpt lat="42.99735720265562" lon="11.166196729586204"><ele>332.25</ele><time>2026-04-04T14:29:49.999Z</time></trkpt><trkpt lat="42.99733190954346" lon="11.166008895676939"><ele>328.0</ele><time>2026-04-04T14:29:50.999Z</time></trkpt><trkpt lat="42.997317059473" lon="11.165818707108269"><ele>329.0</ele><time>2026-04-04T14:29:51.999Z</time></trkpt><trkpt lat="42.99733694917925" lon="11.165630373023117"><ele>330.0</ele><time>2026-04-04T14:29:52.999Z</time></trkpt><trkpt lat="42.99738696949491" lon="11.165441234849592"><ele>331.0</ele><time>2026-04-04T14:29:54Z</time></trkpt><trkpt lat="42.99744853315603" lon="11.165260992759173"><ele>332.0</ele><time>2026-04-04T14:29:55Z</time></trkpt><trkpt lat="42.997509440914314" lon="11.165085526175277"><ele>332.0</ele><time>2026-04-04T14:29:56Z</time></trkpt><trkpt lat="42.99756393220339" lon="11.164921183881187"><ele>332.0</ele><time>2026-04-04T14:29:57Z</time></trkpt><trkpt lat="42.99767326105207" lon="11.164809175877972"><ele>332.0</ele><time>2026-04-04T14:29:58Z</time></trkpt><trkpt lat="42.9977877016368" lon="11.164707608335585"><ele>332.0</ele><time>2026-04-04T14:29:59Z</time></trkpt><trkpt lat="42.99791923329932" lon="11.16463117768567"><ele>332.0</ele><time>2026-04-04T14:30:00Z</time></trkpt><trkpt lat="42.99804891572728" lon="11.164559007765428"><ele>332.0</ele><time>2026-04-04T14:30:01Z</time></trkpt><trkpt lat="42.9981655371438" lon="11.164461543985109"><ele>332.0</ele><time>2026-04-04T14:30:02Z</time></trkpt><trkpt lat="42.99827902921157" lon="11.164362708100867"><ele>332.0</ele><time>2026-04-04T14:30:03Z</time></trkpt><trkpt lat="42.998375963854954" lon="11.164225712840985"><ele>332.0</ele><time>2026-04-04T14:30:04Z</time></trkpt><trkpt lat="42.99845569656846" lon="11.164066733950762"><ele>332.0</ele><time>2026-04-04T14:30:05Z</time></trkpt><trkpt lat="42.99852067199921" lon="11.163896915553616"><ele>332.0</ele><time>2026-04-04T14:30:06Z</time></trkpt><trkpt lat="42.99857971589862" lon="11.1637242130671"><ele>332.0</ele><time>2026-04-04T14:30:07Z</time></trkpt><trkpt lat="42.99864366609466" lon="11.163542901122632"><ele>328.75</ele><time>2026-04-04T14:30:08Z</time></trkpt><trkpt lat="42.998707364745584" lon="11.163377410148335"><ele>325.5</ele><time>2026-04-04T14:30:09Z</time></trkpt><trkpt lat="42.9987924302644" lon="11.163224459641736"><ele>322.25</ele><time>2026-04-04T14:30:10Z</time></trkpt><trkpt lat="42.99887825249116" lon="11.163094247088384"><ele>319.0</ele><time>2026-04-04T14:30:11Z</time></trkpt><trkpt lat="42.998959321132496" lon="11.162966749087962"><ele>320.25</ele><time>2026-04-04T14:30:12Z</time></trkpt><trkpt lat="42.99903497959899" lon="11.162836388640677"><ele>321.5</ele><time>2026-04-04T14:30:13Z</time></trkpt><trkpt lat="42.99910836778273" lon="11.162710141318067"><ele>322.75</ele><time>2026-04-04T14:30:14Z</time></trkpt><trkpt lat="42.999176129227614" lon="11.162587130438922"><ele>324.0</ele><time>2026-04-04T14:30:15Z</time></trkpt><trkpt lat="42.99923504264584" lon="11.162448426647035"><ele>322.0</ele><time>2026-04-04T14:30:16Z</time></trkpt><trkpt lat="42.99928185303112" lon="11.162294802097525"><ele>320.0</ele><time>2026-04-04T14:30:17Z</time></trkpt><trkpt lat="42.99931506986547" lon="11.162142302261339"><ele>318.0</ele><time>2026-04-04T14:30:18Z</time></trkpt><trkpt lat="42.99933624565131" lon="11.1619890126585"><ele>316.0</ele><time>2026-04-04T14:30:19Z</time></trkpt><trkpt lat="42.99935007026619" lon="11.161837535732747"><ele>316.0</ele><time>2026-04-04T14:30:20Z</time></trkpt><trkpt lat="42.99935666773132" lon="11.16169556162124"><ele>316.0</ele><time>2026-04-04T14:30:21Z</time></trkpt><trkpt lat="42.9993541758892" lon="11.161561726812202"><ele>316.0</ele><time>2026-04-04T14:30:22Z</time></trkpt><trkpt lat="42.99934358773304" lon="11.161458267083502"><ele>316.0</ele><time>2026-04-04T14:30:23Z</time></trkpt><trkpt lat="42.999334293702645" lon="11.161369693790265"><ele>316.0</ele><time>2026-04-04T14:30:24Z</time></trkpt><trkpt lat="42.999313351786014" lon="11.161259239920025"><ele>316.0</ele><time>2026-04-04T14:30:26Z</time></trkpt><trkpt lat="42.99927164714935" lon="11.16115387728377"><ele>315.0</ele><time>2026-04-04T14:30:29Z</time></trkpt><trkpt lat="42.99920225985587" lon="11.161114437891152"><ele>314.0</ele><time>2026-04-04T14:30:31Z</time></trkpt><trkpt lat="42.999131505045796" lon="11.161063628273519"><ele>313.0</ele><time>2026-04-04T14:30:34Z</time></trkpt><trkpt lat="42.999078005926314" lon="11.161000809334597"><ele>312.0</ele><time>2026-04-04T14:30:46Z</time></trkpt><trkpt lat="42.99898524810636" lon="11.160964739764148"><ele>311.0</ele><time>2026-04-04T14:30:48Z</time></trkpt><trkpt lat="42.99887841236354" lon="11.16092492482413"><ele>310.0</ele><time>2026-04-04T14:30:50Z</time></trkpt><trkpt lat="42.99874063353218" lon="11.160914621601453"><ele>308.16666666666663</ele><time>2026-04-04T14:30:52Z</time></trkpt><trkpt lat="42.99865788605604" lon="11.160924976302212"><ele>306.3333333333333</ele><time>2026-04-04T14:30:53Z</time></trkpt><trkpt lat="42.99857562431684" lon="11.160942017475673"><ele>304.5</ele><time>2026-04-04T14:30:54Z</time></trkpt><trkpt lat="42.998492613865814" lon="11.16097451919281"><ele>302.6666666666667</ele><time>2026-04-04T14:30:55Z</time></trkpt><trkpt lat="42.99841369883054" lon="11.16099568666186"><ele>300.83333333333337</ele><time>2026-04-04T14:30:56Z</time></trkpt><trkpt lat="42.998336028674906" lon="11.161011558372687"><ele>299.0</ele><time>2026-04-04T14:30:57Z</time></trkpt><trkpt lat="42.99824741583092" lon="11.161035603633257"><ele>297.83333333333337</ele><time>2026-04-04T14:30:58Z</time></trkpt><trkpt lat="42.99817008270152" lon="11.161056486427693"><ele>296.6666666666667</ele><time>2026-04-04T14:30:59Z</time></trkpt><trkpt lat="42.998090246016524" lon="11.1610833364372"><ele>295.5</ele><time>2026-04-04T14:31:00Z</time></trkpt><trkpt lat="42.9980088146958" lon="11.161106742279925"><ele>294.3333333333333</ele><time>2026-04-04T14:31:01Z</time></trkpt><trkpt lat="42.99792819432801" lon="11.16112425569832"><ele>293.16666666666663</ele><time>2026-04-04T14:31:02Z</time></trkpt><trkpt lat="42.997845864990985" lon="11.16114006857301"><ele>292.0</ele><time>2026-04-04T14:31:03Z</time></trkpt><trkpt lat="42.9977768954917" lon="11.161165189270152"><ele>292.0</ele><time>2026-04-04T14:31:04Z</time></trkpt><trkpt lat="42.997703221349354" lon="11.161191373105595"><ele>292.0</ele><time>2026-04-04T14:31:05Z</time></trkpt><trkpt lat="42.99762243729762" lon="11.161208316361805"><ele>292.0</ele><time>2026-04-04T14:31:06Z</time></trkpt><trkpt lat="42.99754820798391" lon="11.161218908247168"><ele>292.0</ele><time>2026-04-04T14:31:07Z</time></trkpt><trkpt lat="42.997470426781106" lon="11.16121956387024"><ele>292.0</ele><time>2026-04-04T14:31:08Z</time></trkpt><trkpt lat="42.99739800886366" lon="11.161218888172165"><ele>292.0</ele><time>2026-04-04T14:31:09Z</time></trkpt><trkpt lat="42.997327489032415" lon="11.161205156216363"><ele>291.16666666666663</ele><time>2026-04-04T14:31:10Z</time></trkpt><trkpt lat="42.997253642281706" lon="11.161178934326925"><ele>290.3333333333333</ele><time>2026-04-04T14:31:11Z</time></trkpt><trkpt lat="42.99718362223466" lon="11.161155127211716"><ele>289.5</ele><time>2026-04-04T14:31:12Z</time></trkpt><trkpt lat="42.997114512399584" lon="11.161131743307598"><ele>288.6666666666667</ele><time>2026-04-04T14:31:13Z</time></trkpt><trkpt lat="42.997047618828" lon="11.16109620860464"><ele>287.83333333333337</ele><time>2026-04-04T14:31:14Z</time></trkpt><trkpt lat="42.99698468552623" lon="11.161043766513826"><ele>287.0</ele><time>2026-04-04T14:31:15Z</time></trkpt><trkpt lat="42.99687889925118" lon="11.160966991827443"><ele>287.0</ele><time>2026-04-04T14:31:17Z</time></trkpt><trkpt lat="42.99676270303227" lon="11.160918145889198"><ele>287.0</ele><time>2026-04-04T14:31:19Z</time></trkpt><trkpt lat="42.99666782292696" lon="11.16085219925277"><ele>287.0</ele><time>2026-04-04T14:31:21Z</time></trkpt><trkpt lat="42.99659482580837" lon="11.160761804101606"><ele>287.0</ele><time>2026-04-04T14:31:23Z</time></trkpt><trkpt lat="42.996491429951995" lon="11.160736712345985"><ele>287.0</ele><time>2026-04-04T14:31:25Z</time></trkpt><trkpt lat="42.99638524470206" lon="11.16073425997951"><ele>285.0</ele><time>2026-04-04T14:31:27Z</time></trkpt><trkpt lat="42.99628788250312" lon="11.160701032844706"><ele>283.0</ele><time>2026-04-04T14:31:29Z</time></trkpt><trkpt lat="42.99620113524157" lon="11.160714957631273"><ele>281.0</ele><time>2026-04-04T14:31:31Z</time></trkpt><trkpt lat="42.99613296524516" lon="11.160692111462046"><ele>279.0</ele><time>2026-04-04T14:31:34Z</time></trkpt><trkpt lat="42.99612245120042" lon="11.160886280141906"><ele>277.0</ele><time>2026-04-04T14:31:37Z</time></trkpt><trkpt lat="42.99618270902425" lon="11.160943432462481"><ele>277.0</ele><time>2026-04-04T14:31:39Z</time></trkpt><trkpt lat="42.9962504249341" lon="11.160949974584659"><ele>277.0</ele><time>2026-04-04T14:31:42Z</time></trkpt></trkseg></trk></gpx>